[[{"header":{"parameterUnit":"m.s-1","parameterCategory":1,"la1":30.6,"la2":29.2853,"lo1":-89.7004,"lo2":-87.6739,"dy":0.0162,"dx":0.0183,"nx":112,"ny":82,"refTime":"2023-09-01T06:00:00:Z","depth":0,"parameterNumber":2,"parameterNumberName":"U-component_of_WINDS"},"data":[0.0,0.0,0.0,0.0,0.0,0.0,0.0,0.0,0.0,0.0,0.0,0.0,0.0,0.0,0.0,0.0,0.0,0.0,0.0,0.0,0.0,0.0,0.0,0.0,0.0,0.0,0.0,0.0,0.0,0.0,0.0,0.0,0.0,0.0,0.0,0.0,0.0,0.0,0.0,0.0,0.0,0.0,0.0,0.0,0.0,0.0,0.0,0.0,0.0,0.0,0.0,0.0,0.0,0.0,0.0,0.0,0.0,0.0,0.0,0.0,0.0,0.0,0.0,0.0,0.0,0.0,0.0,0.0,0.0,0.0,0.0,0.0,0.0,0.0,0.0,0.0,0.0,0.0,0.0,0.0,0.0,0.0,0.0,0.0,0.0,0.0,0.0,0.0,0.0,0.0,-2.6303,-2.8107,-3.1205,-3.3177,-3.3324,-3.1723,-2.9473,-2.6497,0.0,0.0,0.0,0.0,0.0,0.0,0.0,0.0,0.0,0.0,0.0,0.0,0.0,0.0,0.0,0.0,0.0,0.0,0.0,0.0,0.0,0.0,0.0,0.0,0.0,0.0,0.0,0.0,0.0,0.0,0.0,0.0,0.0,0.0,0.0,0.0,0.0,0.0,0.0,0.0,0.0,0.0,0.0,0.0,0.0,0.0,0.0,0.0,0.0,0.0,0.0,0.0,0.0,0.0,0.0,0.0,0.0,0.0,0.0,0.0,0.0,0.0,0.0,0.0,0.0,0.0,0.0,0.0,0.0,0.0,0.0,0.0,0.0,0.0,0.0,0.0,0.0,0.0,0.0,0.0,0.0,0.0,0.0,0.0,0.0,0.0,0.0,0.0,0.0,0.0,0.0,0.0,0.0,0.0,0.0,0.0,0.0,0.0,0.0,0.0,0.0,0.0,0.0,0.0,-2.6483,-3.0492,-3.1245,-3.1751,-3.2518,-2.9368,-2.6676,-2.5103,0.0,0.0,0.0,0.0,0.0,0.0,0.0,0.0,0.0,0.0,0.0,0.0,0.0,0.0,0.0,0.0,0.0,0.0,0.0,0.0,0.0,0.0,0.0,0.0,0.0,0.0,0.0,0.0,0.0,0.0,0.0,0.0,0.0,0.0,0.0,0.0,0.0,0.0,0.0,0.0,0.0,0.0,0.0,0.0,0.0,0.0,0.0,0.0,0.0,0.0,0.0,0.0,0.0,0.0,0.0,0.0,0.0,0.0,0.0,0.0,0.0,0.0,0.0,0.0,0.0,0.0,0.0,0.0,0.0,0.0,0.0,0.0,0.0,0.0,0.0,0.0,0.0,0.0,0.0,0.0,0.0,0.0,0.0,0.0,0.0,0.0,0.0,0.0,0.0,0.0,0.0,0.0,0.0,0.0,0.0,0.0,0.0,0.0,0.0,0.0,0.0,0.0,0.0,-2.5481,-2.7255,-3.0977,-3.1287,-3.1367,-3.1785,-2.8962,-2.6475,-2.4748,-2.4218,0.0,0.0,0.0,0.0,0.0,0.0,0.0,0.0,0.0,0.0,0.0,0.0,0.0,0.0,0.0,0.0,0.0,0.0,0.0,0.0,0.0,0.0,0.0,0.0,0.0,0.0,0.0,0.0,0.0,0.0,0.0,0.0,0.0,0.0,0.0,0.0,0.0,0.0,0.0,0.0,0.0,0.0,0.0,0.0,0.0,0.0,0.0,0.0,0.0,0.0,0.0,0.0,0.0,0.0,0.0,0.0,0.0,0.0,0.0,0.0,0.0,0.0,0.0,0.0,0.0,0.0,0.0,0.0,0.0,0.0,0.0,0.0,0.0,0.0,0.0,0.0,0.0,0.0,0.0,0.0,0.0,0.0,0.0,0.0,0.0,0.0,0.0,0.0,0.0,0.0,0.0,0.0,0.0,0.0,0.0,0.0,0.0,0.0,0.0,0.0,0.0,0.0,-2.6404,-2.7723,-3.0543,-3.0757,-3.0748,-3.0742,-2.8417,-2.6153,-2.4197,-2.2872,0.0,0.0,0.0,0.0,0.0,0.0,0.0,0.0,0.0,0.0,0.0,0.0,0.0,0.0,0.0,0.0,0.0,0.0,0.0,0.0,0.0,0.0,0.0,0.0,0.0,0.0,0.0,0.0,0.0,0.0,0.0,0.0,0.0,0.0,0.0,0.0,0.0,0.0,0.0,0.0,0.0,0.0,0.0,0.0,0.0,0.0,0.0,0.0,0.0,0.0,0.0,0.0,0.0,0.0,0.0,0.0,0.0,0.0,0.0,0.0,0.0,0.0,0.0,0.0,0.0,0.0,0.0,0.0,0.0,0.0,0.0,0.0,0.0,0.0,0.0,0.0,0.0,0.0,0.0,0.0,0.0,0.0,0.0,0.0,0.0,0.0,0.0,0.0,0.0,0.0,0.0,0.0,0.0,0.0,0.0,0.0,0.0,0.0,0.0,0.0,0.0,0.0,-2.5525,-2.7276,-2.9214,-2.9226,-2.9108,-2.9158,-2.6493,-2.4165,-2.2635,-2.1056,0.0,0.0,0.0,0.0,0.0,0.0,0.0,0.0,0.0,0.0,0.0,0.0,0.0,0.0,0.0,0.0,0.0,0.0,0.0,0.0,0.0,0.0,0.0,0.0,0.0,0.0,0.0,0.0,0.0,0.0,0.0,0.0,0.0,0.0,0.0,0.0,0.0,0.0,0.0,0.0,0.0,0.0,0.0,0.0,0.0,0.0,0.0,0.0,0.0,0.0,0.0,0.0,0.0,0.0,0.0,0.0,0.0,0.0,0.0,0.0,0.0,0.0,0.0,0.0,0.0,0.0,0.0,0.0,0.0,0.0,0.0,0.0,0.0,0.0,0.0,0.0,0.0,0.0,0.0,0.0,0.0,0.0,0.0,0.0,0.0,0.0,0.0,0.0,0.0,0.0,0.0,0.0,0.0,0.0,0.0,0.0,0.0,0.0,0.0,0.0,0.0,0.0,-2.5097,-2.6476,-2.7882,-2.8266,-2.8221,-2.7774,-2.5581,-2.3716,-2.2469,0.0,0.0,0.0,0.0,0.0,0.0,0.0,0.0,0.0,0.0,0.0,0.0,0.0,0.0,0.0,0.0,0.0,0.0,0.0,0.0,0.0,0.0,0.0,0.0,0.0,0.0,0.0,0.0,0.0,0.0,0.0,0.0,0.0,0.0,0.0,0.0,0.0,0.0,0.0,0.0,0.0,0.0,0.0,0.0,0.0,0.0,0.0,0.0,0.0,0.0,0.0,0.0,0.0,0.0,0.0,0.0,0.0,0.0,0.0,0.0,0.0,0.0,0.0,0.0,0.0,0.0,0.0,0.0,0.0,0.0,0.0,0.0,0.0,0.0,0.0,0.0,0.0,0.0,0.0,0.0,0.0,0.0,0.0,0.0,0.0,0.0,0.0,0.0,0.0,0.0,0.0,0.0,0.0,0.0,0.0,0.0,0.0,0.0,0.0,0.0,0.0,0.0,-2.3473,-2.4779,-2.6025,-2.7168,-2.762,-2.761,-2.7044,-2.4953,-2.3288,-2.2487,0.0,0.0,0.0,0.0,0.0,0.0,0.0,0.0,0.0,0.0,0.0,0.0,0.0,0.0,0.0,0.0,0.0,0.0,0.0,0.0,0.0,0.0,0.0,0.0,0.0,0.0,0.0,0.0,0.0,0.0,0.0,0.0,0.0,0.0,0.0,0.0,0.0,0.0,0.0,0.0,0.0,0.0,0.0,0.0,0.0,0.0,0.0,0.0,0.0,0.0,0.0,0.0,0.0,0.0,0.0,0.0,0.0,0.0,0.0,0.0,0.0,0.0,0.0,0.0,0.0,0.0,0.0,0.0,0.0,0.0,0.0,0.0,0.0,0.0,0.0,0.0,0.0,0.0,0.0,0.0,0.0,0.0,0.0,0.0,0.0,0.0,0.0,0.0,0.0,0.0,0.0,0.0,0.0,0.0,0.0,0.0,0.0,0.0,0.0,0.0,0.0,0.0,-2.2957,-2.4569,-2.6025,-2.7155,-2.7281,-2.7197,-2.6994,-2.4462,-2.28,0.0,0.0,0.0,0.0,0.0,0.0,0.0,0.0,0.0,0.0,0.0,0.0,0.0,0.0,0.0,0.0,0.0,0.0,0.0,0.0,0.0,0.0,0.0,0.0,0.0,0.0,0.0,0.0,0.0,0.0,0.0,0.0,0.0,0.0,0.0,0.0,0.0,0.0,0.0,0.0,0.0,0.0,0.0,0.0,0.0,0.0,0.0,0.0,0.0,0.0,0.0,0.0,0.0,0.0,0.0,0.0,0.0,0.0,0.0,0.0,0.0,0.0,0.0,0.0,0.0,0.0,0.0,0.0,0.0,0.0,0.0,0.0,0.0,0.0,0.0,0.0,0.0,0.0,0.0,0.0,0.0,0.0,0.0,0.0,0.0,0.0,0.0,0.0,0.0,0.0,0.0,0.0,0.0,0.0,0.0,0.0,0.0,0.0,0.0,0.0,0.0,0.0,0.0,-2.2957,-2.4569,-2.5875,-2.665,-2.709,-2.6897,-2.5903,-2.409,-2.2705,-2.1927,0.0,0.0,0.0,0.0,0.0,0.0,0.0,0.0,0.0,0.0,0.0,0.0,0.0,0.0,0.0,0.0,0.0,0.0,0.0,0.0,0.0,0.0,0.0,0.0,0.0,0.0,0.0,0.0,0.0,0.0,0.0,0.0,0.0,0.0,0.0,0.0,0.0,0.0,0.0,0.0,0.0,0.0,0.0,0.0,0.0,0.0,0.0,0.0,0.0,0.0,0.0,0.0,0.0,0.0,0.0,0.0,0.0,0.0,0.0,0.0,0.0,0.0,0.0,0.0,0.0,0.0,0.0,0.0,0.0,0.0,0.0,0.0,0.0,0.0,0.0,0.0,0.0,0.0,0.0,0.0,0.0,0.0,0.0,0.0,0.0,0.0,0.0,0.0,0.0,0.0,0.0,0.0,0.0,0.0,0.0,0.0,0.0,0.0,0.0,0.0,0.0,0.0,-2.2957,-2.4362,-2.5586,-2.6411,-2.6788,-2.6643,-2.5843,-2.4123,-2.279,-2.2096,0.0,0.0,0.0,0.0,0.0,0.0,0.0,0.0,0.0,0.0,0.0,0.0,0.0,0.0,0.0,0.0,0.0,0.0,0.0,0.0,0.0,0.0,0.0,0.0,0.0,0.0,0.0,0.0,0.0,0.0,0.0,0.0,0.0,0.0,0.0,0.0,0.0,0.0,0.0,0.0,0.0,0.0,0.0,0.0,0.0,0.0,0.0,0.0,0.0,0.0,0.0,0.0,0.0,0.0,0.0,0.0,0.0,0.0,0.0,0.0,0.0,0.0,0.0,0.0,0.0,0.0,0.0,0.0,0.0,0.0,0.0,0.0,0.0,0.0,0.0,0.0,0.0,0.0,0.0,0.0,0.0,0.0,0.0,0.0,0.0,0.0,0.0,0.0,0.0,0.0,0.0,0.0,0.0,0.0,0.0,0.0,0.0,0.0,0.0,0.0,0.0,0.0,-2.3032,-2.4123,-2.5247,-2.6373,-2.6499,-2.6474,-2.6411,-2.4431,-2.3042,-2.2658,0.0,0.0,0.0,0.0,0.0,0.0,0.0,0.0,0.0,0.0,0.0,0.0,0.0,0.0,0.0,0.0,0.0,0.0,0.0,0.0,0.0,0.0,0.0,0.0,0.0,0.0,0.0,0.0,0.0,0.0,0.0,0.0,0.0,0.0,0.0,0.0,0.0,0.0,0.0,0.0,0.0,0.0,0.0,0.0,0.0,0.0,0.0,0.0,0.0,0.0,0.0,0.0,0.0,0.0,0.0,0.0,0.0,0.0,0.0,0.0,-2.2762,-2.2056,0.0,0.0,0.0,0.0,0.0,0.0,0.0,0.0,0.0,0.0,0.0,0.0,0.0,0.0,0.0,0.0,0.0,0.0,0.0,0.0,0.0,0.0,0.0,0.0,0.0,0.0,0.0,0.0,0.0,0.0,0.0,0.0,0.0,0.0,0.0,0.0,0.0,0.0,0.0,0.0,-2.3615,-2.4374,-2.5247,-2.6373,-2.6499,-2.6311,-2.5824,-2.4569,-2.3348,-2.2283,-2.0993,0.0,0.0,0.0,0.0,0.0,0.0,0.0,0.0,0.0,0.0,0.0,0.0,0.0,0.0,0.0,0.0,0.0,0.0,0.0,0.0,0.0,0.0,0.0,0.0,0.0,0.0,0.0,0.0,0.0,0.0,0.0,0.0,0.0,0.0,0.0,0.0,0.0,0.0,0.0,0.0,0.0,0.0,0.0,0.0,0.0,0.0,0.0,0.0,0.0,0.0,0.0,0.0,0.0,0.0,0.0,0.0,0.0,0.0,0.0,-2.4698,-2.3386,0.0,0.0,0.0,0.0,0.0,0.0,0.0,0.0,0.0,0.0,0.0,0.0,0.0,0.0,0.0,0.0,0.0,0.0,0.0,0.0,0.0,0.0,0.0,0.0,0.0,0.0,0.0,0.0,0.0,0.0,0.0,0.0,0.0,0.0,0.0,0.0,0.0,0.0,0.0,0.0,-2.3816,-2.4481,-2.5247,-2.6373,-2.6499,-2.6373,-2.6072,-2.477,-2.3578,-2.2548,-2.1247,0.0,0.0,0.0,0.0,0.0,0.0,0.0,0.0,0.0,0.0,0.0,0.0,0.0,0.0,0.0,0.0,0.0,0.0,0.0,0.0,0.0,0.0,0.0,0.0,0.0,0.0,0.0,0.0,0.0,0.0,0.0,0.0,0.0,0.0,0.0,0.0,0.0,0.0,0.0,0.0,0.0,0.0,0.0,0.0,0.0,0.0,0.0,0.0,0.0,0.0,0.0,0.0,0.0,-2.924,-2.9863,-3.0244,-3.0157,-3.0288,-3.0369,-2.7543,-2.5815,-2.4908,-2.459,0.0,0.0,0.0,0.0,0.0,0.0,0.0,0.0,0.0,0.0,0.0,0.0,0.0,0.0,0.0,0.0,0.0,0.0,0.0,0.0,0.0,0.0,-2.4305,-2.4406,-2.4695,-2.4305,-2.1936,0.0,0.0,0.0,0.0,0.0,0.0,0.0,0.0,0.0,0.0,0.0,-2.3991,-2.4619,-2.5335,-2.6386,-2.6499,-2.6499,-2.6499,-2.5066,-2.3841,-2.3156,-2.1661,-2.0605,0.0,0.0,0.0,0.0,0.0,0.0,0.0,0.0,0.0,0.0,0.0,0.0,0.0,0.0,0.0,0.0,0.0,0.0,0.0,0.0,0.0,0.0,0.0,0.0,0.0,0.0,0.0,0.0,0.0,0.0,0.0,0.0,-2.3457,-2.3457,0.0,0.0,0.0,0.0,0.0,0.0,0.0,0.0,0.0,0.0,0.0,0.0,0.0,-2.8374,-2.9852,-3.1471,-3.206,-3.1617,-3.3621,-3.4122,-3.3289,-3.2855,-3.2905,-3.3282,-3.1884,0.0,-2.7355,-2.635,0.0,0.0,0.0,0.0,0.0,0.0,0.0,0.0,0.0,0.0,0.0,0.0,0.0,0.0,0.0,0.0,0.0,0.0,0.0,0.0,0.0,0.0,-2.5511,-2.6047,-2.5799,-2.5272,-2.4456,-2.3238,-2.2272,-2.2121,-2.1832,-2.1568,0.0,0.0,0.0,0.0,0.0,0.0,-2.4537,-2.5172,-2.5737,-2.6424,-2.6499,-2.6499,-2.6499,-2.5385,-2.4449,-2.3898,-2.2732,-2.1556,-2.0471,-2.0819,0.0,0.0,0.0,0.0,0.0,0.0,0.0,0.0,0.0,0.0,0.0,0.0,0.0,0.0,0.0,0.0,0.0,0.0,0.0,0.0,0.0,0.0,0.0,0.0,0.0,0.0,0.0,0.0,0.0,-2.4222,-2.4439,-2.4538,-2.502,-2.5119,0.0,0.0,0.0,0.0,0.0,0.0,0.0,0.0,0.0,-2.9553,-3.0444,-3.1549,-3.2905,-3.4248,-3.4951,-3.5027,-3.632,-3.6671,-3.6194,-3.5642,-3.5516,-3.5705,-3.4889,-3.3464,-3.1539,-2.9384,-2.7714,-2.6408,0.0,0.0,0.0,0.0,-2.539,-2.5598,-2.5971,-2.633,-2.6564,-2.6236,0.0,0.0,0.0,0.0,0.0,0.0,0.0,-2.5468,-2.5674,-2.6138,-2.6603,-2.6901,-2.6967,-2.6942,-2.6716,-2.5598,-2.4368,-2.3439,-2.3314,-2.3364,-2.3364,-2.3007,0.0,0.0,0.0,-2.4017,-2.5121,-2.546,-2.5824,-2.6436,-2.6499,-2.6499,-2.6499,-2.5724,-2.4895,-2.4054,-2.3195,-2.2197,-2.0998,-2.0886,-2.0968,0.0,0.0,0.0,0.0,0.0,0.0,0.0,0.0,0.0,0.0,0.0,0.0,0.0,0.0,0.0,0.0,0.0,0.0,0.0,0.0,0.0,0.0,0.0,0.0,0.0,0.0,0.0,0.0,-2.558,-2.598,-2.5706,-2.6766,-2.6991,0.0,0.0,0.0,0.0,0.0,0.0,-2.9327,-3.0306,-3.1461,-3.283,-3.3684,-3.4788,-3.6194,-3.7023,-3.7626,-3.804,-3.8454,-3.858,-3.8417,-3.7864,-3.7538,-3.7362,-3.6857,-3.5943,-3.468,-3.1922,-2.9838,-2.8247,-2.7264,-2.6799,-2.6703,-2.7027,-2.7216,-2.7442,-2.8084,-2.8586,-2.8762,-2.7971,-2.7419,-2.6977,-2.6239,0.0,0.0,0.0,0.0,-2.6914,-2.6914,-2.7442,-2.7921,-2.7921,-2.8122,-2.831,-2.831,-2.7557,-2.6474,-2.4921,-2.4845,-2.4938,-2.4813,-2.4199,0.0,-2.4895,-2.4795,-2.4971,-2.59,-2.6025,-2.6223,-2.6663,-2.6575,-2.6499,-2.6499,-2.5799,-2.5059,-2.4268,-2.3509,-2.2652,-2.1615,-2.1179,-2.1278,-2.1923,0.0,0.0,0.0,0.0,0.0,0.0,0.0,0.0,0.0,0.0,0.0,0.0,0.0,0.0,0.0,0.0,0.0,0.0,0.0,0.0,0.0,0.0,0.0,0.0,0.0,0.0,0.0,0.0,0.0,-2.6637,-2.9214,0.0,0.0,0.0,0.0,-3.0369,-3.1336,-3.219,-3.2847,-3.3382,-3.4675,-3.6822,-3.6948,-3.8027,-4.0212,-4.0287,-4.0325,-4.035,-4.0375,-4.0124,-3.9597,-3.9044,-3.8479,-3.7939,-3.7374,-3.6521,-3.5282,-3.3025,-3.1763,-3.1022,-2.9389,-2.9076,-2.9515,-2.9001,-2.9151,-2.9553,-2.9026,-2.8863,-2.8888,-2.8825,-2.7783,-2.6625,-2.709,-2.6452,0.0,0.0,-2.7228,-2.8021,-2.8021,-2.8837,-2.9666,-2.9666,-2.9264,-2.885,-2.885,-2.8436,-2.7682,-2.6587,-2.5912,-2.5398,-2.4876,0.0,-2.5485,-2.5548,-2.6034,-2.6587,-2.7118,-2.7193,-2.7241,-2.7278,-2.6801,-2.6499,-2.6499,-2.5473,-2.4813,-2.475,-2.371,-2.2844,-2.2268,-2.2217,-2.2008,-2.1543,-2.1992,0.0,0.0,0.0,0.0,0.0,0.0,0.0,0.0,0.0,0.0,0.0,0.0,0.0,0.0,0.0,0.0,0.0,0.0,0.0,0.0,0.0,0.0,0.0,0.0,0.0,0.0,0.0,0.0,-3.0193,-3.2478,0.0,-3.1486,-3.1851,-3.2353,-3.2704,-3.3407,-3.4374,-3.5655,-3.6596,-3.7789,-3.9283,-3.9672,-4.04,-4.1555,-4.1568,-4.1392,-4.0987,-4.0987,-4.0576,-3.9672,-3.912,-3.8555,-3.7977,-3.7425,-3.6759,-3.5981,-3.4826,-3.3822,-3.2918,-3.1964,-3.1499,-3.1286,-3.0721,-3.0871,-3.1323,-3.111,-3.1286,-3.1474,-3.0746,-2.9892,-2.9101,-2.895,-2.8863,-2.88,-2.8649,-2.939,-3.0143,-2.9804,-3.0269,-3.0821,-3.0821,-3.0407,-2.9979,-2.9979,-2.9578,-2.9076,-2.8687,-2.757,-2.6741,-2.6904,-2.6502,-2.6389,-2.7105,-2.7092,-2.7228,-2.7745,-2.7507,-2.7281,-2.7281,-2.6826,-2.6499,-2.6499,-2.5762,-2.5021,-2.4343,-2.3534,-2.2543,-2.1333,-2.1282,-2.1358,-2.1493,-2.1681,-2.2133,0.0,0.0,0.0,0.0,0.0,0.0,0.0,0.0,0.0,0.0,0.0,0.0,0.0,0.0,0.0,0.0,0.0,0.0,0.0,0.0,0.0,0.0,0.0,0.0,0.0,-3.1449,-3.3081,-3.3056,-3.5366,-3.6219,-3.4406,-3.4745,-3.5177,-3.5554,-3.6257,-3.7236,-3.8517,-3.9295,-4.0287,-4.158,-4.1794,-4.2158,-4.2698,-4.2577,-4.207,-4.1288,-4.11,-4.0576,-3.9685,-3.932,-3.8831,-3.8278,-3.7914,-3.7486,-3.6885,-3.6521,-3.583,-3.4914,-3.3985,-3.3395,-3.3018,-3.2641,-3.2629,-3.2754,-3.2566,-3.2629,-3.2667,-3.1913,-3.1185,-3.0583,-3.0382,-3.047,-3.057,-3.0382,-3.0972,-3.1549,-3.1022,-3.1273,-3.1574,-3.1223,-3.0871,-3.057,-3.0382,-3.0043,-2.9792,-2.9792,-2.8888,-2.8185,-2.8348,-2.777,-2.7544,-2.8273,-2.8072,-2.8047,-2.8599,-2.8185,-2.777,-2.7582,-2.7102,-2.6612,-2.6235,-2.5824,-2.5134,-2.4067,-2.364,-2.2819,-2.1556,-2.1493,-2.1669,-2.2033,-2.2046,-2.2397,-2.3108,0.0,0.0,0.0,0.0,0.0,0.0,0.0,0.0,0.0,0.0,0.0,0.0,0.0,0.0,0.0,0.0,0.0,0.0,0.0,0.0,0.0,0.0,0.0,-3.1348,-3.4336,-3.6044,-3.5002,-3.7751,-3.8894,-3.6769,-3.8039,-3.8994,-3.8994,-3.9936,-4.0777,-4.1275,-4.1326,-4.2078,-4.3752,-4.3288,-4.3263,-4.379,-4.3263,-4.2434,-4.13,-4.0827,-4.0275,-3.9722,-3.9722,-3.9408,-3.8919,-3.8919,-3.8542,-3.8002,-3.799,-3.7663,-3.7023,-3.5429,-3.4788,-3.4731,-3.4705,-3.4387,-3.3822,-3.3294,-3.2717,-3.224,-3.224,-3.1537,-3.0783,-3.1298,-3.1085,-3.0783,-3.126,-3.1788,-3.2077,-3.1512,-3.1775,-3.1926,-3.0884,-3.062,-3.047,-2.993,-2.9804,-2.9792,-2.9792,-2.9792,-2.9616,-2.9013,-2.8913,-2.8913,-2.8913,-2.8913,0.0,-2.9716,-2.9289,-2.8687,-2.8185,-2.7645,-2.6854,-2.5737,-2.5611,-2.5134,-2.4042,-2.3954,-2.3678,-2.3045,-2.3058,-2.3083,-2.3108,-2.312,-2.3133,-2.3133,0.0,0.0,0.0,0.0,0.0,0.0,0.0,0.0,0.0,0.0,0.0,0.0,0.0,0.0,0.0,0.0,0.0,0.0,0.0,0.0,0.0,-3.1964,-3.347,-3.3759,-3.5629,-3.7312,-3.8216,-3.9848,-4.0651,-4.0023,-4.0388,-4.0664,-4.0664,-4.0887,-4.1354,-4.1907,-4.2308,-4.2924,-4.3777,-4.3652,-4.3639,-4.3802,-4.3263,-4.2622,-4.1932,-4.1781,-4.1204,-4.0287,-4.0287,-3.9772,-3.8919,-3.8919,-3.8542,-3.7977,-3.7575,-3.7324,-3.7136,-3.6684,-3.627,-3.5855,-3.542,-3.4668,-3.3872,-3.3721,-3.3307,-3.2842,-3.2842,-3.2641,-3.2428,-3.2566,-3.2516,-3.2252,-3.1587,-3.1788,-3.2001,-3.1072,-3.1223,-3.1549,-3.1248,-3.0884,-3.057,-3.0419,-3.0068,-2.9792,-2.9792,-2.9792,-2.9741,-2.9578,-2.9553,-2.9553,-2.9553,-2.9553,-2.9616,-2.9779,-2.9289,-2.8838,-2.8712,-2.821,-2.7595,-2.6879,-2.6076,-2.4958,-2.3434,-2.297,-2.2347,-2.1408,-2.2121,-2.2694,-2.3095,-2.3521,-2.3766,0.0,0.0,0.0,0.0,0.0,0.0,0.0,0.0,0.0,0.0,0.0,0.0,0.0,0.0,0.0,0.0,0.0,0.0,0.0,0.0,0.0,0.0,-3.4261,-3.6081,-3.7023,-3.8178,-3.9371,-4.0588,-4.1492,-4.212,-4.2346,-4.2371,-4.2472,-4.2642,-4.2655,-4.2861,-4.3175,-4.3275,-4.3576,-4.4129,-4.3928,-4.3802,-4.3802,-4.3263,-4.2753,-4.22,-4.1747,-4.1141,-4.0513,-4.0275,-3.9823,-3.922,-3.922,-3.9032,-3.8668,-3.8115,-3.7739,-3.7475,0.0,0.0,0.0,0.0,-3.4944,-3.4211,-3.3985,-3.3533,-3.3124,-3.3124,-3.3124,-3.3124,-3.3124,-3.3124,-3.2943,-3.2277,-3.2328,-3.2428,-3.1813,-3.1876,-3.2039,-3.18,-3.1336,-3.0884,-3.0658,-3.0181,-2.9792,-2.9792,-2.9792,0.0,-2.9792,-2.9792,-2.9792,-2.9792,-2.9792,-2.9792,-2.9792,-2.9503,-2.9202,-2.8913,-2.8436,-2.7783,-2.704,-2.6373,0.0,0.0,0.0,-2.3401,-2.2791,-2.3351,0.0,0.0,0.0,-2.4556,-2.4343,-2.4883,0.0,0.0,-2.4587,-2.4612,0.0,0.0,0.0,0.0,0.0,0.0,0.0,0.0,0.0,0.0,0.0,0.0,0.0,0.0,0.0,0.0,-3.6383,-3.8241,-4.0475,-4.1216,-4.1681,-4.2162,-4.264,-4.3099,-4.3652,-4.3765,-4.4003,-4.4493,-4.4531,-4.4531,-4.4531,-4.4066,0.0,0.0,0.0,-4.3827,-4.389,-4.3288,-4.2791,-4.2288,-4.1191,-4.0676,-4.0588,-4.0036,-3.9747,-3.9697,-3.9697,-3.9697,-3.9647,-3.9094,-3.8492,-3.7814,-3.682,-3.6405,-3.6355,-3.5818,-3.5245,-3.4693,-3.4186,0.0,0.0,-3.3136,-3.3124,-3.3124,-3.3124,-3.3124,-3.3111,-3.3006,-3.293,-3.2867,-3.2817,-3.2754,-3.2579,-3.2064,-3.1574,-3.1085,-3.062,-3.0143,-2.9792,-2.9792,-2.9792,-2.9792,-2.9792,-2.9792,-2.9792,-2.9792,-2.9792,-2.9792,-2.9792,-2.9792,-2.9591,-2.9051,-2.8586,0.0,-2.6864,-2.6663,-2.6122,-2.4938,-2.5222,-2.5473,-2.5586,-2.5536,-2.5536,-2.5598,-2.5598,-2.5372,-2.4876,-2.5435,-2.5686,-2.5686,-2.5222,-2.5008,0.0,0.0,0.0,0.0,0.0,0.0,0.0,0.0,0.0,0.0,0.0,0.0,0.0,0.0,0.0,-3.6245,-3.8115,-3.9986,-4.2195,-4.2597,-4.2534,-4.225,-4.2301,-4.259,-4.3087,-4.3539,-4.384,-4.3953,-4.3953,-4.3953,-4.3953,-4.3865,-4.4053,-4.4606,-4.4091,-4.4016,-4.4455,-4.3476,-4.2924,-4.2811,-4.22,0.0,-4.1112,-4.0614,-4.0111,-3.9697,-3.9697,-3.9697,-3.9647,-3.9094,-3.8266,-3.7274,-3.6669,-3.6405,-3.6405,-3.6292,-3.5855,-3.5257,-3.4705,-3.4198,-3.3671,-3.3219,-3.3124,-3.3124,-3.3124,-3.3124,0.0,-3.2516,-3.2051,-3.1612,-3.1198,-3.0758,-3.0394,-3.0281,-3.0181,-3.008,-2.998,-2.9867,-2.9792,-2.9792,-2.9792,-2.9792,-2.9792,-2.9792,-2.9792,-2.9792,-2.9792,-2.9792,-2.9792,-2.9792,-2.9754,-2.9641,-2.9528,-2.9189,-2.8511,-2.7632,-2.664,-2.5523,-2.4732,-2.4695,-2.5561,-2.5197,-2.5172,-2.5586,-2.5598,-2.5548,-2.5448,-2.6047,-2.6336,-2.6323,-2.6223,-2.6172,0.0,0.0,0.0,0.0,0.0,0.0,0.0,0.0,0.0,0.0,0.0,-3.0486,-3.2319,0.0,-3.5855,-3.8078,-3.9835,-4.1404,-4.2785,-4.2974,-4.2974,-4.2974,-4.2791,-4.2841,-4.3338,-4.3639,-4.3915,-4.4192,-4.448,-4.4644,-4.4644,-4.4367,-4.433,-4.4618,-4.3815,-4.3526,-4.3802,-4.2974,-4.2698,-4.2961,-4.1856,-4.1342,-4.1263,-4.0488,-3.9961,-3.9697,-3.9697,-3.9697,-3.9622,-3.8781,-3.7776,-3.6795,-3.6518,-3.6405,-3.6405,-3.6405,-3.5843,-3.5044,-3.4768,-3.4173,-3.3445,-3.3212,-3.3124,-3.3124,-3.3124,-3.288,-3.2641,-3.2641,-3.224,-3.1813,-3.1838,-3.1637,-3.1436,-3.1436,-3.1223,-3.0997,-3.0997,-3.0783,-3.0595,-3.0595,-3.0382,-3.0294,-3.0545,-3.0382,-3.0118,-2.9829,-2.9792,-2.9792,-2.9792,-2.9792,-2.9792,-2.9792,-2.9528,-2.9239,-2.8913,-2.7921,-2.7077,-2.6477,-2.572,-2.5506,-2.6034,-2.5774,-2.5762,-2.6059,-2.6059,-2.6059,-2.6059,-2.6348,-2.6499,-2.6499,-2.6499,-2.6499,0.0,0.0,0.0,0.0,0.0,0.0,0.0,-2.7228,-2.8496,-3.0489,-3.1816,-3.3115,-3.4856,-3.637,-3.7927,-3.9722,-4.1128,-4.2221,-4.2886,-4.2886,-4.2986,-4.3426,-4.3187,-4.315,-4.3589,-4.3827,-4.4192,-4.4744,-4.5221,-4.5485,-4.5485,-4.4832,-4.4518,-4.4618,-4.3551,-4.3024,-4.3137,-4.264,-4.2539,-4.2798,-4.1367,-4.0852,-4.1087,-4.0149,-3.9697,-3.9685,-3.9584,-3.9597,-3.9597,-3.8354,-3.7387,-3.6707,-3.6493,-3.6405,-3.6405,-3.6405,-3.5805,-3.5014,-3.4801,-3.4135,-3.337,-3.3187,-3.3124,-3.3124,-3.3124,-3.2754,-3.2478,-3.2943,-3.2667,-3.2315,-3.2792,-3.283,-3.2797,-3.2797,-3.239,-3.2051,-3.2051,-3.17,-3.1386,-3.1386,-3.1047,-3.0896,-3.1323,-3.1047,-3.062,-3.0168,-3.0018,-2.9955,-2.9955,-2.9854,-2.9792,-2.9792,-2.9377,-2.9013,-2.89,-2.8109,-2.7557,-2.7444,-2.6964,-2.67,-2.6813,-2.6713,-2.665,-2.665,-2.665,-2.66,-2.6499,-2.6499,-2.6499,-2.6499,-2.6499,-2.6499,-2.3008,-2.3153,-2.3709,-2.5805,-2.6079,-2.665,0.0,-3.0338,-3.0787,-3.2656,-3.3526,-3.4583,-3.6541,-3.7462,-3.863,-4.0749,-4.1263,-4.1794,-4.2836,-4.2615,-4.2326,-4.2389,-4.2778,-4.2999,-4.3062,-4.3953,-4.4769,-4.5347,-4.5447,-4.5485,-4.5485,-4.448,-4.4116,-4.4606,-4.3551,-4.3212,-4.3702,-4.3162,-4.2728,-4.2288,-4.1568,-4.0974,-4.0588,-3.9973,-3.9697,-3.9672,-3.9182,-3.9245,-3.9572,-3.7939,-3.7487,-3.7726,-3.6795,-3.6405,-3.6405,-3.6405,-3.6329,-3.6091,-3.5064,-3.4638,-3.4374,-3.3395,-3.3124,-3.3124,-3.3124,-3.3031,-3.2993,-3.3056,-3.2667,-3.2227,-3.229,-3.1951,-3.1574,-3.1574,-3.1537,-3.1486,-3.1486,-3.1436,-3.1386,-3.1386,-3.1348,-3.1323,-3.1386,-3.1336,-3.1286,-3.1223,-3.0821,-3.052,-3.052,-3.0093,-2.9792,-2.9792,-2.9729,-2.949,-2.8938,-2.8775,-2.8536,-2.8047,-2.7494,-2.7406,-2.7896,-2.7444,-2.7228,-2.7228,-2.7228,-2.6989,-2.6499,-2.6499,-2.6499,-2.6499,-2.6499,-2.6499,-2.5156,-2.55,-2.6172,-2.8078,-2.9066,-3.0135,-3.237,-3.3291,-3.4126,-3.5766,-3.6763,-3.7668,-3.8504,-3.9094,-3.9873,-4.1075,-4.1605,-4.1969,-4.2489,-4.2351,-4.1848,-4.084,-4.1492,-4.2145,-4.2527,-4.2924,-4.3426,-4.3978,-4.4618,-4.4844,-4.4531,-4.4355,-4.4242,-4.4154,-4.3388,-4.2936,-4.2848,-4.2296,-4.1907,-4.1668,-4.0802,-4.0425,-4.0501,-3.9948,-3.9697,-3.9685,-3.9446,-3.9295,-3.9132,-3.809,-3.7613,-3.745,-3.6719,-3.6405,-3.6405,-3.6405,-3.6157,-3.5768,-3.4989,-3.4512,-3.411,-3.3332,-3.3124,-3.3124,-3.3124,-3.2842,-3.2641,-3.298,-3.2667,-3.229,-3.2629,-3.2541,-3.2365,-3.2365,-3.2365,-3.2365,-3.2365,-3.2365,-3.2365,-3.2365,-3.2102,-3.1976,-3.2315,-3.2089,-3.1976,-3.2328,-3.1625,-3.1072,-3.1072,-3.0871,-3.0608,-3.0306,-3.0269,-3.0043,-2.9478,-2.9076,-2.8787,-2.8562,-2.8059,-2.7871,-2.8097,-2.7883,-2.7758,-2.7758,-2.7758,-2.7494,-2.6977,-2.6977,-2.6813,-2.6499,-2.6499,-2.6499,-2.7401,-2.7929,-2.8795,-3.1024,-3.225,-3.341,-3.5197,-3.6211,-3.6998,-3.8066,-3.8894,-3.9421,-3.9258,-3.9685,-4.0237,-4.0802,-4.148,-4.1882,-4.1773,-4.1706,-4.1153,-3.9647,-4.0036,-4.0689,-4.1458,-4.1949,-4.2502,-4.315,-4.3953,-4.4279,-4.4041,-4.4267,-4.4217,-4.3815,-4.3124,-4.2615,-4.2213,-4.1605,-4.1213,-4.105,-4.03,-4.0049,-4.0275,-3.9873,-3.9697,-3.9672,-3.9371,-3.9094,-3.8856,-3.7914,-3.7412,-3.7123,-3.6619,-3.6405,-3.6405,-3.6405,-3.6107,-3.5667,-3.4919,-3.4462,-3.401,-3.3307,-3.3124,-3.3124,-3.3124,-3.278,-3.2541,-3.2998,-3.278,-3.2554,-3.3011,-3.3124,-3.3124,-3.3124,-3.3124,-3.3124,-3.3124,-3.3124,-3.3124,-3.3124,-3.2742,-3.2591,-3.3006,-3.2729,-3.2591,-3.3018,-3.242,-3.18,-3.1637,-3.1486,-3.1185,-3.067,-3.062,-3.0394,-2.9842,-2.9402,-2.9126,-2.9126,-2.8649,-2.8411,-2.8561,-2.8411,-2.8335,-2.8335,-2.8335,-2.8059,-2.7507,-2.7356,-2.7115,-2.6713,-2.6562,-2.6575,-2.9279,-2.9901,-3.1097,-3.4795,-3.5544,-3.6048,-3.8553,-3.8982,-3.8818,-3.8843,-3.8919,-3.873,-3.8165,-3.853,-3.9094,-3.9647,-4.0664,-4.1125,-4.0639,-4.0563,-4.0149,-3.9032,-3.8429,-3.8542,-3.9659,-4.127,-4.2665,-4.3689,-4.3815,-4.4053,-4.4568,-4.4104,-4.3815,-4.3802,-4.2803,-4.2225,-4.2213,-4.1605,-4.1012,-4.0538,-4.0513,-4.0224,-3.9722,-3.9697,-3.9697,-3.9634,-3.853,-3.8366,-3.8793,-3.7134,-3.6769,-3.7123,-3.6619,-3.6405,-3.6405,-3.6405,-3.6405,-3.6229,-3.5102,-3.4668,-3.4512,-3.3432,-3.3124,-3.3124,-3.3124,-3.3111,-3.3099,-3.3111,-3.3111,-3.3099,-3.3111,-3.3124,-3.3124,-3.3124,-3.3124,-3.3124,-3.3124,-3.3124,-3.3124,-3.3124,-3.3111,-3.3056,-3.3124,-3.3056,-3.3056,-3.3124,-3.3056,-3.2817,-3.2252,-3.1725,-3.1185,-3.067,-3.062,-3.0394,-2.9842,-2.9779,-2.9767,-2.9767,-2.9227,-2.9151,-2.9716,-2.9202,-2.8863,-2.8863,-2.8863,-2.8599,-2.8084,-2.7544,-2.7268,-2.7278,-2.6738,-2.6788,-3.1903,-3.3637,-3.5726,-3.8041,-3.8712,-3.9132,-4.0402,-4.0326,-3.9715,-3.8753,-3.7958,-3.7215,-3.6483,-3.6486,-3.7086,-3.8366,-3.9823,-4.0727,-4.0538,-4.1141,-4.0777,-3.8567,-3.8781,-3.8981,-3.8617,-3.9421,-4.0588,-4.2057,-4.2509,-4.2841,-4.2974,-4.3501,-4.3463,-4.2791,-4.2401,-4.1861,-4.1078,-4.089,-4.0513,-3.9973,-3.9973,-3.9873,-3.9697,-3.9697,-3.9496,-3.9132,-3.8743,-3.8479,-3.8228,-3.7299,-3.7023,-3.7123,-3.6619,-3.6405,-3.6367,-3.5956,-3.5818,-3.5717,-3.4977,-3.4487,-3.406,-3.3319,-3.3124,-3.3124,-3.3124,-3.3124,-3.3124,-3.3124,-3.3124,-3.3124,-3.3124,-3.3124,-3.3124,-3.3124,-3.3124,-3.3124,-3.3124,-3.3124,-3.3124,-3.3124,-3.3124,-3.3124,-3.3124,-3.3124,-3.3124,-3.3124,-3.3124,-3.3048,-3.2805,-3.2629,-3.2303,-3.1738,-3.1675,-3.1311,-3.0419,-3.0331,-3.0181,-2.9817,-2.9616,-2.9591,-2.9779,-2.9603,-2.9503,-2.9503,-2.9503,-2.9214,-2.8612,-2.8461,-2.8185,-2.7821,-2.7645,-2.7657,-3.5166,-3.7122,-3.9028,-4.0948,-4.1195,-4.1068,-4.1467,-4.0708,-3.948,-3.7944,-3.6832,-3.5864,-3.4924,-3.4871,-3.5303,-3.637,-3.7939,-3.9107,-3.9295,-4.0099,-4.0086,-3.8504,-3.8781,-3.8881,-3.8366,-3.8467,-3.9258,-4.0862,-4.1555,-4.1944,-4.22,-4.2823,-4.2886,-4.2238,-4.1823,-4.1229,-4.0526,-4.0325,-4.0049,-3.9697,-3.9697,-3.9697,-3.9697,-3.9697,-3.9396,-3.8906,-3.8655,-3.8241,-3.7663,-3.7123,-3.6885,-3.6908,-3.6543,-3.6405,-3.6367,-3.5968,-3.5533,-3.5132,-3.4625,-3.4198,-3.3809,-3.3257,-3.3124,-3.3124,-3.3124,-3.3124,-3.3124,-3.3124,-3.3124,-3.3124,-3.3124,-3.3124,-3.3124,-3.3124,-3.3124,-3.3124,-3.3124,-3.3124,-3.3124,-3.3124,-3.3124,-3.3144,-3.3332,-3.337,-3.3307,-3.3106,-3.3124,-3.3124,-3.3124,-3.3124,-3.2855,-3.2277,-3.2215,-3.1775,-3.0708,-3.062,-3.0382,-2.9829,-2.9792,-2.9792,-2.9792,-2.9792,-2.9792,-2.9792,-2.9792,-2.9616,-2.9239,-2.9001,-2.8712,-2.8398,-2.8197,-2.821,-3.8776,-4.0187,-4.1193,-4.3337,-4.2892,-4.184,-4.1724,-4.0153,-3.8249,-3.646,-3.5481,-3.4597,-3.3474,-3.3568,-3.3809,-3.3922,-3.5399,-3.6707,-3.7274,-3.7852,-3.8404,-3.8944,-3.8492,-3.8379,-3.8957,-3.8454,-3.8806,-4.0438,-4.0962,-4.153,-4.2099,-4.2175,-4.2187,-4.2125,-4.1053,-4.0501,-4.0475,-3.9961,-3.9697,-3.9697,-3.9697,-3.9697,-3.9697,-3.9659,-3.9346,-3.8844,-3.8216,-3.7651,-3.7098,-3.6619,-3.6405,-3.6405,-3.6405,-3.6392,-3.6367,-3.6329,-3.5604,-3.46,-3.4048,-3.3859,-3.3771,-3.3257,-3.3124,-3.3124,-3.3124,-3.3124,-3.3124,-3.3124,-3.3124,-3.3124,-3.3124,-3.3124,-3.3124,-3.3124,-3.3124,-3.3124,-3.3124,-3.3106,-3.3162,-3.3162,-3.3144,-3.3319,-3.3847,-3.3922,-3.3721,-3.3206,-3.3136,-3.3124,-3.3124,-3.3124,-3.2867,-3.2315,-3.2252,-3.1838,-3.0783,-3.0696,-3.0457,-2.988,-2.9829,-2.9829,-2.9792,-2.9792,-2.9792,-2.9792,-2.9792,-2.9792,-2.9792,-2.9239,-2.8938,-2.8925,-2.8436,-2.8473,-4.0409,-4.2552,-4.4225,-4.3938,-4.3284,-4.2254,-4.0559,-3.9129,-3.7442,-3.5132,-3.3485,-3.2335,-3.1866,-3.2031,-3.279,-3.4445,-3.6326,-3.8078,-3.9471,-4.0488,-4.0852,-4.0174,-4.0325,-4.0388,-4.0124,-3.9961,-4.0224,-4.1012,-4.0824,-4.0789,-4.0927,-4.176,-4.1835,-4.0953,-4.0664,-4.0325,-3.991,-3.9772,-3.9697,-3.9697,-3.9697,-3.9697,-3.9685,-3.927,-3.8768,-3.8203,-3.7638,-3.7073,-3.6606,-3.6468,-3.6405,-3.6405,-3.6405,-3.6119,-3.5658,-3.529,-3.47,-3.4035,-3.3483,-3.3282,-3.3269,-3.3119,-3.3124,-3.3124,-3.3124,-3.3124,-3.3124,-3.3124,-3.3124,-3.3124,-3.3124,-3.3124,-3.3124,-3.3124,-3.3124,-3.3124,-3.3124,-3.3395,-3.3696,-3.3696,-3.4022,-3.4349,-3.4487,-3.4173,-3.3847,-3.3709,-3.3345,-3.3124,-3.3124,-3.3124,-3.3061,-3.2867,-3.2855,-3.2566,-3.1863,-3.1813,-3.1411,-3.047,-3.0407,-3.0218,-2.9817,-2.9792,-2.9792,-2.9792,-2.9792,-2.9792,-2.9792,-2.9641,-2.9578,-2.9566,-2.9428,-2.944,-4.2121,-4.4003,-4.5349,-4.416,-4.3062,-4.1742,-3.9677,-3.7939,-3.6053,-3.3606,-3.2084,-3.1086,-3.0662,-3.0611,-3.124,-3.3242,-3.4848,-3.6596,-3.8755,-4.0011,-4.0752,-4.0865,-4.11,-4.1163,-4.0862,-4.0824,-4.0902,-4.0912,-4.1141,-4.1128,-4.089,-4.1467,-4.1404,-4.0538,-4.0275,-4.0011,-3.9697,-3.9697,-3.9697,-3.9697,-3.9697,-3.9697,-3.9672,-3.912,-3.8555,-3.7977,-3.7425,-3.692,-3.6405,-3.6405,-3.6405,-3.6405,-3.6405,-3.6169,-3.5843,-3.5245,-3.4726,-3.4173,-3.3633,-3.3282,-3.3124,-3.3124,-3.3124,-3.3124,-3.3124,-3.3244,-3.3382,-3.3187,-3.3257,-3.3382,-3.3144,-3.3124,-3.3124,-3.3124,-3.3124,-3.3144,-3.3382,-3.3684,-3.3972,-3.4211,-3.4655,-3.4969,-3.4718,-3.4663,-3.4462,-3.3972,-3.3633,-3.3432,-3.3432,-3.3275,-3.3124,-3.3124,-3.3124,-3.2842,-3.2265,-3.2215,-3.1851,-3.1009,-3.0746,-3.0482,-3.0168,-2.993,-2.9792,-2.9792,-2.9792,-2.9792,-2.9792,-2.9792,-2.9792,-2.9792,-2.9792,-2.9792,-4.3912,-4.5022,-4.5545,-4.4304,-4.2696,-4.0906,-3.8932,-3.6711,-3.441,-3.2058,-3.107,-3.0464,-2.9945,-2.9675,-3.0088,-3.1828,-3.2828,-3.4318,-3.7172,-3.8479,-3.9685,-4.1266,-4.1463,-4.1501,-4.1501,-4.1501,-4.13,-4.0877,-4.1656,-4.1856,-4.1112,-4.1137,-4.0924,-4.0425,-3.9936,-3.9697,-3.9697,-3.9697,-3.9697,-3.9697,-3.9697,-3.9608,-3.9353,-3.8803,-3.8229,-3.7667,-3.6959,-3.6557,-3.6405,-3.6263,-3.6263,-3.6405,-3.6405,-3.6317,-3.6128,-3.5617,-3.4994,-3.4437,-3.396,-3.3483,-3.3124,-3.3124,-3.3124,-3.3093,-3.3169,-3.352,-3.3822,-3.3407,-3.3583,-3.3796,-3.3307,-3.3131,-3.3124,-3.3124,-3.3131,-3.3319,-3.3796,-3.401,-3.4274,-3.4826,-3.5282,-3.5458,-3.5027,-3.5232,-3.5169,-3.4261,-3.3985,-3.3897,-3.3897,-3.342,-3.3149,-3.3224,-3.3162,-3.2867,-3.2365,-3.2328,-3.2089,-3.1537,-3.1009,-3.0683,-3.062,-3.008,-2.9792,-2.9792,-2.9792,-2.9792,-2.9792,-2.9792,-2.9792,-2.9792,-2.9792,-2.9792,-4.5702,-4.6525,-4.6656,-4.5022,-4.335,-4.1193,-3.8018,-3.5534,-3.3234,-3.0871,-3.0272,-3.0181,-3.0077,-3.0645,-3.1795,-3.4001,-3.4525,-3.5831,-3.912,-3.9978,-4.0676,-4.1869,-4.2421,-4.2698,-4.2698,-4.2698,-4.266,-4.2559,-4.2363,-4.1571,-4.0061,-4.0413,-4.0413,-3.9848,-3.9747,-3.9697,-3.9697,-3.9697,-3.9697,-3.9697,-3.9697,-3.9022,-3.7728,-3.7117,-3.6521,-3.5926,-3.4495,-3.4871,-3.631,-3.5415,-3.5619,-3.6405,-3.6405,-3.5805,-3.5002,-3.4901,-3.4223,-3.3345,-3.3257,-3.3156,-3.3124,-3.3124,-3.3124,-3.3156,-3.3621,-3.3822,-3.3972,-3.4336,-3.4173,-3.3872,-3.3784,-3.342,-3.3124,-3.3124,-3.342,-3.3784,-3.3872,-3.4613,-3.5382,-3.5968,-3.6204,-3.6194,-3.6141,-3.578,-3.5433,-3.5245,-3.4487,-3.3897,-3.3897,-3.342,-3.3257,-3.3709,-3.3345,-3.3074,-3.293,-3.293,-3.2679,-3.2102,-3.1562,-3.106,-3.0633,-3.008,-2.9792,-2.9792,-2.9792,-2.9792,-2.9792,-2.9792,-2.9792,-2.9792,-2.9792,-2.9792,-4.6316,-4.7336,-4.7689,-4.5336,-4.3219,-4.0736,-3.6972,-3.4332,-3.211,-3.0111,-2.9693,-2.9693,-2.9693,-3.0188,-3.1164,-3.2857,-3.3303,-3.4692,-3.8246,-3.9083,-4.0052,-4.1974,-4.269,-4.2974,-4.2974,-4.2974,-4.2735,-4.217,-4.1882,-4.1379,-4.0588,-4.0262,-3.9973,-3.9697,-3.9697,-3.9697,-3.9697,-3.9697,-3.9697,-3.9697,-3.9697,-3.8869,-3.7272,-3.6666,-3.581,-3.4734,-3.3669,-3.3796,-3.4678,-3.419,-3.4288,-3.4727,-3.4727,-3.4378,-3.391,-3.3869,-3.3526,-3.3138,-3.3408,-3.299,-3.2493,-3.3558,-3.3734,-3.3508,-3.3483,-3.4073,-3.4688,-3.4387,-3.4512,-3.4625,-3.4048,-3.3922,-3.3859,-3.3571,-3.4148,-3.4705,-3.4705,-3.5391,-3.6044,-3.6355,-3.6405,-3.6405,-3.6405,-3.6144,-3.5868,-3.5545,-3.5044,-3.4705,-3.4705,-3.4022,-3.3495,-3.347,-3.3232,-3.3124,-3.3124,-3.3124,-3.2998,-3.2679,-3.1863,-3.1411,-3.1449,-3.0382,-2.993,-3.0218,-2.9942,-2.9792,-2.9792,-2.9792,-2.9792,-2.9792,-2.9792,-2.9792,-4.663,-4.7845,-4.8473,-4.5924,-4.3284,-4.0357,-3.6684,-3.3679,-3.121,-2.9771,-2.9366,-2.9349,-2.9444,-2.9806,-3.0412,-3.15,-3.1884,-3.3215,-3.6662,-3.7769,-3.9121,-4.1559,-4.2497,-4.2974,-4.2974,-4.2873,-4.2446,-4.158,-4.1238,-4.1062,-4.0937,-4.0162,-3.9697,-3.9697,-3.9697,-3.9697,-3.9697,-3.9697,-3.9697,-3.9697,-3.9572,-3.8695,-3.7091,-3.6282,-3.5137,-3.3763,-3.292,-3.275,-3.3201,-3.2951,-3.3001,-3.3201,-3.3201,-3.3074,-3.2874,-3.2818,-3.265,-3.255,-3.2979,-3.243,-3.187,-3.3649,-3.3911,-3.357,-3.3615,-3.4512,-3.5345,-3.4638,-3.4876,-3.5119,-3.4299,-3.4311,-3.45,-3.4299,-3.4868,-3.5533,-3.5646,-3.6056,-3.6405,-3.6405,-3.6405,-3.6405,-3.6405,-3.6405,-3.6267,-3.578,-3.5571,-3.5495,-3.5495,-3.4675,-3.3872,-3.3319,-3.3156,-3.3124,-3.3124,-3.3124,-3.3124,-3.3124,-3.2127,-3.1712,-3.2026,-3.0696,-3.0118,-3.0432,-3.0018,-2.9792,-2.9792,-2.9792,-2.9792,-2.9792,-2.9792,-2.9792,-4.7113,-4.8146,-4.876,-4.7427,-4.4186,-4.0671,-3.8227,-3.4241,-3.0869,-3.0166,-2.964,-2.9444,-2.9931,-3.0492,-3.1198,-3.2161,-3.2142,-3.2947,-3.5676,-3.7167,-3.8668,-4.045,-4.2032,-4.2974,-4.2974,-4.2577,-4.2238,-4.215,-4.1153,-4.0375,-3.9873,-3.9747,-3.9697,-3.9697,-3.9697,-3.9697,-3.9697,-3.9697,-3.9697,-3.9685,-3.9182,-3.8113,-3.6411,-3.491,-3.3853,-3.317,-3.1167,-3.1403,-3.3101,-3.2134,-3.2336,-3.3201,-3.3201,-3.2638,-3.1859,-3.1815,-3.124,-3.0478,-3.0522,-3.1026,-3.1721,-3.2397,-3.2599,-3.2868,-3.4728,-3.537,-3.5583,-3.6019,-3.5491,-3.4731,-3.4675,-3.4311,-3.4211,-3.5119,-3.542,-3.5633,-3.6182,-3.6367,-3.6405,-3.6405,-3.6405,-3.6405,-3.6405,-3.6405,-3.6392,-3.6342,-3.5868,-3.5495,-3.5495,-3.4969,-3.4437,-3.3884,-3.337,-3.3124,-3.3124,-3.3124,-3.3124,-3.3124,-3.2491,-3.1938,-3.1486,-3.0871,-3.0331,-2.988,-2.9817,-2.9792,-2.9792,-2.9792,-2.9792,-2.9792,-2.9792,-2.9792,-4.629,-4.7662,-4.8185,-4.6682,-4.352,-3.9991,-3.7011,-3.33,-3.032,-2.9732,-2.9444,-2.9388,-2.9575,-3.0085,-3.0583,-3.0927,-3.0681,-3.1255,-3.3726,-3.4552,-3.5919,-3.8642,-3.9885,-4.0902,-4.1894,-4.1794,-4.153,-4.1191,-4.045,-3.9923,-3.9697,-3.9697,-3.9697,-3.9697,-3.9697,-3.9697,-3.9697,-3.9371,-3.9195,-3.9195,-3.8617,-3.7493,-3.5881,-3.5253,-3.4337,-3.3151,-3.2308,-3.2044,-3.2162,-3.146,-3.1048,-3.0835,-3.0543,-3.0197,-2.9878,-3.0212,-3.0047,-2.9795,-3.0445,-3.0696,-3.0986,-3.245,-3.268,-3.2533,-3.3402,-3.4743,-3.585,-3.4817,-3.5087,-3.5629,-3.5257,-3.4756,-3.4587,-3.532,-3.5495,-3.5658,-3.6292,-3.6405,-3.6405,-3.6405,-3.6405,-3.6405,-3.6405,-3.6405,-3.6405,-3.6405,-3.6182,-3.6031,-3.6031,-3.5554,-3.5094,-3.4868,-3.4098,-3.3432,-3.3149,-3.3124,-3.3124,-3.3124,-3.2528,-3.2265,-3.2403,-3.1248,-3.0658,-3.0746,-3.0118,-2.9792,-2.9792,-2.9792,-2.9792,-2.9792,-2.9792,-2.9792,-4.4395,-4.6159,-4.7061,-4.5493,-4.2487,-3.9141,-3.6201,-3.2738,-2.9983,-2.9614,-2.9261,-2.91,-2.9284,-2.9614,-2.9905,-2.9988,-2.9676,-3.0153,-3.2235,-3.2778,-3.3987,-3.6719,-3.7688,-3.8781,-4.045,-4.0902,-4.0811,-4.0312,-3.991,-3.9697,-3.9697,-3.9534,-3.9534,-3.9685,-3.9534,-3.9446,-3.9446,-3.8894,-3.8617,-3.8617,-3.8027,-3.6998,-3.5557,-3.5103,-3.4041,-3.2524,-3.2174,-3.1543,-3.0683,-3.0339,-2.977,-2.9063,-2.8742,-2.8535,-2.8419,-2.8806,-2.8892,-2.8906,-2.9639,-2.9824,-3.0034,-3.1635,-3.2086,-3.2007,-3.2007,-3.3718,-3.5462,-3.4264,-3.4916,-3.583,-3.5558,-3.5332,-3.5303,-3.5692,-3.5871,-3.6094,-3.6355,-3.6405,-3.6405,-3.6405,-3.6405,-3.6405,-3.6405,-3.6405,-3.6405,-3.6405,-3.6405,-3.6405,-3.6405,-3.6031,-3.5683,-3.552,-3.4806,-3.4098,-3.3382,-3.3319,-3.3257,-3.3124,-3.2692,-3.2579,-3.2805,-3.17,-3.1185,-3.1386,-3.0495,-3.0043,-3.0043,-2.988,-2.9792,-2.9792,-2.9792,-2.9792,-4.1363,-4.3467,-4.5375,-4.4186,-4.1285,-3.8266,-3.6502,-3.2959,-3.01,-3.0087,-2.9196,-2.8603,-2.9205,-2.9287,-2.9435,-2.9764,-2.9805,-3.025,-3.1508,-3.2688,-3.373,-3.4625,-3.5717,-3.7096,-3.8781,-3.9885,-4.03,-3.9747,-3.9697,-3.9697,-3.9697,-3.9182,-3.9132,-3.9672,-3.917,-3.8932,-3.8932,-3.8304,-3.8015,-3.8002,-3.745,-3.6627,-3.5545,-3.393,-3.2379,-3.0854,-2.9789,-2.9052,-2.8628,-2.8618,-2.8618,-2.8618,-2.8618,-2.8328,-2.7935,-2.7924,-2.7645,-2.7309,-2.7309,-2.7951,-2.8801,-2.9387,-3.0227,-3.1009,-3.1009,-3.2441,-3.4242,-3.5205,-3.5107,-3.4818,-3.5357,-3.5943,-3.6392,-3.6405,-3.682,-3.7023,-3.6518,-3.6405,-3.6405,-3.6405,-3.6405,-3.6405,-3.6405,-3.6405,-3.6405,-3.6405,-3.6405,-3.6405,-3.6405,-3.6405,-3.6144,-3.5558,-3.5495,-3.5044,-3.3985,-3.3884,-3.3658,-3.3106,-3.3111,-3.2817,-3.224,-3.2202,-3.1938,-3.1399,-3.0871,-3.0608,-3.0608,-3.0055,-2.9792,-2.9792,-2.9792,-2.9792,-3.8449,-3.9351,-3.9651,-3.9272,-3.7181,-3.4855,-3.3468,-3.13,-2.9431,-2.9026,-2.8634,-2.8472,-2.8669,-2.866,-2.8987,-2.9858,-2.958,-2.9604,-3.0637,-3.197,-3.327,-3.455,-3.7036,-3.8843,-3.9383,-3.9747,-3.9722,-3.917,-3.9484,-3.9358,-3.858,-3.8755,-3.9007,-3.9132,-3.858,-3.8278,-3.8278,-3.7726,-3.7083,-3.6369,-3.5832,-3.4979,-3.3918,-3.3111,-3.2445,-3.1969,-3.1289,-3.0519,-2.9671,-2.937,-2.8756,-2.811,-2.781,-2.7779,-2.7883,-2.7583,-2.7572,-2.7665,-2.7413,-2.7904,-2.8746,-2.8899,-2.963,-3.0514,-3.0905,-3.2182,-3.3665,-3.4275,-3.4625,-3.4722,-3.4527,-3.5142,-3.5805,-3.5805,-3.5884,-3.6119,-3.6367,-3.6405,-3.6405,-3.6405,-3.6405,-3.6405,-3.6405,-3.6405,-3.6405,-3.6405,-3.6405,-3.6405,-3.6405,-3.6405,-3.6342,-3.6119,-3.6107,-3.5655,-3.455,-3.411,-3.3822,-3.3658,-3.3282,-3.2993,-3.2805,-3.2416,-3.2127,-3.1951,-3.1072,-3.062,-3.062,-3.0068,-2.9792,-2.9792,-2.9792,-2.9702,-3.5482,-3.6462,-3.6567,-3.6136,-3.462,-3.2947,-3.1784,-3.0176,-2.8865,-2.8499,-2.8203,-2.8059,-2.8059,-2.8059,-2.8373,-2.9314,-2.9201,-2.9254,-2.9957,-3.1462,-3.3025,-3.4525,-3.7098,-3.8743,-3.8743,-3.932,-3.9471,-3.8957,-3.9195,-3.8981,-3.8052,-3.8153,-3.8241,-3.8241,-3.7877,-3.7492,-3.7085,-3.6541,-3.5771,-3.4662,-3.4191,-3.3345,-3.2345,-3.1837,-3.1304,-3.0736,-3.0474,-2.9858,0.0,-2.8769,-2.828,-2.7645,-2.7413,-2.7427,-2.7634,-2.7413,-2.7486,-2.7634,-2.7403,-2.7678,-2.8175,-2.8175,-2.8863,-2.968,-3.0042,-3.1217,-3.2533,-3.3019,-3.335,-3.3707,-3.397,-3.4771,-3.5526,-3.5503,-3.5821,-3.6144,-3.6069,-3.6267,-3.6405,-3.6405,-3.6405,-3.6405,-3.6405,-3.6405,-3.6405,-3.6405,-3.6405,-3.6405,-3.6405,-3.6405,-3.6405,-3.6405,-3.6405,-3.6128,-3.5391,-3.4839,-3.4437,-3.4223,-3.3696,-3.3382,-3.3382,-3.2842,-3.2541,-3.2541,-3.1675,-3.111,-3.0909,-3.0156,-2.9792,-2.9792,-2.9456,-2.9236,0.0,-3.4463,-3.5404,-3.4254,-3.3208,-3.215,-3.0999,-2.9523,0.0,-2.8355,-2.7902,-2.7503,-2.7555,-2.7555,-2.7751,-2.8399,-2.8811,-2.9153,-2.9473,-3.1333,-3.3202,-3.47,-3.6358,-3.7312,-3.7199,-3.8668,-3.9383,-3.8844,-3.8831,-3.8542,-3.7927,-3.7437,-3.7149,-3.7073,-3.7061,-3.6577,-3.5558,-3.504,-3.4179,-3.3044,-3.2578,-3.1788,-3.0738,-3.0248,-2.9267,-2.7924,-2.7883,-2.7645,-2.7309,-2.7309,-2.7309,-2.7309,-2.7309,-2.733,-2.7351,-2.732,-2.733,-2.7351,-2.732,-2.7309,-2.7309,-2.7309,-2.7904,-2.8631,-2.8678,-2.9741,-3.0973,-3.1395,-3.159,-3.1989,-3.347,-3.4642,-3.5404,-3.5407,-3.6203,-3.6739,-3.5734,-3.5968,-3.6405,-3.6405,-3.6405,-3.6405,-3.6405,-3.6405,-3.6405,-3.6405,-3.6405,-3.6405,-3.6405,-3.6405,-3.6405,-3.6405,-3.6405,-3.6405,-3.6405,-3.5868,-3.5257,-3.4705,-3.4211,-3.3884,-3.3847,-3.3345,-3.3124,-3.3124,-3.2466,-3.1888,-3.1336,-3.0294,-2.9792,-2.9753,-2.887,-2.8462,-3.0016,0.0,-3.1261,-3.0085,-2.9941,-2.9771,0.0,-2.836,-2.8255,-2.7824,-2.7594,-2.7633,-2.8098,-2.8177,-2.8482,-2.932,-2.9424,-2.9498,-2.991,-3.2424,-3.4796,-3.6408,-3.8078,-3.8592,-3.7312,-3.8329,-3.8642,-3.7651,-3.7977,-3.7776,-3.6845,-3.7023,-3.6797,-3.5909,-3.5884,-3.5588,-3.5004,-3.4535,-3.3334,-3.1407,-3.0969,-3.0161,-2.9142,-2.867,-2.8261,-2.7903,-2.7562,-2.7403,-2.7309,-2.7309,-2.7309,-2.7309,-2.7309,-2.7469,-2.7728,-2.7434,-2.7479,-2.7717,-2.7423,-2.7309,-2.7309,-2.7309,-2.7441,-2.7762,-2.8491,-2.9193,-2.9799,-2.991,-3.0473,-3.1196,-3.1553,-3.2693,-3.3869,-3.4245,-3.4883,-3.5379,-3.5494,-3.5968,-3.6405,-3.6405,-3.6405,-3.6405,-3.6405,-3.6405,-3.6405,-3.6405,-3.6405,-3.6405,-3.6405,-3.6405,-3.6405,-3.6405,-3.6405,-3.6405,-3.6405,-3.5868,-3.5257,-3.4705,-3.4211,-3.3709,-3.3282,-3.3187,-3.3124,-3.3124,-3.2089,-3.1323,-3.0796,-2.9936,-2.9509,-2.947,-2.845,-2.7879,-2.8106,-2.8895,-2.9523,-2.8608,-2.8656,-2.8634,-2.7699,-2.7771,-2.7902,-2.7555,-2.749,-2.7659,-2.8281,-2.8129,-2.8235,-2.9261,-2.9188,-2.949,-3.0869,-3.2567,-3.4476,-3.6593,-3.7613,-3.8002,-3.76,-3.8115,-3.8115,-3.7249,-3.7462,-3.7262,-3.6455,-3.6408,-3.6157,-3.552,-3.5257,-3.4771,-3.4042,-3.3753,-3.2603,-3.0537,-3.0046,-2.9294,-2.8276,-2.7821,-2.7624,-2.7603,-2.7413,-2.7309,-2.7309,-2.7309,-2.7309,-2.7309,-2.7309,-2.7455,-2.7593,-2.7392,-2.7455,-2.7583,-2.7392,-2.7309,-2.7309,-2.7309,-2.7309,-2.7394,-2.7904,-2.8226,-2.8513,-2.8976,-2.9467,-2.9942,-3.0466,-3.154,-3.2714,-3.3779,-3.439,-3.4932,-3.5422,-3.5968,-3.6405,-3.6405,-3.6405,-3.6263,-3.5763,-3.6061,-3.6216,-3.5715,-3.6061,-3.6405,-3.6405,-3.6405,-3.6405,-3.6405,-3.6405,-3.6405,-3.6405,-3.6094,-3.5793,-3.5491,-3.4726,-3.4148,-3.3847,-3.3345,-3.3025,-3.2896,-3.1922,-3.1179,-3.0673,-2.9408,-2.8767,-2.8648,-2.7209,-2.6502,-2.6811,-2.7792,-2.8813,-2.836,-2.8307,-2.8229,-2.7633,-2.749,-2.749,-2.749,-2.749,-2.7659,-2.8247,-2.7923,-2.7924,-2.8892,-2.8939,-2.9719,-3.2102,-3.2756,-3.3783,-3.6003,-3.6505,-3.6885,-3.7563,-3.7701,-3.7525,-3.6973,-3.686,-3.6609,-3.6179,-3.568,-3.5332,-3.5257,-3.4793,-3.4119,-3.3119,-3.3008,-3.1972,-2.997,-2.9528,-2.8764,-2.781,-2.7475,-2.7309,-2.7309,-2.7309,-2.7309,-2.7309,-2.7309,-2.7309,-2.7309,-2.7309,-2.7309,-2.7309,-2.7309,-2.7309,-2.7309,-2.7309,-2.7309,-2.7309,-2.7309,-2.7309,-2.7309,-2.7309,-2.7309,-2.7462,-2.8355,-2.8576,-2.8817,-2.979,-3.0708,-3.1708,-3.319,-3.3896,-3.4486,-3.513,-3.5734,-3.6216,-3.6358,-3.6405,-3.6061,-3.4969,-3.5559,-3.5763,-3.4727,-3.5319,-3.5918,-3.5918,-3.5918,-3.5918,-3.5918,-3.5918,-3.5918,-3.5918,-3.6061,-3.6156,-3.6156,-3.5311,-3.4731,-3.4555,-3.3577,-3.2902,-3.2599,-3.161,-3.0898,-3.0477,-2.8676,-2.7695,-2.7504,-2.5797,-2.501,-2.6569,-2.6902,-2.7203,-2.7562,-2.802,-2.8229,-2.7633,-2.749,-2.749,-2.749,-2.749,-2.7639,-2.8075,-2.8599,-2.9045,-2.9169,-3.0162,-3.1578,-3.3382,-3.4449,-3.519,-3.5571,-3.6897,-3.7274,-3.5997,-3.6345,-3.6383,-3.5796,-3.532,-3.5064,-3.4977,-3.4889,-3.4625,-3.4161,-3.4073,-3.3709,-3.3102,-3.269,-3.1483,-2.9506,-2.9016,-2.8329,-2.7413,-2.734,-2.7309,-2.7309,-2.7309,-2.7309,-2.7309,-2.7309,-2.7309,-2.7309,-2.7309,-2.7309,-2.7309,-2.7309,-2.7309,-2.7309,-2.7309,-2.7309,-2.7309,-2.7309,-2.7309,-2.7309,-2.7309,-2.7309,-2.7382,-2.79,-2.8292,-2.8751,-2.9286,-2.9838,-3.0431,-3.1124,-3.1728,-3.2492,-3.3911,-3.4654,-3.5319,-3.6203,-3.6405,-3.6061,-3.4969,-3.4933,-3.4678,-3.3598,-3.3598,-3.3697,-3.3697,-3.3697,-3.3697,-3.3697,-3.3697,-3.3697,-3.3697,-3.4532,-3.503,-3.503,-3.5229,-3.4956,-3.406,-3.3233,-3.2543,-3.2027,-3.0519,-2.9475,-2.8911,-2.7227,-2.6397,-2.6326,-2.5147,-2.4573,-2.5712,-2.5981,-2.6347,-2.6922,-2.7497,-2.785,-2.7555,-2.749,-2.7581,-2.7928,-2.7994,-2.8095,-2.8507,-2.8795,-2.9093,-2.9467,-3.0678,-3.1798,-3.2483,-3.3079,-3.362,-3.4135,-3.4876,-3.5278,-3.5069,-3.5328,-3.5253,-3.47,-3.4424,-3.4148,-3.3847,-3.3545,-3.3257,-3.2993,-3.2704,-3.2204,-3.1478,-3.1258,-3.0723,-2.9834,-2.8791,-2.7975,-2.7309,-2.7309,-2.7309,-2.7309,-2.7309,-2.7309,-2.7309,-2.7309,-2.7309,-2.7309,-2.7309,-2.7309,-2.7309,-2.7309,-2.7309,-2.7309,-2.7309,-2.7309,-2.7309,-2.7309,-2.7309,-2.7309,-2.7309,-2.7309,-2.7392,-2.78,-2.8255,-2.8721,-2.9187,-2.9653,-3.0193,-3.1059,-3.1422,-3.2118,-3.4016,-3.4158,-3.4434,-3.6061,-3.5918,-3.5379,-3.4872,-3.5271,-3.5319,-3.4239,-3.4042,-3.4042,-3.4042,-3.3549,-3.3201,-3.3201,-3.3747,-3.4042,-3.4042,-3.5078,-3.5544,-3.5213,-3.526,-3.4824,-3.3714,-3.3206,-3.2416,-3.1189,-3.0019,-2.8881,-2.7872,-2.642,-2.5551,-2.5231,-2.4487,-2.4008,-2.4966,-2.5288,-2.5759,-2.6334,-2.6896,-2.7392,-2.7667,-2.7665,-2.7821,-2.8477,-2.8512,-2.8538,-2.8886,-2.8828,-2.9045,-2.9997,-3.1097,-3.1852,-3.198,-3.2227,-3.2672,-3.34,-3.3458,-3.3746,-3.4462,-3.4412,-3.411,-3.3545,-3.3395,-3.3131,-3.2704,-3.2252,-3.2026,-3.2026,-3.1612,-3.0964,-3.0121,-2.9792,-2.9589,-2.9488,-2.8398,-2.7525,-2.6978,-2.6978,-2.704,-2.7143,-2.7143,-2.7206,-2.7309,-2.7309,-2.7309,-2.7309,-2.7309,-2.7309,-2.7309,-2.7309,-2.7309,-2.7309,-2.7309,-2.7309,-2.7309,-2.7309,-2.7309,-2.7309,-2.7309,-2.7309,-2.7392,-2.78,-2.8183,-2.8607,-2.929,-2.9735,-3.0245,-3.1322,-3.1573,-3.2046,-3.3834,-3.3573,-3.3538,-3.5295,-3.4981,-3.4434,-3.4434,-3.4921,-3.5066,-3.4532,-3.4227,-3.403,-3.403,-3.3549,-3.3101,-3.2851,-3.3784,-3.4483,-3.4678,-3.5223,-3.5542,-3.5522,-3.5133,-3.4428,-3.3326,-3.28,-3.1774,-3.0043,-2.9173,-2.815,-2.6951,-2.5643,-2.4828,-2.4472,-2.392,-2.3516,-2.4861,-2.5031,-2.5201,-2.5746,-2.6308,-2.7046,-2.8072,-2.8183,-2.8296,-2.9056,-2.8899,-2.8613,-2.8713,-2.8819,-2.9353,-3.0853,-3.1706,-3.2516,-3.3571,-3.4161,-3.4512,-3.46,-3.4555,-3.4437,-3.3997,-3.3495,-3.2955,-3.2378,-3.1863,-3.1549,-3.1512,-3.1474,-3.1449,-3.1449,-3.1411,-3.0964,-3.0121,-2.8808,-2.7944,-2.7502,-2.7381,-2.686,-2.5978,-2.5978,-2.6262,-2.6667,-2.6667,-2.6915,-2.7309,-2.7309,-2.7309,-2.7309,-2.7309,-2.7309,-2.7309,-2.7309,-2.7309,-2.7309,-2.7309,-2.7309,-2.7309,-2.7309,-2.7309,-2.7309,-2.7309,-2.7309,-2.7392,-2.78,-2.7896,-2.8276,-2.9601,-2.9973,-3.0264,-3.1179,-3.1431,-3.162,-3.2309,-3.2408,-3.2587,-3.3292,-3.335,-3.33,-3.33,-3.2538,-3.2286,-3.3201,-3.2488,-3.183,-3.183,-3.2639,-3.2801,-3.183,-3.27,-3.3598,-3.4385,-3.3598,-3.3796,-3.5511,-3.4613,-3.363,-3.2617,-3.1375,-2.9986,-2.8511,-2.7358,-2.6497,-2.5889,-2.4571,-2.4055,-2.4398,-2.3535,-2.3389,-2.4387,-2.4717,-2.5044,-2.5267,-2.6026,-2.6915,-2.768,-2.7967,-2.8278,-2.8967,-2.914,-2.9166,-2.9178,-2.934,-2.968,-3.0355,-3.1435,-3.224,-3.2328,-3.2817,-3.3031,-3.2692,-3.2654,-3.2566,-3.2365,-3.2152,-3.18,-3.126,-3.1022,-3.0758,-3.0419,-3.0394,-3.0394,-3.0394,-3.0394,-2.9973,-2.9092,-2.7994,-2.7073,-2.6365,-2.6096,-2.5962,-2.5875,-2.5875,-2.6179,-2.6594,-2.6314,-2.6615,-2.7289,-2.6998,-2.705,-2.7309,-2.7309,-2.7309,-2.7309,-2.7309,-2.7309,-2.7309,-2.7309,-2.7309,-2.7309,-2.7309,-2.7309,-2.7309,-2.7309,-2.7309,-2.734,-2.7458,-2.751,-2.7831,-2.9208,-2.957,-2.9798,-3.0729,-3.0946,-3.1207,-3.2088,-3.1804,-3.1761,-3.3311,-3.2853,-3.2488,-3.3462,-3.3055,-3.2739,-3.3151,-3.2851,-3.2336,-3.1677,-3.1931,-3.179,-3.0744,-3.1443,-3.2286,-3.3055,-3.2334,-3.2164,-3.2854,-3.3195,-3.3031,-3.2336,-3.0739,-2.9143,-2.7632,-2.694,-2.6167,-2.5365,-2.4844,-2.4394,-2.4023,-2.3965,-2.3695,-2.3861,-2.4125,-2.4495,-2.4678,-2.545,-2.6457,-2.7549,-2.8083,-2.8614,-2.9388,-2.9455,-2.9411,-2.9411,-2.9479,-2.9604,-2.9935,-3.0954,-3.1637,-3.1424,-3.1712,-3.1813,-3.1436,-3.1386,-3.1323,-3.116,-3.1148,-3.0934,-3.0394,-3.0181,-3.0005,-2.9804,-2.9616,-2.9603,-2.9779,-2.9792,-2.9248,-2.8051,-2.7435,-2.6535,-2.539,-2.51,-2.5171,-2.5461,-2.5461,-2.5709,-2.6134,-2.5813,-2.6196,-2.7061,-2.675,-2.6884,-2.7309,-2.7309,-2.7309,-2.7309,-2.7309,-2.7309,-2.7309,-2.7309,-2.7309,-2.7309,-2.7309,-2.7309,-2.7309,-2.7309,-2.7309,-2.7309,-2.7309,-2.7309,-2.7589,-2.8773,-2.9197,-2.957,-3.0646,-3.0905,-3.1068,-3.1688,-3.1243,-3.1105,-3.2432,-3.1826,-3.1541,-3.2948,-3.2622,-3.2398,-3.3101,-3.2901,-3.2437,-3.1677,-3.188,-3.179,-3.0981,-3.1084,-3.1472,-3.2151,-3.1449,-3.1112,-3.1373,-3.1471,-3.1334,-3.0909,-2.9503,-2.8142,-2.6733,-2.6439,-2.5966,-2.5283,-2.5184,-2.4844,-2.4404,-2.4414,-2.417,-2.3365,-2.3195,-2.3352,-2.3939,-2.4557,-2.562,-2.7897,-2.8716,-2.9326,-3.0452,-2.9869,-2.92,-2.92,-2.9038,-2.9152,-2.9872,-3.0336,-3.0796,-3.1298,-3.1386,-3.1386,-3.1373,-3.1373,-3.1173,-3.0658,-3.0608,-3.0369,-2.9829,-2.9252,-2.9126,-2.9741,-2.9239,-2.9189,-2.9767,-2.9779,-2.8922,-2.7139,-2.7098,-2.6246,-2.4497,-2.4497,-2.4497,-2.4497,-2.4497,-2.4755,-2.5189,-2.5179,-2.574,-2.6615,-2.6615,-2.6895,-2.7309,-2.7309,-2.7309,-2.7309,-2.7309,-2.7309,-2.7309,-2.7309,-2.7309,-2.7309,-2.7309,-2.7309,-2.7309,-2.7309,-2.7309,-2.7309,-2.7309,-2.7309,-2.7517,-2.8369,-2.8949,-2.9642,-3.104,-3.1371,-3.1247,-3.0791,-3.0688,-3.0553,-3.0087,-3.0005,-3.0349,-3.1392,-3.0692,-3.0692,-3.2851,-3.2286,-3.1575,-3.1575,-3.2488,-3.3039,-3.2817,-3.1819,-3.1381,-3.192,-3.1,-3.0691,-3.1513,-2.9669,-2.8419,-2.8032,-2.7496,-2.6733,-2.5742,-2.5693,-2.5693,-2.5693,-2.5293,-2.5303,-2.5664,-2.4834,-2.4648,-2.3874,-2.4138,-2.4521,-2.4704,-2.5746,-2.7053,-2.8137,-2.8391,-2.8634,-2.9672,-2.9377,-2.9076,-2.9374,-2.9492,-2.9529,-2.9454,-3.0084,-3.0532,-3.0294,-3.0595,-3.0696,-3.0319,-3.0269,-3.0206,-3.0043,-2.9666,-2.9327,-2.9202,-2.8662,-2.8423,-2.8599,-2.8436,-2.8599,-2.9126,-2.9189,-2.8656,-2.7612,-2.725,-2.6397,-2.4979,-2.4671,-2.4497,-2.4497,-2.4497,-2.4755,-2.5168,-2.4848,-2.544,-2.6646,-2.6967,-2.7185,-2.7309,-2.7309,-2.7309,-2.7309,-2.7309,-2.7309,-2.7309,-2.7309,-2.7309,-2.7309,-2.7309,-2.7309,-2.7309,-2.7309,-2.7309,-2.7309,-2.7309,-2.7309,-2.7444,-2.7976,-2.8235,-2.8763,-3.0481,-3.0895,-3.0853,-3.0719,-3.0946,-3.104,-3.0574,-3.0481,-3.0587,-3.0937,-3.0412,-3.0193,-3.0847,-3.1341,-3.1524,-3.133,-3.0929,-3.0463,-2.9942,-2.9649,-2.9438,-2.9418,-2.8548,-2.8276,-2.8847,-2.7392,-2.7139,-2.8349,-2.6966,-2.6004,-2.5693,-2.5693,-2.5693,-2.5693,-2.5605,-2.5449,-2.5254,-2.5,-2.4775,-2.3796,-2.4178,-2.4739,-2.5197,-2.6255,-2.7425,-2.84,-2.8844,-2.9181,-2.9752,-2.934,-2.9038,-2.953,-2.9517,-2.9441,-2.9429,-2.9718,-2.9917,-2.9804,-2.988,-2.9905,-2.9804,-2.9591,-2.9453,-2.9453,-2.8938,-2.8562,-2.8562,-2.8097,-2.7871,-2.8097,-2.7896,-2.8034,-2.8586,-2.8562,-2.805,-2.6949,-2.663,-2.5806,-2.4425,-2.4294,-2.4281,-2.4281,-2.4425,-2.4652,-2.491,-2.4817,-2.5378,-2.6376,-2.6843,-2.7143,-2.7309,-2.7309,-2.7309,-2.7309,-2.7309,-2.7309,-2.7309,-2.7309,-2.7423,-2.7521,-2.7521,-2.7521,-2.7521,-2.7521,-2.7444,-2.7309,-2.7309,-2.7309,-2.7413,-2.781,-2.7924,-2.8297,-2.9787,-3.0139,-3.0191,-3.0367,-3.077,-3.0967,-3.0501,-3.0563,-3.0626,-3.0439,-3.018,-2.9994,-2.9994,-3.0536,-3.0888,-3.0619,-3.0015,-2.9343,-2.8781,-2.8684,-2.8509,-2.811,-2.7568,-2.7314,-2.7402,-2.6523,-2.6507,-2.7662,-2.6428,-2.5693,-2.5693,-2.5693,-2.5693,-2.5693,-2.5693,-2.5596,-2.5332,-2.5332,-2.5195,-2.3352,-2.3665,-2.4439,-2.5454,-2.6295,-2.7242,-2.8776,-2.972,-3.0265,-3.0317,-2.9618,-2.9151,-2.9667,-2.9277,-2.9051,-2.9566,-2.9202,-2.9038,-2.9566,-2.9189,-2.9013,-2.9578,-2.9176,-2.8813,-2.8813,-2.8348,-2.8034,-2.8034,-2.7519,-2.7419,-2.7934,-2.7482,-2.7421,-2.79,-2.7912,-2.7101,-2.544,-2.5497,-2.4692,-2.3132,-2.3598,-2.3857,-2.3836,-2.4322,-2.4497,-2.4528,-2.5024,-2.5513,-2.5962,-2.647,-2.6926,-2.7309,-2.7309,-2.7309,-2.7309,-2.7309,-2.7309,-2.7309,-2.7309,-2.7521,-2.7862,-2.7862,-2.7862,-2.7862,-2.7862,-2.7583,-2.7309,-2.7309,-2.7309,-2.7392,-2.7759,-2.7862,-2.8079,-2.897,-2.9208,-2.9352,-2.9777,-3.0294,-3.0532,-3.0036,-3.0367,-3.0584,-3.0087,-2.9994,-2.9994,-2.9994,-2.9994,-2.9869,-2.9555,-2.9493,-2.9219,-2.8618,-2.8595,-2.8361,-2.7757,-2.7679,-2.7451,-2.71,-2.6602,-2.6348,-2.6387,-2.5967,-2.5693,-2.5693,-2.5693,-2.5693,-2.5693,-2.5693,-2.5693,-2.5693,-2.5693,-2.5693,-2.3352,-2.3995,-2.4874,-2.5123,-2.6627,-2.836,-2.9581,-2.958,-2.9385,-2.9625,-2.9783,-2.9758,-2.9378,-2.9076,-2.8787,-2.8511,-2.836,-2.8335,-2.8448,-2.836,-2.8335,-2.8448,-2.836,-2.8285,-2.8285,-2.7783,-2.7457,-2.7457,-2.6989,-2.6725,-2.6839,-2.6738,-2.6634,-2.6554,-2.653,-2.5771,-2.4204,-2.4554,-2.4017,-2.2656,-2.3111,-2.3339,-2.336,-2.4135,-2.4497,-2.4549,-2.5388,-2.5792,-2.5937,-2.6812,-2.7216,-2.7309,-2.7309,-2.7309,-2.7309,-2.7309,-2.7309,-2.7309,-2.7309,-2.7372,-2.7455,-2.7455,-2.7455,-2.7455,-2.7455,-2.7382,-2.7309,-2.7309,-2.7309,-2.733,-2.7423,-2.7455,-2.7541,-2.809,-2.8504,-2.8794,-2.8887,-2.9849,-3.0439,-2.9611,-3.0419,-3.0967,-3.0139,-2.9994,-2.9994,-2.9994,-2.9827,-2.9431,-2.8825,-2.8567,-2.8167,-2.7427,-2.7702,-2.7868,-2.7728,-2.7353,-2.7266,-2.751,-2.6484,-2.6035,-2.6377,-2.5967,-2.5693,-2.5693,-2.5693,-2.5693,-2.5693,-2.5693,-2.5693,-2.5693,-2.5693,-2.5693,-2.3733,-2.4295,-2.5188,-2.5994,-2.751,-2.8974,-2.9444,-2.9282,-2.8995,-2.9048,-2.9171,-2.915,-2.8772,-2.8598,-2.8448,-2.816,-2.7883,-2.7808,-2.8059,-2.7871,-2.7808,-2.8072,-2.7871,-2.7708,-2.7708,-2.7241,-2.6927,-2.6927,-2.6663,-2.6499,-2.6499,-2.6129,-2.5868,-2.5709,-2.5336,-2.4595,-2.3426,-2.3678,-2.3229,-2.217,-2.2635,-2.2977,-2.3205,-2.3681,-2.4126,-2.4528,-2.5037,-2.5606,-2.6248,-2.6781,-2.7102,-2.7309,-2.7309,-2.7309,-2.7309,-2.7309,-2.7309,-2.7309,-2.7309,-2.7444,-2.7583,-2.7583,-2.7583,-2.7583,-2.7583,-2.7427,-2.7309,-2.7309,-2.7309,-2.7309,-2.7309,-2.7309,-2.7372,-2.7552,-2.7955,-2.8349,-2.8566,-2.9352,-2.988,-2.9394,-3.0067,-3.0563,-3.0077,-2.9994,-2.9994,-2.9994,-2.9589,-2.9094,-2.857,-2.8081,-2.7554,-2.7041,-2.7217,-2.7275,-2.707,-2.6846,-2.6728,-2.6738,-2.6113,-2.5791,-2.6064,-2.581,-2.5693,-2.5693,-2.5693,-2.5693,-2.5693,-2.5693,-2.5693,-2.5693,-2.5693,-2.5693,-2.3965,-2.4387,-2.5262,-2.7046,-2.819,-2.8847,-2.8879,-2.8792,-2.8631,-2.8369,-2.8369,-2.8303,-2.8056,-2.8008,-2.7934,-2.7833,-2.7444,-2.7268,-2.762,-2.7369,-2.7268,-2.7632,-2.7268,-2.7027,-2.7027,-2.6537,-2.621,-2.621,-2.621,-2.621,-2.621,-2.555,-2.5097,-2.4944,-2.4266,-2.3548,-2.2815,-2.2777,-2.2478,-2.1807,-2.219,-2.2573,-2.2946,-2.2946,-2.3484,-2.4394,-2.4549,-2.5337,-2.6511,-2.6667,-2.6915,-2.7185,-2.7185,-2.7185,-2.7185,-2.7185,-2.7237,-2.7309,-2.7309,-2.75,-2.781,-2.781,-2.781,-2.781,-2.781,-2.7552,-2.7309,-2.7309,-2.7309,-2.7309,-2.7309,-2.7309,-2.7309,-2.7309,-2.7541,-2.7914,-2.8297,-2.8804,-2.9166,-2.9073,-2.9446,-2.9777,-2.986,-2.9756,-2.9725,-2.9807,-2.9157,-2.8532,-2.8267,-2.762,-2.7119,-2.6807,-2.6865,-2.6768,-2.6416,-2.6387,-2.623,-2.583,-2.5732,-2.5693,-2.5693,-2.5693,-2.5693,-2.5693,-2.5693,-2.5693,-2.5693,-2.5693,-2.5693,-2.5693,-2.5693,-2.5693,-2.3443,-2.3744,-2.4766,-2.6942,-2.7275,-2.7308,-2.8281,-2.7988,-2.7467,-2.7276,-2.787,-2.8236,-2.7744,-2.7513,-2.7231,-2.6788,-2.665,-2.6449,-2.5988,-2.6336,-2.6449,-2.5988,-2.5862,-2.5824,-2.5824,-2.5347,-2.5046,-2.5046,-2.5046,-2.5046,-2.5046,-2.4759,-2.4304,-2.3571,-2.331,-2.2767,-2.1959,-2.1949,-2.1921,-2.1807,-2.1869,-2.1932,-2.1994,-2.1994,-2.2718,-2.4012,-2.4799,-2.5461,-2.6086,-2.6884,-2.7009,-2.6708,-2.6708,-2.6708,-2.6708,-2.6708,-2.6957,-2.7309,-2.7309,-2.7351,-2.7392,-2.7392,-2.7392,-2.7392,-2.7392,-2.7351,-2.7309,-2.7309,-2.7309,-2.7309,-2.7309,-2.7309,-2.7309,-2.7309,-2.7351,-2.7413,-2.7475,-2.811,-2.8587,-2.8183,-2.8483,-2.8928,-2.9332,-2.8849,-2.8564,-2.9014,-2.8217,-2.7451,-2.7083,-2.6744,-2.6368,-2.5898,-2.625,-2.6455,-2.6396,-2.6387,-2.6367,-2.6309,-2.5947,-2.5693,-2.5693,-2.5693,-2.5693,-2.5693,-2.5693,-2.5693,-2.5693,-2.5693,-2.5693,-2.5693,-2.5693,-2.5693,-2.377,-2.4138,-2.4831,-2.585,-2.6151,-2.6334,-2.6831,-2.6622,-2.6278,-2.6239,-2.6704,-2.7109,-2.699,-2.6898,-2.6776,-2.6537,-2.6223,-2.5887,-2.5636,-2.5561,-2.5448,-2.5197,-2.5159,-2.5159,-2.5159,-2.4926,-2.4788,-2.4788,-2.4788,-2.4788,-2.4788,-2.3941,-2.3292,-2.2937,-2.2277,-2.1749,-2.1414,-2.1673,-2.1807,-2.1807,-2.1807,-2.1807,-2.1807,-2.1807,-2.2418,-2.3525,-2.4188,-2.4871,-2.5564,-2.6262,-2.6407,-2.6231,-2.6231,-2.6231,-2.6231,-2.6231,-2.6521,-2.6915,-2.6915,-2.7092,-2.7309,-2.7309,-2.7309,-2.7309,-2.7309,-2.7309,-2.7309,-2.7309,-2.7309,-2.7309,-2.7309,-2.7309,-2.7309,-2.7309,-2.7309,-2.7309,-2.7309,-2.762,-2.7872,-2.7914,-2.8297,-2.868,-2.8887,-2.8491,-2.8258,-2.8462,-2.7663,-2.7023,-2.6834,-2.636,-2.5947,-2.5703,-2.5859,-2.6025,-2.6025,-2.6025,-2.6025,-2.6025,-2.5791,-2.5693,-2.5693,-2.5693,-2.5693,-2.5693,-2.5693,-2.5693,-2.5693,-2.5693,-2.5693,-2.5693,-2.5693,-2.5693,-2.4083,-2.4426,-2.4822,-2.4966,-2.5288,-2.5641,-2.5754,-2.5641,-2.5516,-2.556,-2.5717,-2.5866,-2.6097,-2.6253,-2.6319,-2.6273,-2.5774,-2.5347,-2.5209,-2.4983,-2.4738,-2.46,-2.4587,-2.4587,-2.4587,-2.4449,-2.4362,-2.4362,-2.4362,-2.4362,-2.4362,-2.3096,-2.2387,-2.2387,-2.1421,-2.0901,-2.0901,-2.1393,-2.1683,-2.1807,-2.1807,-2.1807,-2.1807,-2.1921,-2.2294,-2.2873,-2.3453,-2.4219,-2.5044,-2.5533,-2.572,-2.572,-2.5834,-2.5875,-2.5885,-2.6009,-2.6351,-2.6791,-2.6791,-2.7019,-2.7309,-2.7309,-2.7309,-2.7309,-2.7309,-2.7309,-2.7309,-2.7309,-2.7309,-2.7309,-2.7309,-2.7309,-2.7309,-2.7309,-2.7309,-2.7309,-2.7309,-2.7309,-2.7403,-2.7686,-2.8028,-2.8307,-2.8322,-2.8041,-2.7801,-2.7863,-2.7063,-2.6498,-2.6498,-2.6026,-2.5693,-2.5693,-2.5693,-2.5693,-2.5693,-2.5693,-2.5693,-2.5693,-2.5693,-2.5693,-2.5693,-2.5693,-2.5693,-2.5693,-2.5693,-2.5693,-2.5693,-2.5693,-2.5693,-2.5693,-2.5693,-2.5693,-2.4083,-2.4109,-2.4282,-2.4861,-2.5018,-2.5188,-2.5662,-2.5641,-2.5503,-2.5503,-2.5269,-2.5051,-2.5076,-2.5552,-2.5861,-2.5682,-2.5197,-2.4669,-2.4155,-2.4506,-2.4619,-2.4104,-2.4042,-2.4042,-2.4042,-2.3509,-2.3195,-2.3195,-2.3195,-2.3195,-2.3195,-2.234,-2.1828,-2.1828,-2.0949,-2.0426,-2.0426,-2.0881,-2.1373,-2.1807,-2.1807,-2.1807,-2.1818,-2.2263,-2.2242,-2.1921,-2.2832,-2.3732,-2.4569,-2.5034,-2.522,-2.5261,-2.572,-2.5875,-2.5927,-2.6418,-2.6874,-2.7268,-2.7268,-2.7289,-2.7309,-2.7309,-2.7309,-2.7309,-2.7309,-2.7309,-2.7309,-2.7309,-2.7309,-2.7309,-2.7309,-2.7309,-2.7309,-2.7309,-2.7309,-2.7309,-2.7309,-2.7309,-2.732,-2.734,-2.7361,-2.7421,-2.76,-2.7081,-2.6659,-2.6824,-2.6232,-2.5771,-2.5771,-2.5703,-2.5693,-2.5693,-2.5693,-2.5693,-2.5693,-2.5693,-2.5693,-2.5693,-2.5693,-2.5693,-2.5693,-2.5693,-2.5693,-2.5693,-2.5693,-2.5693,-2.5693,-2.5693,-2.5693,-2.5693,-2.5693,-2.5693,-2.4083,-2.4083,-2.4164,-2.4374,-2.4426,-2.4478,-2.4657,-2.4666,-2.4576,-2.4486,-2.4635,-2.4725,-2.4532,-2.4861,-2.5174,-2.5096,-2.4644,-2.4217,-2.4029,-2.3822,-2.3634,-2.3446,-2.3409,-2.3409,-2.3409,-2.3233,-2.3108,-2.3108,-2.3108,-2.2914,-2.2494,-2.1741,-2.1141,-2.0719,-2.0262,-2.0131,-2.0385,-2.0886,-2.1197,-2.1362,-2.1662,-2.1807,-2.1818,-2.1973,-2.2128,-2.2252,-2.2283,-2.2656,-2.3287,-2.4053,-2.4364,-2.4436,-2.5171,-2.5461,-2.5513,-2.5968,-2.6273,-2.6418,-2.6418,-2.6615,-2.6864,-2.6864,-2.7061,-2.7309,-2.7309,-2.7309,-2.7309,-2.7309,-2.7309,-2.7309,-2.7309,-2.7309,-2.7309,-2.7309,-2.7309,-2.7309,-2.7309,-2.7309,-2.7309,-2.7309,-2.7167,-2.7085,-2.7153,-2.6645,-2.6247,-2.6357,-2.5966,-2.5693,-2.5693,-2.5693,-2.5693,-2.5693,-2.5693,-2.5693,-2.5693,-2.5693,-2.5693,-2.5693,-2.5693,-2.5693,-2.5693,-2.5693,-2.5693,-2.5693,-2.5693,-2.5693,-2.5693,-2.5693,-2.5693,-2.5693,-2.5693,-2.5693,-2.4083,-2.4083,-2.4083,-2.4083,-2.3939,-2.3835,-2.4044,-2.3926,-2.3819,-2.3881,-2.4175,-2.4331,-2.3979,-2.4141,-2.435,-2.4519,-2.4067,-2.3703,-2.3703,-2.3346,-2.3108,-2.3108,-2.3108,-2.3108,-2.3108,-2.3108,-2.3108,-2.3108,-2.3108,-2.2811,-2.2132,-2.1459,-2.0677,-1.9781,-1.9624,-1.981,-2.0385,-2.0695,-2.1005,-2.1352,-2.1662,-2.1807,-2.1818,-2.1963,-2.2211,-2.249,-2.2335,-2.2449,-2.278,-2.3391,-2.3743,-2.3971,-2.4871,-2.5189,-2.5241,-2.572,-2.5875,-2.5875,-2.5875,-2.6231,-2.6615,-2.6615,-2.6926,-2.7309,-2.7309,-2.7309,-2.7309,-2.7309,-2.7309,-2.7309,-2.7309,-2.7309,-2.7309,-2.7309,-2.7309,-2.7309,-2.7309,-2.7309,-2.7309,-2.7309,-2.7081,-2.6853,-2.6805,-2.64,-2.6052,-2.5955,-2.582,-2.5693,-2.5693,-2.5693,-2.5693,-2.5693,-2.5693,-2.5693,-2.5693,-2.5693,-2.5693,-2.5693,-2.5693,-2.5693,-2.5693,-2.5693,-2.5693,-2.5693,-2.5693,-2.5693,-2.5693,-2.5693,-2.5693,-2.5693,-2.5693,-2.5693,0.0,0.0,0.0,-2.4083,-2.3652,-2.3365,-2.3981,-2.3639,-2.3363,-2.3803,-2.3891,-2.3802,-2.3463,-2.3403,-2.352,-2.391,-2.3471,-2.3108,-2.3108,-2.3108,-2.3108,-2.3108,-2.3108,-2.3108,-2.3108,-2.3108,-2.3108,-2.3108,-2.3108,-2.2811,-2.2132,-2.1459,-2.0452,-1.9131,-1.9108,-1.9499,-2.0333,-2.0374,-2.0876,-2.1766,-2.1797,-2.1807,-2.1818,-2.2273,-2.248,-2.2522,-2.2977,-2.3174,-2.3184,-2.3184,-2.3453,-2.3992,-2.4861,-2.5179,-2.5241,-2.572,-2.5875,-2.5854,-2.5854,-2.62,-2.6573,-2.6573,-2.6895,-2.7289,-2.7289,-2.7299,-2.7309,-2.7309,-2.7309,-2.7309,-2.7309,-2.7309,-2.7309,-2.7309,-2.7309,-2.7309,-2.7309,-2.7309,-2.7309,-2.7309,-2.7081,-2.6805,-2.6544,-2.6245,-2.6004,-2.5732,-2.5693,-2.5693,-2.5693,-2.5693,-2.5693,-2.5693,-2.5693,-2.5693,-2.5693,-2.5693,-2.5693,-2.5693,-2.5693,-2.5693,-2.5693,-2.5693,-2.5693,-2.5693,-2.5693,-2.5693,-2.5693,-2.5693,-2.5693,-2.5693,-2.5693,-2.5693,-2.4083,0.0,0.0,0.0,0.0,0.0,-2.4044,-2.3907,-2.3771,-2.3998,-2.376,-2.3552,-2.3539,-2.336,-2.3218,-2.3321,-2.3208,-2.3108,-2.3108,-2.3108,-2.3108,-2.3108,-2.3108,-2.3108,-2.3108,-2.3108,-2.3108,-2.3108,-2.3108,-2.2811,-2.2132,-2.1017,-1.9966,-1.9131,-1.9108,-1.9222,-1.9471,-2.01,-2.0519,-2.0814,-2.1487,-2.1807,-2.1807,-2.1932,-2.218,-2.2501,-2.2635,-2.2884,-2.3184,-2.3184,-2.3267,-2.3463,-2.4332,-2.489,-2.5241,-2.572,-2.5678,-2.5409,-2.5409,-2.5492,-2.5606,-2.5606,-2.6123,-2.6801,-2.6801,-2.704,-2.7309,-2.7309,-2.7309,-2.7309,-2.7309,-2.7309,-2.7309,-2.7309,-2.7309,-2.7309,-2.7309,-2.7309,-2.7262,-2.7034,-2.6794,-2.6554,-2.6245,-2.5965,-2.5781,-2.5684,-2.5693,-2.5693,-2.5693,-2.5693,-2.5693,-2.5693,-2.5693,-2.5693,-2.5693,-2.5693,-2.5693,-2.5693,-2.5693,-2.5693,-2.5693,-2.5693,-2.5693,-2.5693,-2.5693,-2.5693,-2.5693,-2.5693,-2.5693,-2.5693,-2.5693,-2.5693,0.0,0.0,0.0,0.0,0.0,0.0,-2.4031,-2.3813,-2.3593,-2.3855,-2.3658,-2.345,-2.3407,-2.3288,-2.3198,-2.3108,-2.3108,-2.3108,-2.3108,-2.3108,-2.3108,-2.3108,-2.3108,-2.3108,-2.3108,-2.3108,-2.3108,-2.3108,-2.3108,-2.2689,-2.1741,-2.0409,-1.9485,-1.9098,-1.9108,-1.9191,-1.9388,-2.0069,-2.0488,-2.0684,-2.1455,-2.1807,-2.1807,-2.1807,-2.2056,-2.2511,-2.2708,-2.2936,-2.3205,-2.3391,-2.336,-2.3246,-2.3774,-2.426,-2.4695,-2.4954,-2.5006,-2.49,-2.49,-2.5024,-2.5189,-2.5189,-2.5844,-2.6615,-2.6615,-2.6946,-2.7309,-2.7309,-2.7309,-2.7309,-2.7309,-2.7309,-2.7309,-2.7309,-2.7309,-2.7309,-2.7309,-2.7309,-2.7214,-2.6948,-2.6699,-2.64,-2.6149,-2.5868,-2.5693,-2.5693,-2.5693,-2.5693,-2.5693,-2.5693,-2.5693,-2.5693,-2.5693,-2.5693,-2.5693,-2.5693,-2.5693,-2.5693,-2.5693,-2.5693,-2.5693,-2.5693,-2.5693,-2.5693,-2.5693,-2.5693,-2.5693,-2.5693,-2.5693,-2.5693,-2.5693,-2.5693,0.0,0.0,0.0,0.0,-2.372,0.0,-2.3995,-2.3563,-2.3186,-2.3555,-2.3547,-2.3378,-2.311,-2.317,-2.3212,-2.305,-2.3058,-2.3108,-2.3108,-2.3108,-2.3108,-2.3108,-2.3108,-2.3108,-2.3108,-2.3108,-2.3108,-2.3108,-2.3108,-2.2506,-2.1155,-1.9977,-1.9264,-1.9108,-1.9108,-1.9295,-1.971,-2.0131,-2.0586,-2.1041,-2.1507,-2.1756,-2.1807,-2.1807,-2.2035,-2.2449,-2.2956,-2.3184,-2.3225,-2.3691,-2.3608,-2.3184,-2.3184,-2.3474,-2.3919,-2.3919,-2.4157,-2.4507,-2.4559,-2.4817,-2.5117,-2.5168,-2.5771,-2.6423,-2.6532,-2.6864,-2.7237,-2.7299,-2.7309,-2.7309,-2.7309,-2.7309,-2.7309,-2.7309,-2.7309,-2.7309,-2.7262,-2.7262,-2.7177,-2.689,-2.6651,-2.64,-2.61,-2.5868,-2.5693,-2.5693,-2.5693,-2.5693,-2.5693,-2.5693,-2.5693,-2.5693,-2.5693,-2.5693,-2.5693,-2.5693,-2.5693,-2.5693,-2.5693,-2.5693,-2.5693,-2.5693,-2.5693,-2.5693,-2.5693,-2.5693,-2.5693,-2.5693,-2.5693,-2.5693,-2.5693,-2.5693,0.0,0.0,0.0,0.0,-2.3992,0.0,-2.4057,-2.3787,-2.3559,-2.3806,-2.3153,-2.2589,-2.2689,-2.2602,-2.2502,-2.2472,-2.2819,-2.3108,-2.3108,-2.3108,-2.3108,-2.3108,-2.3108,-2.3108,-2.3108,-2.3108,-2.3108,-2.3108,-2.3108,-2.2506,-2.1155,-2.0837,-2.0226,-1.9131,-1.9108,-1.915,-1.9233,-1.9699,-2.011,-2.0529,-2.1031,-2.1445,-2.1807,-2.1807,-2.1859,-2.1983,-2.2822,-2.3184,-2.3225,-2.3691,-2.3608,-2.3184,-2.3184,-2.3474,-2.3919,-2.3919,-2.4157,-2.4549,-2.4921,-2.4869,-2.4693,-2.5065,-2.5303,-2.5554,-2.5906,-2.6376,-2.6832,-2.7195,-2.7309,-2.7309,-2.7309,-2.7309,-2.7309,-2.7309,-2.7309,-2.7262,-2.7034,-2.6996,-2.6842,-2.6342,-2.64,-2.6352,-2.5878,-2.5732,-2.5693,-2.5693,-2.5693,-2.5693,-2.5693,-2.5693,-2.5693,-2.5693,-2.5693,-2.5693,-2.5693,-2.5693,-2.5693,-2.5693,-2.5693,-2.5693,-2.5693,-2.5693,-2.5693,-2.5693,-2.5693,-2.5693,-2.5693,-2.5693,-2.5693,-2.5693,-2.5693,-2.5693,0.0,0.0,0.0,-2.4037,-2.4008,0.0,0.0,-2.3671,-2.3522,-2.3641,-2.2917,-2.2338,-2.2438,-2.2153,-2.1995,-2.2272,-2.2518,-2.2794,-2.3058,-2.3108,-2.3108,-2.3108,-2.3108,-2.3108,-2.3108,-2.3108,-2.3108,-2.3108,-2.2781,-2.231,-2.1647,-2.0953,-2.0291,-1.9616,-1.9264,-1.9108,-1.9108,-1.9564,-1.9907,-2.01,-2.0783,-2.1238,-2.1466,-2.1694,-2.1807,-2.1849,-2.2542,-2.2977,-2.3225,-2.3691,-2.3608,-2.3163,-2.2936,-2.3122,-2.3536,-2.3536,-2.396,-2.4569,-2.5024,-2.489,-2.4611,-2.5337,-2.5409,-2.5272,-2.5751,-2.6252,-2.6667,-2.6895,-2.7133,-2.7309,-2.7309,-2.7309,-2.7309,-2.7309,-2.7309,-2.7262,-2.7129,-2.6986,-2.6805,-2.64,-2.6294,-2.6149,-2.5781,-2.5693,-2.5693,-2.5693,-2.5693,-2.5693,-2.5693,-2.5693,-2.5693,-2.5693,-2.5693,-2.5693,-2.5693,-2.5693,-2.5693,-2.5693,-2.5693,-2.5693,-2.5693,-2.5693,-2.5693,-2.5693,-2.5693,-2.5693,-2.5693,-2.5693,-2.5693,-2.5693,-2.5693,-2.5693,-2.3725,-2.3946,-2.3966,-2.3861,-2.3832,-2.3789,0.0,0.0,0.0,-2.3403,-2.2829,-2.2309,-2.2309,-2.1945,-2.1757,-2.2096,-2.2334,-2.2556,-2.2895,-2.2945,-2.2982,-2.3095,-2.3108,-2.3108,-2.3108,-2.3108,-2.3047,-2.2914,-2.2402,-2.1978,-2.1729,-2.0698,-2.0031,-1.9911,-1.9396,-1.9108,-1.9108,-1.9471,-1.971,-1.9803,-2.0586,-2.1031,-2.1135,-2.159,-2.1807,-2.1828,-2.2294,-2.2708,-2.3101,-2.365,-2.3608,-2.3153,-2.277,-2.2801,-2.306,-2.306,-2.3629,-2.4445,-2.4993,-2.489,-2.4662,-2.5689,-2.572,-2.5409,-2.5668,-2.6179,-2.6615,-2.6615,-2.6946,-2.7289,-2.7195,-2.7237,-2.7289,-2.7195,-2.7247,-2.7309,-2.7214,-2.6986,-2.6747,-2.6496,-2.6207,-2.5965,-2.5732,-2.5693,-2.5693,-2.5693,-2.5693,-2.5693,-2.5693,-2.5693,-2.5693,-2.5693,-2.5693,-2.5693,-2.5693,-2.5693,-2.5693,-2.5693,-2.5693,-2.5693,-2.5693,-2.5693,-2.5693,-2.5693,-2.5693,-2.5693,-2.5693,-2.5693,-2.5693,-2.5693,-2.5693,-2.5693,-2.2945,-2.3302,-2.3658,-2.3628,-2.3628,-2.3628,-2.3599,0.0,-2.3403,-2.3403,0.0,-2.2309,-2.2309,0.0,0.0,-2.1656,-2.2397,-2.2857,-2.2443,-2.2397,-2.2556,-2.3045,-2.3108,-2.3108,-2.3108,-2.3108,-2.2841,-2.2267,-2.2132,-2.1573,-2.0376,-2.0193,-1.9846,-1.9231,-1.9131,-1.9108,-1.9108,-1.915,-1.9388,-1.9803,-2.0265,-2.0684,-2.1135,-2.159,-2.1807,-2.1828,-2.2294,-2.2532,-2.2646,-2.3515,-2.3608,-2.3184,-2.3132,-2.2894,-2.2573,-2.2573,-2.3163,-2.4074,-2.489,-2.489,-2.4714,-2.6061,-2.6175,-2.574,-2.5409,-2.5896,-2.6615,-2.6615,-2.6946,-2.7216,-2.6801,-2.6998,-2.7206,-2.6791,-2.7009,-2.7214,-2.6996,-2.6747,-2.6448,-2.6197,-2.5917,-2.5732,-2.5693,-2.5693,-2.5693,-2.5693,-2.5693,-2.5693,-2.5693,-2.5693,-2.5693,-2.5693,-2.5693,-2.5693,-2.5693,-2.5693,-2.5693,-2.5693,-2.5693,-2.5693,-2.5693,-2.5693,-2.5693,-2.5693,-2.5693,-2.5693,-2.5693,-2.5693,-2.5693,-2.5693,-2.5693,-2.5693,-2.2262,-2.2734,-2.3112,-2.3025,-2.3238,-2.345,-2.3348,-2.3271,-2.3241,-2.3241,0.0,0.0,0.0,0.0,0.0,0.0,-2.2347,-2.2656,-2.2744,-2.2493,-2.2397,-2.2606,-2.2631,-2.2757,-2.307,-2.3108,-2.2975,-2.2689,-2.2329,-2.1854,-2.129,-2.0505,-1.9977,-1.9682,-1.9297,-1.9108,-1.9108,-1.9108,-1.9202,-1.9409,-2.0079,-2.0488,-2.0705,-2.1476,-2.1807,-2.1818,-2.2014,-2.2242,-2.2542,-2.3205,-2.3205,-2.2811,-2.308,-2.307,-2.2863,-2.2594,-2.2915,-2.3608,-2.4476,-2.4662,-2.4631,-2.5523,-2.5658,-2.542,-2.4931,-2.5285,-2.5792,-2.5792,-2.6113,-2.6459,-2.6262,-2.6356,-2.6459,-2.6262,-2.6366,-2.6527,-2.6666,-2.6388,-2.6137,-2.6302,-2.5975,-2.5693,-2.5693,-2.5693,-2.5693,-2.5693,-2.5693,-2.5693,-2.5693,-2.5693,-2.5693,-2.5693,-2.5693,-2.5693,-2.5693,-2.5693,-2.5693,-2.5693,-2.5693,-2.5693,-2.5693,-2.5693,-2.5693,-2.5693,-2.5693,-2.5693,-2.5693,-2.5693,-2.5693,-2.5693,-2.5693,-2.5693,-2.1753,-2.2232,-2.2668,-2.2725,-2.3043,-2.3271,-2.3138,-2.3108,-2.3108,-2.3108,-2.2782,0.0,0.0,0.0,0.0,0.0,0.0,-2.2594,-2.2844,-2.2406,-2.2196,-2.2468,-2.2506,-2.2669,-2.3058,-2.2837,-2.257,-2.2377,-2.1744,-2.1269,-2.1101,-2.0267,-1.9846,-1.9846,-1.9363,-1.9108,-1.9108,-1.9108,-1.9108,-1.9119,-1.9996,-2.0385,-2.0416,-2.1383,-2.1807,-2.1807,-2.1807,-2.1994,-2.2346,-2.2801,-2.2873,-2.2708,-2.2915,-2.308,-2.3122,-2.2522,-2.2604,-2.3132,-2.4043,-2.4602,-2.4879,-2.4972,-2.5086,-2.5096,-2.4631,-2.4828,-2.5189,-2.5189,-2.5544,-2.5854,-2.573,-2.5792,-2.5889,-2.573,-2.5792,-2.5968,-2.6345,-2.6115,-2.5876,-2.6245,-2.5884,-2.5596,-2.5664,-2.5693,-2.5693,-2.5693,-2.5693,-2.5693,-2.5693,-2.5693,-2.5693,-2.5693,-2.5693,-2.5693,-2.5693,-2.5693,-2.5693,-2.5693,-2.5693,-2.5693,-2.5693,-2.5693,-2.5693,-2.5693,-2.5693,-2.5693,-2.5693,-2.5693,-2.5693,-2.5693,-2.5693,-2.5693,-2.1459,-2.1856,-2.2425,-2.2969,-2.3105,-2.3108,-2.3108,-2.3108,-2.3108,-2.3108,-2.3095,-2.3083,0.0,0.0,0.0,0.0,0.0,0.0,0.0,-2.1857,-2.1907,-2.2945,-2.3083,-2.3083,-2.3108,-2.2161,-2.1248,-2.0542,-1.9854,-1.9208,-1.8552,-1.8925,-1.9131,-1.9131,-1.9098,-1.9108,-1.9108,-1.9108,-1.9108,-1.9119,-1.9996,-2.0385,-2.0416,-2.1383,-2.1807,-2.1807,-2.1807,-2.1818,-2.1859,-2.2325,-2.277,-2.3122,-2.2687,-2.2791,-2.308,-2.2159,-2.2118,-2.2656,-2.3577,-2.479,-2.5699,-2.4797,-2.4828,-2.5096,-2.4631,-2.4828,-2.5189,-2.5189,-2.5544,-2.5782,-2.5357,-2.5564,-2.5771,-2.5313,-2.5575,-2.5885,-2.5941,-2.5844,-2.5785,-2.5795,-2.5419,-2.5225,-2.5615,-2.5693,-2.5693,-2.5693,-2.5693,-2.5693,-2.5693,-2.5693,-2.5693,-2.5693,-2.5693,-2.5693,-2.5693,-2.5693,-2.5693,-2.5693,-2.5693,-2.5693,-2.5693,-2.5693,-2.5693,-2.5693,-2.5693,-2.5693,-2.5693,-2.5693,-2.5693,-2.5693,-2.5693,-2.5693,-2.1435,-2.1852,-2.2345,-2.2524,-2.2824,-2.3108,-2.3108,-2.3108,-2.3108,-2.3108,-2.3108,-2.3108,0.0,0.0,0.0,0.0,0.0,0.0,0.0,-2.2669,-2.2236,-2.1366,-2.204,-2.2706,-2.307,-2.2459,-2.1918,-2.167,-2.064,-1.9904,-1.9656,-1.9296,-1.9108,-1.9108,-1.9108,-1.9108,-1.9108,-1.9108,-1.9108,-1.9119,-1.9996,-2.0385,-2.0416,-2.1383,-2.1807,-2.1807,-2.1807,-2.1807,-2.1849,-2.2304,-2.2408,-2.2294,-2.2439,-2.2408,-2.2232,-2.1921,-2.1901,-2.2252,-2.3784,-2.4416,-2.4654,-2.5233,-2.513,-2.4704,-2.4549,-2.4611,-2.4735,-2.4735,-2.4838,-2.4964,-2.4766,-2.4838,-2.4921,-2.4602,-2.4674,-2.4815,-2.4934,-2.4801,-2.4764,-2.5099,-2.5108,-2.5019,-2.4893,-2.5304,-2.5693,-2.5693,-2.5693,-2.5693,-2.5693,-2.5693,-2.5693,-2.5693,-2.5693,-2.5693,-2.5693,-2.5693,-2.5693,-2.5693,-2.5693,-2.5693,-2.5693,-2.5693,-2.5693,-2.5693,-2.5693,-2.5693,-2.5693,-2.5693,-2.5693,-2.5693,-2.5693,-2.5693,-2.1708,-2.1965,-2.2326,-2.2498,-2.2842,-2.3094,-2.3088,-2.3108,-2.3108,-2.3108,-2.3108,-2.3108,0.0,0.0,0.0,0.0,0.0,0.0,0.0,-2.2982,-2.2583,-2.1194,-2.193,-2.2618,-2.2713,-2.1947,-2.1475,-2.1599,-2.0435,-1.9683,-1.9625,-1.9523,-1.9363,-1.9098,-1.9108,-1.9108,-1.9108,-1.9108,-1.9108,-1.9108,-1.9831,-2.0276,-2.0416,-2.1217,-2.1652,-2.1807,-2.1807,-2.1807,-2.1828,-2.2128,-2.217,-2.2066,-2.2201,-2.217,-2.2035,-2.1869,-2.2014,-2.2459,-2.365,-2.4084,-2.426,-2.5119,-2.5016,-2.4497,-2.4497,-2.4497,-2.4528,-2.4693,-2.4621,-2.4538,-2.4704,-2.4621,-2.4454,-2.4249,-2.4206,-2.4242,-2.4458,-2.4401,-2.4505,-2.4941,-2.4943,-2.4844,-2.4883,-2.505,-2.5216,-2.5216,-2.5489,-2.5635,-2.5518,-2.5586,-2.5693,-2.5693,-2.5693,-2.5693,-2.5693,-2.5693,-2.5693,-2.5693,-2.5693,-2.5693,-2.5693,-2.5693,-2.5762,-2.5967,-2.5771,-2.5762,-2.5967,-2.5762,-2.5693,-2.5693,-2.5693,-2.5693]},{"header":{"parameterUnit":"m.s-1","parameterCategory":1,"la1":30.6,"la2":29.2853,"lo1":-89.7004,"lo2":-87.6739,"dy":0.0162,"dx":0.0183,"nx":112,"ny":82,"refTime":"2023-09-01T06:00:00:Z","depth":0,"parameterNumber":3,"parameterNumberName":"V-component_of_WINDS"},"data":[0.0,0.0,0.0,0.0,0.0,0.0,0.0,0.0,0.0,0.0,0.0,0.0,0.0,0.0,0.0,0.0,0.0,0.0,0.0,0.0,0.0,0.0,0.0,0.0,0.0,0.0,0.0,0.0,0.0,0.0,0.0,0.0,0.0,0.0,0.0,0.0,0.0,0.0,0.0,0.0,0.0,0.0,0.0,0.0,0.0,0.0,0.0,0.0,0.0,0.0,0.0,0.0,0.0,0.0,0.0,0.0,0.0,0.0,0.0,0.0,0.0,0.0,0.0,0.0,0.0,0.0,0.0,0.0,0.0,0.0,0.0,0.0,0.0,0.0,0.0,0.0,0.0,0.0,0.0,0.0,0.0,0.0,0.0,0.0,0.0,0.0,0.0,0.0,0.0,0.0,2.3997,2.5643,2.8594,3.0401,3.027,2.9069,2.7245,2.4709,0.0,0.0,0.0,0.0,0.0,0.0,0.0,0.0,0.0,0.0,0.0,0.0,0.0,0.0,0.0,0.0,0.0,0.0,0.0,0.0,0.0,0.0,0.0,0.0,0.0,0.0,0.0,0.0,0.0,0.0,0.0,0.0,0.0,0.0,0.0,0.0,0.0,0.0,0.0,0.0,0.0,0.0,0.0,0.0,0.0,0.0,0.0,0.0,0.0,0.0,0.0,0.0,0.0,0.0,0.0,0.0,0.0,0.0,0.0,0.0,0.0,0.0,0.0,0.0,0.0,0.0,0.0,0.0,0.0,0.0,0.0,0.0,0.0,0.0,0.0,0.0,0.0,0.0,0.0,0.0,0.0,0.0,0.0,0.0,0.0,0.0,0.0,0.0,0.0,0.0,0.0,0.0,0.0,0.0,0.0,0.0,0.0,0.0,0.0,0.0,0.0,0.0,0.0,0.0,2.5463,2.9126,3.1041,3.1751,3.0993,2.905,2.7265,2.5825,0.0,0.0,0.0,0.0,0.0,0.0,0.0,0.0,0.0,0.0,0.0,0.0,0.0,0.0,0.0,0.0,0.0,0.0,0.0,0.0,0.0,0.0,0.0,0.0,0.0,0.0,0.0,0.0,0.0,0.0,0.0,0.0,0.0,0.0,0.0,0.0,0.0,0.0,0.0,0.0,0.0,0.0,0.0,0.0,0.0,0.0,0.0,0.0,0.0,0.0,0.0,0.0,0.0,0.0,0.0,0.0,0.0,0.0,0.0,0.0,0.0,0.0,0.0,0.0,0.0,0.0,0.0,0.0,0.0,0.0,0.0,0.0,0.0,0.0,0.0,0.0,0.0,0.0,0.0,0.0,0.0,0.0,0.0,0.0,0.0,0.0,0.0,0.0,0.0,0.0,0.0,0.0,0.0,0.0,0.0,0.0,0.0,0.0,0.0,0.0,0.0,0.0,0.0,2.537,2.7434,3.0977,3.1907,3.2129,3.1716,2.9537,2.7596,2.6193,2.4806,0.0,0.0,0.0,0.0,0.0,0.0,0.0,0.0,0.0,0.0,0.0,0.0,0.0,0.0,0.0,0.0,0.0,0.0,0.0,0.0,0.0,0.0,0.0,0.0,0.0,0.0,0.0,0.0,0.0,0.0,0.0,0.0,0.0,0.0,0.0,0.0,0.0,0.0,0.0,0.0,0.0,0.0,0.0,0.0,0.0,0.0,0.0,0.0,0.0,0.0,0.0,0.0,0.0,0.0,0.0,0.0,0.0,0.0,0.0,0.0,0.0,0.0,0.0,0.0,0.0,0.0,0.0,0.0,0.0,0.0,0.0,0.0,0.0,0.0,0.0,0.0,0.0,0.0,0.0,0.0,0.0,0.0,0.0,0.0,0.0,0.0,0.0,0.0,0.0,0.0,0.0,0.0,0.0,0.0,0.0,0.0,0.0,0.0,0.0,0.0,0.0,0.0,2.7582,2.9535,3.1975,3.2553,3.2615,3.2325,3.0142,2.8168,2.6756,2.5346,0.0,0.0,0.0,0.0,0.0,0.0,0.0,0.0,0.0,0.0,0.0,0.0,0.0,0.0,0.0,0.0,0.0,0.0,0.0,0.0,0.0,0.0,0.0,0.0,0.0,0.0,0.0,0.0,0.0,0.0,0.0,0.0,0.0,0.0,0.0,0.0,0.0,0.0,0.0,0.0,0.0,0.0,0.0,0.0,0.0,0.0,0.0,0.0,0.0,0.0,0.0,0.0,0.0,0.0,0.0,0.0,0.0,0.0,0.0,0.0,0.0,0.0,0.0,0.0,0.0,0.0,0.0,0.0,0.0,0.0,0.0,0.0,0.0,0.0,0.0,0.0,0.0,0.0,0.0,0.0,0.0,0.0,0.0,0.0,0.0,0.0,0.0,0.0,0.0,0.0,0.0,0.0,0.0,0.0,0.0,0.0,0.0,0.0,0.0,0.0,0.0,0.0,2.9363,3.1516,3.2304,3.3547,3.3856,3.2669,3.0746,2.9185,2.8139,2.6176,0.0,0.0,0.0,0.0,0.0,0.0,0.0,0.0,0.0,0.0,0.0,0.0,0.0,0.0,0.0,0.0,0.0,0.0,0.0,0.0,0.0,0.0,0.0,0.0,0.0,0.0,0.0,0.0,0.0,0.0,0.0,0.0,0.0,0.0,0.0,0.0,0.0,0.0,0.0,0.0,0.0,0.0,0.0,0.0,0.0,0.0,0.0,0.0,0.0,0.0,0.0,0.0,0.0,0.0,0.0,0.0,0.0,0.0,0.0,0.0,0.0,0.0,0.0,0.0,0.0,0.0,0.0,0.0,0.0,0.0,0.0,0.0,0.0,0.0,0.0,0.0,0.0,0.0,0.0,0.0,0.0,0.0,0.0,0.0,0.0,0.0,0.0,0.0,0.0,0.0,0.0,0.0,0.0,0.0,0.0,0.0,0.0,0.0,0.0,0.0,0.0,0.0,2.9191,3.1275,3.2359,3.3316,3.3558,3.2735,3.0419,2.877,2.8247,0.0,0.0,0.0,0.0,0.0,0.0,0.0,0.0,0.0,0.0,0.0,0.0,0.0,0.0,0.0,0.0,0.0,0.0,0.0,0.0,0.0,0.0,0.0,0.0,0.0,0.0,0.0,0.0,0.0,0.0,0.0,0.0,0.0,0.0,0.0,0.0,0.0,0.0,0.0,0.0,0.0,0.0,0.0,0.0,0.0,0.0,0.0,0.0,0.0,0.0,0.0,0.0,0.0,0.0,0.0,0.0,0.0,0.0,0.0,0.0,0.0,0.0,0.0,0.0,0.0,0.0,0.0,0.0,0.0,0.0,0.0,0.0,0.0,0.0,0.0,0.0,0.0,0.0,0.0,0.0,0.0,0.0,0.0,0.0,0.0,0.0,0.0,0.0,0.0,0.0,0.0,0.0,0.0,0.0,0.0,0.0,0.0,0.0,0.0,0.0,0.0,0.0,2.6825,2.9077,3.1016,3.2377,3.2916,3.3051,3.2734,3.0003,2.8313,2.8207,0.0,0.0,0.0,0.0,0.0,0.0,0.0,0.0,0.0,0.0,0.0,0.0,0.0,0.0,0.0,0.0,0.0,0.0,0.0,0.0,0.0,0.0,0.0,0.0,0.0,0.0,0.0,0.0,0.0,0.0,0.0,0.0,0.0,0.0,0.0,0.0,0.0,0.0,0.0,0.0,0.0,0.0,0.0,0.0,0.0,0.0,0.0,0.0,0.0,0.0,0.0,0.0,0.0,0.0,0.0,0.0,0.0,0.0,0.0,0.0,0.0,0.0,0.0,0.0,0.0,0.0,0.0,0.0,0.0,0.0,0.0,0.0,0.0,0.0,0.0,0.0,0.0,0.0,0.0,0.0,0.0,0.0,0.0,0.0,0.0,0.0,0.0,0.0,0.0,0.0,0.0,0.0,0.0,0.0,0.0,0.0,0.0,0.0,0.0,0.0,0.0,0.0,2.742,2.928,3.1016,3.2362,3.2512,3.2556,3.2674,2.9674,2.7905,0.0,0.0,0.0,0.0,0.0,0.0,0.0,0.0,0.0,0.0,0.0,0.0,0.0,0.0,0.0,0.0,0.0,0.0,0.0,0.0,0.0,0.0,0.0,0.0,0.0,0.0,0.0,0.0,0.0,0.0,0.0,0.0,0.0,0.0,0.0,0.0,0.0,0.0,0.0,0.0,0.0,0.0,0.0,0.0,0.0,0.0,0.0,0.0,0.0,0.0,0.0,0.0,0.0,0.0,0.0,0.0,0.0,0.0,0.0,0.0,0.0,0.0,0.0,0.0,0.0,0.0,0.0,0.0,0.0,0.0,0.0,0.0,0.0,0.0,0.0,0.0,0.0,0.0,0.0,0.0,0.0,0.0,0.0,0.0,0.0,0.0,0.0,0.0,0.0,0.0,0.0,0.0,0.0,0.0,0.0,0.0,0.0,0.0,0.0,0.0,0.0,0.0,0.0,2.742,2.928,3.0836,3.169,3.2213,3.2197,3.1423,2.9094,2.7604,2.7505,0.0,0.0,0.0,0.0,0.0,0.0,0.0,0.0,0.0,0.0,0.0,0.0,0.0,0.0,0.0,0.0,0.0,0.0,0.0,0.0,0.0,0.0,0.0,0.0,0.0,0.0,0.0,0.0,0.0,0.0,0.0,0.0,0.0,0.0,0.0,0.0,0.0,0.0,0.0,0.0,0.0,0.0,0.0,0.0,0.0,0.0,0.0,0.0,0.0,0.0,0.0,0.0,0.0,0.0,0.0,0.0,0.0,0.0,0.0,0.0,0.0,0.0,0.0,0.0,0.0,0.0,0.0,0.0,0.0,0.0,0.0,0.0,0.0,0.0,0.0,0.0,0.0,0.0,0.0,0.0,0.0,0.0,0.0,0.0,0.0,0.0,0.0,0.0,0.0,0.0,0.0,0.0,0.0,0.0,0.0,0.0,0.0,0.0,0.0,0.0,0.0,0.0,2.742,2.9097,3.0492,3.1406,3.1854,3.1823,3.1142,2.894,2.7585,2.747,0.0,0.0,0.0,0.0,0.0,0.0,0.0,0.0,0.0,0.0,0.0,0.0,0.0,0.0,0.0,0.0,0.0,0.0,0.0,0.0,0.0,0.0,0.0,0.0,0.0,0.0,0.0,0.0,0.0,0.0,0.0,0.0,0.0,0.0,0.0,0.0,0.0,0.0,0.0,0.0,0.0,0.0,0.0,0.0,0.0,0.0,0.0,0.0,0.0,0.0,0.0,0.0,0.0,0.0,0.0,0.0,0.0,0.0,0.0,0.0,0.0,0.0,0.0,0.0,0.0,0.0,0.0,0.0,0.0,0.0,0.0,0.0,0.0,0.0,0.0,0.0,0.0,0.0,0.0,0.0,0.0,0.0,0.0,0.0,0.0,0.0,0.0,0.0,0.0,0.0,0.0,0.0,0.0,0.0,0.0,0.0,0.0,0.0,0.0,0.0,0.0,0.0,2.751,2.8813,3.0088,3.1361,3.1511,3.1481,3.1406,2.9116,2.7705,2.7794,0.0,0.0,0.0,0.0,0.0,0.0,0.0,0.0,0.0,0.0,0.0,0.0,0.0,0.0,0.0,0.0,0.0,0.0,0.0,0.0,0.0,0.0,0.0,0.0,0.0,0.0,0.0,0.0,0.0,0.0,0.0,0.0,0.0,0.0,0.0,0.0,0.0,0.0,0.0,0.0,0.0,0.0,0.0,0.0,0.0,0.0,0.0,0.0,0.0,0.0,0.0,0.0,0.0,0.0,0.0,0.0,0.0,0.0,0.0,0.0,2.8488,2.7852,0.0,0.0,0.0,0.0,0.0,0.0,0.0,0.0,0.0,0.0,0.0,0.0,0.0,0.0,0.0,0.0,0.0,0.0,0.0,0.0,0.0,0.0,0.0,0.0,0.0,0.0,0.0,0.0,0.0,0.0,0.0,0.0,0.0,0.0,0.0,0.0,0.0,0.0,0.0,0.0,2.8143,2.9112,3.0088,3.1361,3.1511,3.1286,3.0776,2.928,2.801,2.7091,2.5523,0.0,0.0,0.0,0.0,0.0,0.0,0.0,0.0,0.0,0.0,0.0,0.0,0.0,0.0,0.0,0.0,0.0,0.0,0.0,0.0,0.0,0.0,0.0,0.0,0.0,0.0,0.0,0.0,0.0,0.0,0.0,0.0,0.0,0.0,0.0,0.0,0.0,0.0,0.0,0.0,0.0,0.0,0.0,0.0,0.0,0.0,0.0,0.0,0.0,0.0,0.0,0.0,0.0,0.0,0.0,0.0,0.0,0.0,0.0,3.0364,2.9139,0.0,0.0,0.0,0.0,0.0,0.0,0.0,0.0,0.0,0.0,0.0,0.0,0.0,0.0,0.0,0.0,0.0,0.0,0.0,0.0,0.0,0.0,0.0,0.0,0.0,0.0,0.0,0.0,0.0,0.0,0.0,0.0,0.0,0.0,0.0,0.0,0.0,0.0,0.0,0.0,2.8382,2.9175,3.0088,3.1361,3.1511,3.1361,3.1002,2.952,2.8225,2.7353,2.5718,0.0,0.0,0.0,0.0,0.0,0.0,0.0,0.0,0.0,0.0,0.0,0.0,0.0,0.0,0.0,0.0,0.0,0.0,0.0,0.0,0.0,0.0,0.0,0.0,0.0,0.0,0.0,0.0,0.0,0.0,0.0,0.0,0.0,0.0,0.0,0.0,0.0,0.0,0.0,0.0,0.0,0.0,0.0,0.0,0.0,0.0,0.0,0.0,0.0,0.0,0.0,0.0,0.0,3.5708,3.6308,3.6526,3.6421,3.6337,3.6193,3.3412,3.1596,3.0622,3.0502,0.0,0.0,0.0,0.0,0.0,0.0,0.0,0.0,0.0,0.0,0.0,0.0,0.0,0.0,0.0,0.0,0.0,0.0,0.0,0.0,0.0,0.0,2.8966,2.9086,2.943,2.8966,2.6084,0.0,0.0,0.0,0.0,0.0,0.0,0.0,0.0,0.0,0.0,0.0,2.8592,2.934,3.0193,3.1376,3.1511,3.1511,3.1511,2.9806,2.8539,2.7966,2.6161,2.5108,0.0,0.0,0.0,0.0,0.0,0.0,0.0,0.0,0.0,0.0,0.0,0.0,0.0,0.0,0.0,0.0,0.0,0.0,0.0,0.0,0.0,0.0,0.0,0.0,0.0,0.0,0.0,0.0,0.0,0.0,0.0,0.0,2.9032,2.9032,0.0,0.0,0.0,0.0,0.0,0.0,0.0,0.0,0.0,0.0,0.0,0.0,0.0,3.3889,3.5734,3.7588,3.8292,3.7848,4.0246,4.0845,3.976,3.9155,3.9215,3.9664,3.8083,0.0,3.3111,3.1965,0.0,0.0,0.0,0.0,0.0,0.0,0.0,0.0,0.0,0.0,0.0,0.0,0.0,0.0,0.0,0.0,0.0,0.0,0.0,0.0,0.0,0.0,3.0402,3.0972,3.0746,3.0118,2.9146,2.7694,2.6542,2.6363,2.6019,2.5704,0.0,0.0,0.0,0.0,0.0,0.0,2.9307,2.9998,3.0672,3.1421,3.1511,3.1511,3.1511,3.0253,2.9202,2.8543,2.7151,2.5918,2.4889,2.5311,0.0,0.0,0.0,0.0,0.0,0.0,0.0,0.0,0.0,0.0,0.0,0.0,0.0,0.0,0.0,0.0,0.0,0.0,0.0,0.0,0.0,0.0,0.0,0.0,0.0,0.0,0.0,0.0,0.0,2.9845,3.0046,2.9966,3.0555,3.0676,0.0,0.0,0.0,0.0,0.0,0.0,0.0,0.0,0.0,3.522,3.6282,3.7599,3.9215,4.0816,4.1654,4.1743,4.3284,4.3703,4.3135,4.2476,4.2327,4.2551,4.1579,3.9969,3.7837,3.5488,3.3397,3.1612,0.0,0.0,0.0,0.0,3.0528,3.0915,3.1366,3.1728,3.194,3.1476,0.0,0.0,0.0,0.0,0.0,0.0,0.0,3.0285,3.0597,3.115,3.1704,3.1989,3.2138,3.2108,3.1839,3.0507,2.9041,2.7934,2.7784,2.7844,2.7844,2.748,0.0,0.0,0.0,2.8622,2.9939,3.0342,3.0776,3.1436,3.1511,3.1511,3.1511,3.0657,2.9669,2.8667,2.7705,2.663,2.5417,2.5281,2.5492,0.0,0.0,0.0,0.0,0.0,0.0,0.0,0.0,0.0,0.0,0.0,0.0,0.0,0.0,0.0,0.0,0.0,0.0,0.0,0.0,0.0,0.0,0.0,0.0,0.0,0.0,0.0,0.0,3.1031,3.1587,3.0977,3.2254,3.2525,0.0,0.0,0.0,0.0,0.0,0.0,3.4951,3.6118,3.7494,3.9125,4.0142,4.1459,4.3135,4.4122,4.484,4.5334,4.5828,4.5978,4.5783,4.5125,4.4736,4.4526,4.3828,4.2836,4.1422,3.8382,3.5797,3.3664,3.2781,3.2151,3.1824,3.2138,3.2363,3.2632,3.3469,3.4068,3.4354,3.3335,3.2677,3.2079,3.127,0.0,0.0,0.0,0.0,3.2004,3.2004,3.2632,3.3275,3.3275,3.3514,3.3739,3.3739,3.2841,3.1481,2.9699,2.9609,2.9786,2.9636,2.8903,0.0,2.9669,2.9549,2.9759,3.0866,3.1016,3.1182,3.1705,3.16,3.1511,3.1511,3.0746,2.9864,2.8921,2.8079,2.7115,2.6047,2.5521,2.5641,2.6477,0.0,0.0,0.0,0.0,0.0,0.0,0.0,0.0,0.0,0.0,0.0,0.0,0.0,0.0,0.0,0.0,0.0,0.0,0.0,0.0,0.0,0.0,0.0,0.0,0.0,0.0,0.0,0.0,0.0,3.1675,3.4816,0.0,0.0,0.0,0.0,3.6193,3.7345,3.8362,3.9059,3.9783,4.1324,4.3883,4.4032,4.5319,4.7923,4.8012,4.8057,4.8087,4.8117,4.7818,4.7189,4.6531,4.5858,4.5214,4.4541,4.3524,4.2141,3.9445,3.7853,3.6971,3.5102,3.4728,3.5175,3.4562,3.4741,3.522,3.4668,3.4474,3.4503,3.4429,3.311,3.166,3.2213,3.1524,0.0,0.0,3.2378,3.3395,3.3395,3.4367,3.5355,3.5355,3.4876,3.4459,3.4459,3.3888,3.2991,3.1615,3.0881,3.0268,2.9711,0.0,3.0372,3.0447,3.0957,3.1615,3.2317,3.2407,3.2392,3.2437,3.1869,3.1511,3.1511,3.0357,2.9636,2.9562,2.8319,2.7285,2.6596,2.6537,2.6228,2.5674,2.6267,0.0,0.0,0.0,0.0,0.0,0.0,0.0,0.0,0.0,0.0,0.0,0.0,0.0,0.0,0.0,0.0,0.0,0.0,0.0,0.0,0.0,0.0,0.0,0.0,0.0,0.0,0.0,0.0,3.5983,3.8706,0.0,3.7524,3.7958,3.8556,3.8975,3.9813,4.0965,4.2491,4.3614,4.5035,4.6815,4.7279,4.8147,4.9523,4.9538,4.9329,4.8955,4.8955,4.8356,4.7279,4.6621,4.5948,4.5259,4.4601,4.3808,4.288,4.1504,4.0307,3.923,3.8093,3.7539,3.7285,3.6611,3.6791,3.733,3.7075,3.7285,3.7509,3.6641,3.5624,3.4681,3.4502,3.4397,3.4322,3.4143,3.5026,3.5923,3.5519,3.6073,3.6731,3.6731,3.6237,3.5806,3.5806,3.525,3.4651,3.4188,3.2856,3.1869,3.2063,3.1584,3.145,3.2302,3.2287,3.2378,3.3066,3.2781,3.2512,3.2512,3.1899,3.1511,3.1511,3.0702,2.9819,2.9011,2.8109,2.6926,2.5367,2.5307,2.5397,2.5615,2.5839,2.6378,0.0,0.0,0.0,0.0,0.0,0.0,0.0,0.0,0.0,0.0,0.0,0.0,0.0,0.0,0.0,0.0,0.0,0.0,0.0,0.0,0.0,0.0,0.0,0.0,0.0,3.7479,3.9424,3.9394,4.2147,4.3165,4.0913,4.1316,4.1923,4.2372,4.321,4.4377,4.5903,4.683,4.8012,4.9553,4.9808,5.0242,5.0885,5.0629,5.0137,4.9314,4.909,4.8356,4.7294,4.686,4.6277,4.5618,4.5185,4.4575,4.3958,4.3524,4.2701,4.1609,4.0502,3.9798,3.9349,3.8901,3.8886,3.9035,3.8811,3.8886,3.8931,3.8033,3.7165,3.6447,3.6207,3.6312,3.6432,3.6207,3.6911,3.7599,3.6971,3.727,3.7629,3.721,3.6791,3.6432,3.6207,3.5804,3.5504,3.5504,3.4427,3.3589,3.3784,3.3095,3.2826,3.3694,3.3455,3.3425,3.4083,3.3589,3.3095,3.2871,3.2228,3.1645,3.1197,3.0776,2.9953,2.8682,2.8173,2.7255,2.5689,2.5615,2.5824,2.6258,2.6273,2.6692,2.76,0.0,0.0,0.0,0.0,0.0,0.0,0.0,0.0,0.0,0.0,0.0,0.0,0.0,0.0,0.0,0.0,0.0,0.0,0.0,0.0,0.0,0.0,0.0,3.736,4.092,4.2955,4.1713,4.499,4.6352,4.3723,4.5233,4.6369,4.6369,4.7593,4.8596,4.9299,4.9359,5.0258,5.2142,5.1588,5.1558,5.2187,5.1558,5.0571,4.9329,4.8656,4.7997,4.7339,4.7339,4.6965,4.6279,4.6279,4.5933,4.5289,4.5274,4.4885,4.4122,4.2222,4.1459,4.1482,4.1452,4.098,4.0307,3.9679,3.899,3.8422,3.8422,3.7584,3.6686,3.73,3.7045,3.6686,3.7255,3.7883,3.8227,3.7554,3.7868,3.8048,3.6806,3.6492,3.6312,3.5669,3.5519,3.5504,3.5504,3.5504,3.5295,3.4653,3.4533,3.4533,3.4533,3.4533,0.0,3.5415,3.4906,3.4264,3.3589,3.2946,3.2003,3.0672,3.0522,2.9953,2.8652,2.8547,2.8218,2.7525,2.754,2.757,2.76,2.7615,2.763,2.763,0.0,0.0,0.0,0.0,0.0,0.0,0.0,0.0,0.0,0.0,0.0,0.0,0.0,0.0,0.0,0.0,0.0,0.0,0.0,0.0,0.0,3.8093,3.9888,4.0232,4.2462,4.4466,4.5544,4.7489,4.8446,4.7698,4.8132,4.8461,4.8461,4.8835,4.9284,4.9942,5.0421,5.1154,5.2172,5.2022,5.2007,5.2202,5.1558,5.0795,4.9972,4.9793,4.9105,4.8012,4.8012,4.7399,4.6279,4.6279,4.5933,4.5259,4.4781,4.4481,4.4257,4.3718,4.3225,4.2731,4.2306,4.1407,4.0367,4.0187,3.9694,3.914,3.914,3.8901,3.8646,3.8811,3.8751,3.8437,3.7644,3.7883,3.8138,3.703,3.721,3.7599,3.724,3.6806,3.6432,3.6252,3.5833,3.5504,3.5504,3.5504,3.5444,3.525,3.522,3.522,3.522,3.522,3.5295,3.5489,3.4906,3.4444,3.4218,3.3619,3.2886,3.2033,3.1076,2.9744,2.7989,2.7435,2.6632,2.5457,2.6363,2.7106,2.7585,2.8094,2.8323,0.0,0.0,0.0,0.0,0.0,0.0,0.0,0.0,0.0,0.0,0.0,0.0,0.0,0.0,0.0,0.0,0.0,0.0,0.0,0.0,0.0,0.0,4.0831,4.3,4.4122,4.5499,4.692,4.8371,4.9449,5.0197,5.0466,5.0496,5.0616,5.0932,5.0947,5.1079,5.1454,5.1573,5.1932,5.2591,5.2351,5.2202,5.2202,5.1558,5.0838,5.0181,4.9643,4.903,4.8282,4.7997,4.7459,4.6741,4.6741,4.6516,4.6082,4.5424,4.4975,4.4661,0.0,0.0,0.0,0.0,4.1737,4.0771,4.0502,3.9963,3.9388,3.9388,3.9388,3.9388,3.9388,3.9388,3.926,3.8467,3.8527,3.8646,3.7913,3.7988,3.8182,3.7898,3.7345,3.6806,3.6537,3.5968,3.5504,3.5504,3.5504,0.0,3.5504,3.5504,3.5504,3.5504,3.5504,3.5504,3.5504,3.516,3.4801,3.4533,3.3888,3.311,3.2153,3.1361,0.0,0.0,0.0,2.7889,2.7101,2.7829,0.0,0.0,0.0,2.9265,2.9011,2.9654,0.0,0.0,2.9367,2.9397,0.0,0.0,0.0,0.0,0.0,0.0,0.0,0.0,0.0,0.0,0.0,0.0,0.0,0.0,0.0,0.0,4.3359,4.5574,4.8237,4.9119,4.9673,5.0136,5.0704,5.1364,5.2022,5.2157,5.2441,5.3025,5.3069,5.3069,5.3069,5.2516,0.0,0.0,0.0,5.2232,5.2306,5.1588,5.0883,5.0285,4.909,4.8476,4.8371,4.7713,4.7369,4.7309,4.7309,4.7309,4.7249,4.6591,4.5873,4.5065,4.3783,4.329,4.323,4.2686,4.2096,4.1437,4.0741,0.0,0.0,3.9403,3.9388,3.9388,3.9388,3.9388,3.9373,3.9334,3.9245,3.917,3.911,3.9035,3.8826,3.8212,3.7629,3.7045,3.6492,3.5923,3.5504,3.5504,3.5504,3.5504,3.5504,3.5504,3.5504,3.5504,3.5504,3.5504,3.5504,3.5504,3.5265,3.4698,3.4068,0.0,3.1944,3.1705,3.1062,2.9786,3.0058,3.0357,3.0492,3.0432,3.0432,3.0507,3.0507,3.0238,2.9711,3.0313,3.0612,3.0612,3.0058,2.9804,0.0,0.0,0.0,0.0,0.0,0.0,0.0,0.0,0.0,0.0,0.0,0.0,0.0,0.0,0.0,4.3195,4.5424,4.7653,5.0287,5.0765,5.069,5.024,5.03,5.0644,5.1349,5.1887,5.2247,5.2381,5.2381,5.2381,5.2381,5.2276,5.2501,5.3159,5.2546,5.2456,5.298,5.1813,5.1154,5.102,5.0181,0.0,4.9105,4.8401,4.7803,4.7309,4.7309,4.7309,4.7249,4.6591,4.5603,4.4421,4.3604,4.329,4.329,4.3155,4.2731,4.2111,4.1452,4.0756,4.0127,3.9589,3.9388,3.9388,3.9388,3.9388,0.0,3.8751,3.8197,3.7674,3.718,3.6656,3.6222,3.6088,3.5968,3.5848,3.5729,3.5594,3.5504,3.5504,3.5504,3.5504,3.5504,3.5504,3.5504,3.5504,3.5504,3.5504,3.5504,3.5504,3.5459,3.5325,3.519,3.4786,3.3978,3.2931,3.1749,3.0417,2.9475,2.943,3.0462,3.0028,2.9998,3.0492,3.0507,3.0447,3.0328,3.0972,3.1316,3.1301,3.1182,3.1122,0.0,0.0,0.0,0.0,0.0,0.0,0.0,0.0,0.0,0.0,0.0,3.7313,3.8687,0.0,4.2731,4.5379,4.7474,4.9344,5.099,5.1214,5.1214,5.1214,5.0883,5.0943,5.1648,5.2007,5.2336,5.2665,5.301,5.3204,5.3204,5.2875,5.283,5.3174,5.2217,5.1872,5.2202,5.1214,5.0885,5.1199,4.9883,4.9269,4.9284,4.8252,4.7623,4.7309,4.7309,4.7309,4.7219,4.6217,4.502,4.3753,4.3424,4.329,4.329,4.329,4.2716,4.1856,4.1527,4.0726,3.9858,3.9493,3.9388,3.9388,3.9388,3.9185,3.8901,3.8901,3.8422,3.7913,3.7943,3.7704,3.7464,3.7464,3.721,3.6941,3.6941,3.6686,3.6462,3.6462,3.6207,3.6103,3.6402,3.6207,3.5893,3.5549,3.5504,3.5504,3.5504,3.5504,3.5504,3.5504,3.519,3.4846,3.4533,3.3275,3.2198,3.1554,3.0584,3.033,3.0957,3.0717,3.0702,3.0987,3.0987,3.0987,3.0987,3.1331,3.1511,3.1511,3.1511,3.1511,0.0,0.0,0.0,0.0,0.0,0.0,0.0,3.8084,3.8247,3.8936,3.9202,3.9905,4.1632,4.3344,4.52,4.7339,4.9015,5.0316,5.1109,5.1109,5.1229,5.1753,5.1468,5.1424,5.1947,5.2232,5.2665,5.3324,5.3892,5.4206,5.4206,5.3428,5.3054,5.3174,5.1902,5.1274,5.1409,5.0704,5.0584,5.1005,4.9299,4.8686,4.9075,4.7848,4.7309,4.7294,4.7174,4.7189,4.7189,4.5708,4.4556,4.3648,4.3394,4.329,4.329,4.329,4.2671,4.1728,4.1474,4.0681,3.9768,3.9463,3.9388,3.9388,3.9388,3.9035,3.8706,3.926,3.8931,3.8512,3.908,3.9125,3.9,3.9,3.8601,3.8197,3.8197,3.7778,3.7404,3.7404,3.7,3.6821,3.733,3.7,3.6492,3.5953,3.5774,3.5699,3.5699,3.5579,3.5504,3.5504,3.5011,3.4653,3.4518,3.3499,3.2841,3.2706,3.2064,3.175,3.1884,3.1765,3.169,3.169,3.169,3.163,3.1511,3.1511,3.1511,3.1511,3.1511,3.1511,3.682,3.7052,3.7395,3.8711,3.8574,3.8776,0.0,4.1281,4.0948,4.1704,4.2337,4.2993,4.3838,4.4646,4.6037,4.867,4.9284,4.9808,5.105,5.0674,5.033,5.0405,5.0868,5.1244,5.1319,5.2381,5.3354,5.4042,5.4162,5.4206,5.4206,5.301,5.2576,5.3159,5.1902,5.1498,5.2082,5.1439,5.0808,5.0285,4.9538,4.894,4.8371,4.7638,4.7309,4.7279,4.6696,4.677,4.716,4.5214,4.4676,4.496,4.3753,4.329,4.329,4.329,4.32,4.2916,4.1788,4.128,4.0965,3.9798,3.9388,3.9388,3.9388,3.9364,3.932,3.9394,3.8931,3.8407,3.8482,3.8078,3.7629,3.7629,3.7584,3.7524,3.7524,3.7464,3.7404,3.7404,3.736,3.733,3.7404,3.7345,3.7285,3.721,3.6731,3.6372,3.6372,3.5863,3.5504,3.5504,3.5429,3.5145,3.4563,3.4369,3.4008,3.3425,3.2766,3.2662,3.3245,3.2706,3.2378,3.2378,3.2378,3.2093,3.1511,3.1511,3.1511,3.1511,3.1511,3.1511,3.7383,3.8163,3.9076,3.9637,4.0468,4.1478,4.2665,4.3288,4.3679,4.397,4.4896,4.5695,4.599,4.6591,4.7519,4.906,4.9583,5.0017,5.0524,5.036,4.9762,4.8671,4.9449,5.0227,5.0569,5.1154,5.1753,5.2411,5.3174,5.3443,5.3069,5.286,5.2725,5.2621,5.1708,5.1169,5.1065,5.0406,4.9942,4.9658,4.8626,4.8177,4.8267,4.7608,4.7309,4.7294,4.701,4.683,4.6636,4.5394,4.4825,4.4631,4.3663,4.329,4.329,4.329,4.309,4.2626,4.1698,4.113,4.0651,3.9723,3.9388,3.9388,3.9388,3.914,3.8901,3.9305,3.8931,3.8482,3.8886,3.8781,3.8571,3.8571,3.8571,3.8571,3.8571,3.8571,3.8571,3.8571,3.8257,3.8108,3.8512,3.8242,3.8108,3.8527,3.7689,3.703,3.703,3.6791,3.6477,3.6118,3.6073,3.5804,3.513,3.4728,3.4384,3.4114,3.344,3.3215,3.3484,3.323,3.308,3.308,3.308,3.2766,3.2079,3.2079,3.1884,3.1511,3.1511,3.1511,3.7888,3.8975,4.0277,4.0891,4.2315,4.364,4.3953,4.4816,4.5587,4.5567,4.6352,4.698,4.6785,4.7294,4.7952,4.8626,4.9434,4.9912,4.9672,4.9703,4.9045,4.7249,4.7713,4.8491,4.9299,4.9882,5.0539,5.1424,5.2381,5.277,5.2486,5.2755,5.2695,5.2217,5.1394,5.0674,5.0196,4.9583,4.9224,4.903,4.8027,4.7728,4.7997,4.7519,4.7309,4.7279,4.692,4.6591,4.6204,4.5185,4.4586,4.4242,4.3544,4.329,4.329,4.329,4.303,4.2506,4.1707,4.107,4.0531,3.9694,3.9388,3.9388,3.9388,3.9065,3.8781,3.9239,3.9065,3.8796,3.9254,3.9388,3.9388,3.9388,3.9388,3.9388,3.9388,3.9388,3.9388,3.9388,3.902,3.8841,3.9334,3.9005,3.8841,3.9349,3.8551,3.7898,3.7704,3.7524,3.7165,3.6552,3.6492,3.6222,3.5564,3.504,3.4788,3.4788,3.4143,3.3858,3.4038,3.3858,3.3769,3.3769,3.3769,3.344,3.2781,3.2602,3.2243,3.1765,3.1585,3.16,3.8243,3.9144,4.0344,4.2872,4.3698,4.4219,4.554,4.6047,4.6262,4.6292,4.6279,4.6157,4.5484,4.5918,4.6591,4.7249,4.8461,4.912,4.8431,4.8341,4.7848,4.6516,4.5798,4.5933,4.7264,4.9075,5.0734,5.2067,5.2217,5.2501,5.3114,5.2561,5.2217,5.2202,5.0898,5.0211,5.0196,4.9583,4.8985,4.8312,4.8282,4.7938,4.7339,4.7309,4.7309,4.7234,4.5918,4.5723,4.613,4.4157,4.3723,4.4242,4.3544,4.329,4.329,4.329,4.329,4.308,4.1833,4.1407,4.113,3.9843,3.9388,3.9388,3.9388,3.9373,3.9358,3.9373,3.9373,3.9358,3.9373,3.9388,3.9388,3.9388,3.9388,3.9388,3.9388,3.9388,3.9388,3.9388,3.9373,3.9394,3.9388,3.9394,3.9394,3.9388,3.9394,3.911,3.8437,3.7808,3.7165,3.6552,3.6492,3.6222,3.5564,3.5489,3.5474,3.5474,3.4831,3.4741,3.5415,3.4801,3.4474,3.4474,3.4474,3.4159,3.3469,3.2826,3.2497,3.2437,3.1795,3.1854,3.8702,4.117,4.3726,4.454,4.5226,4.5919,4.6786,4.6697,4.6295,4.5575,4.4739,4.396,4.3479,4.3579,4.4197,4.5723,4.7459,4.8536,4.8312,4.903,4.8596,4.5963,4.6217,4.6456,4.6022,4.698,4.8371,5.0122,5.0661,5.0943,5.1214,5.1843,5.1798,5.0883,5.042,4.9777,4.8955,4.873,4.8282,4.7638,4.7638,4.7519,4.7309,4.7309,4.707,4.6636,4.6172,4.5858,4.5559,4.4451,4.4122,4.4242,4.3544,4.329,4.3245,4.2851,4.2686,4.2566,4.1683,4.11,4.0591,3.9709,3.9388,3.9388,3.9388,3.9388,3.9388,3.9388,3.9388,3.9388,3.9388,3.9388,3.9388,3.9388,3.9388,3.9388,3.9388,3.9388,3.9388,3.9388,3.9388,3.9388,3.9388,3.9388,3.9388,3.9388,3.9388,3.9298,3.9095,3.8886,3.8497,3.7823,3.7749,3.7315,3.6252,3.6148,3.5968,3.5534,3.5295,3.5265,3.5489,3.528,3.516,3.516,3.516,3.4816,3.4174,3.3918,3.3589,3.3155,3.2946,3.2961,4.0365,4.2987,4.5495,4.6283,4.6664,4.6932,4.7284,4.6624,4.5517,4.4134,4.303,4.2084,4.1345,4.1466,4.2073,4.3344,4.5214,4.6606,4.683,4.7788,4.7773,4.5888,4.6217,4.6337,4.5723,4.5843,4.6785,4.8805,4.9523,4.9987,5.0181,5.1035,5.1109,5.0226,4.9732,4.9134,4.8297,4.8057,4.7728,4.7309,4.7309,4.7309,4.7309,4.7309,4.695,4.6264,4.6067,4.5574,4.4885,4.4242,4.3958,4.3888,4.3454,4.329,4.3245,4.2865,4.244,4.1961,4.1265,4.0756,4.0292,3.9634,3.9388,3.9388,3.9388,3.9388,3.9388,3.9388,3.9388,3.9388,3.9388,3.9388,3.9388,3.9388,3.9388,3.9388,3.9388,3.9388,3.9388,3.9388,3.9388,3.9499,3.9723,3.9768,3.9694,3.9454,3.9388,3.9388,3.9388,3.9388,3.9155,3.8467,3.8392,3.7868,3.6596,3.6492,3.6207,3.5549,3.5504,3.5504,3.5504,3.5504,3.5504,3.5504,3.5504,3.5295,3.4846,3.4638,3.4294,3.3844,3.3604,3.3619,4.3065,4.4632,4.575,4.813,4.7951,4.7188,4.7057,4.5786,4.4,4.2035,4.1178,4.0418,3.9193,3.9652,4.0292,4.0427,4.2094,4.3648,4.4421,4.511,4.5768,4.6309,4.5873,4.5738,4.6324,4.5828,4.6247,4.8192,4.8925,4.9494,5.0061,5.0151,5.0166,5.0091,4.8925,4.8267,4.8237,4.7623,4.7309,4.7309,4.7309,4.7309,4.7309,4.7264,4.689,4.619,4.5544,4.487,4.4212,4.3544,4.329,4.329,4.329,4.3275,4.3245,4.32,4.2432,4.1235,4.0576,4.0352,4.0247,3.9634,3.9388,3.9388,3.9388,3.9388,3.9388,3.9388,3.9388,3.9388,3.9388,3.9388,3.9388,3.9388,3.9388,3.9388,3.9388,3.9454,3.9433,3.9433,3.9499,3.9709,4.0337,4.0427,4.0187,3.9574,3.9403,3.9388,3.9388,3.9388,3.917,3.8512,3.8437,3.7943,3.6686,3.6582,3.6297,3.5609,3.5549,3.5549,3.5504,3.5504,3.5504,3.5504,3.5504,3.5504,3.5504,3.4846,3.4563,3.4548,3.3888,3.3933,4.4879,4.7259,4.9117,4.8798,4.8177,4.7134,4.5243,4.3744,4.2135,3.9797,3.8099,3.6952,3.6738,3.7421,3.8648,4.0599,4.3101,4.5379,4.704,4.8252,4.8686,4.7878,4.8057,4.8132,4.7818,4.7623,4.7938,4.8985,4.876,4.8611,4.8775,4.9657,4.9747,4.8805,4.8461,4.8057,4.7563,4.7399,4.7309,4.7309,4.7309,4.7309,4.7294,4.68,4.6202,4.5529,4.4855,4.4182,4.3529,4.3364,4.329,4.329,4.329,4.3045,4.259,4.2058,4.1354,4.0561,3.9903,3.9664,3.9649,3.9469,3.9388,3.9388,3.9388,3.9388,3.9388,3.9388,3.9388,3.9388,3.9388,3.9388,3.9388,3.9388,3.9388,3.9388,3.9388,3.9798,4.0157,4.0157,4.0546,4.0935,4.11,4.0726,4.0337,4.0172,3.9738,3.9388,3.9388,3.9388,3.9313,3.917,3.9155,3.8811,3.7973,3.7913,3.7434,3.6312,3.6237,3.6013,3.5534,3.5504,3.5504,3.5504,3.5504,3.5504,3.5504,3.5325,3.525,3.5235,3.507,3.5085,4.678,4.887,5.0365,4.9045,4.7825,4.6359,4.4066,4.2136,4.0128,3.7652,3.6105,3.5136,3.4963,3.5448,3.6658,3.9007,4.1255,4.3614,4.6187,4.7683,4.8566,4.8701,4.909,4.9164,4.8805,4.876,4.8745,4.8865,4.903,4.9015,4.873,4.9419,4.9344,4.8312,4.7997,4.7683,4.7309,4.7309,4.7309,4.7309,4.7309,4.7309,4.7279,4.6621,4.5948,4.5259,4.4601,4.3902,4.329,4.329,4.329,4.329,4.329,4.3105,4.2716,4.2096,4.1384,4.0726,4.0083,3.9664,3.9388,3.9388,3.9388,3.9388,3.9388,3.9619,3.9783,3.9463,3.9634,3.9783,3.9499,3.9388,3.9388,3.9388,3.9388,3.9499,3.9783,4.0142,4.0487,4.0771,4.1392,4.1767,4.1467,4.1309,4.107,4.0487,4.0083,3.9843,3.9843,3.9568,3.9388,3.9388,3.9388,3.914,3.8452,3.8392,3.7958,3.6956,3.6641,3.6327,3.5953,3.5669,3.5504,3.5504,3.5504,3.5504,3.5504,3.5504,3.5504,3.5504,3.5504,3.5504,4.8769,5.0002,5.0583,4.9204,4.7419,4.543,4.3239,4.0771,3.8217,3.5683,3.4811,3.4357,3.3773,3.4062,3.5073,3.7184,3.8692,4.0808,4.4201,4.5756,4.7294,4.9179,4.9524,4.9569,4.9569,4.9569,4.9329,4.8716,4.9643,4.9883,4.9105,4.9134,4.888,4.8177,4.7593,4.7309,4.7309,4.7309,4.7309,4.7309,4.7309,4.7307,4.7317,4.6656,4.5965,4.5289,4.4735,4.4053,4.329,4.3409,4.3409,4.329,4.329,4.3185,4.2961,4.2447,4.1796,4.104,4.0472,3.9903,3.9388,3.9388,3.9388,3.9439,3.9529,3.9948,4.0307,3.9813,4.0023,4.0277,3.9694,3.9484,3.9388,3.9388,3.9484,3.9709,4.0277,4.0531,4.0846,4.1504,4.2141,4.2351,4.1743,4.2081,4.2006,4.0831,4.0502,4.0397,4.0397,3.9828,3.9418,3.9508,3.9433,3.917,3.8571,3.8527,3.8242,3.7584,3.6956,3.6567,3.6492,3.5848,3.5504,3.5504,3.5504,3.5504,3.5504,3.5504,3.5504,3.5504,3.5504,3.5504,5.0757,5.1672,5.1817,5.0002,4.8039,4.575,4.2223,3.9465,3.691,3.4361,3.3769,3.3667,3.3551,3.4562,3.6256,3.8686,4.0068,4.2138,4.6007,4.7328,4.8476,4.9898,5.0556,5.0885,5.0885,5.0885,5.084,5.072,5.0375,4.9433,4.7743,4.8162,4.8162,4.7489,4.7369,4.7309,4.7309,4.7309,4.7309,4.7309,4.7309,4.7337,4.743,4.6768,4.6119,4.5469,4.5466,4.4633,4.3369,4.4028,4.3888,4.329,4.329,4.2671,4.1713,4.1594,4.0786,3.9738,3.9634,3.9514,3.9388,3.9388,3.9388,3.9514,4.0068,4.0307,4.0487,4.092,4.0726,4.0367,4.0262,3.9828,3.9388,3.9388,3.9828,4.0262,4.0367,4.125,4.2261,4.2865,4.305,4.3135,4.2976,4.2641,4.2321,4.2096,4.11,4.0397,4.0397,3.9828,3.9634,4.0172,3.9738,3.9328,3.9245,3.9245,3.8945,3.8257,3.7614,3.7015,3.6507,3.5848,3.5504,3.5504,3.5504,3.5504,3.5504,3.5504,3.5504,3.5504,3.5504,3.5504,5.1439,5.2572,5.2963,5.0351,4.7999,4.5242,4.1062,3.813,3.5662,3.3441,3.2977,3.2977,3.2977,3.3897,3.5302,3.722,3.831,4.044,4.4879,4.6167,4.7521,4.9912,5.0764,5.1214,5.1214,5.1214,5.093,5.0257,4.9912,4.9314,4.8371,4.7982,4.7638,4.7309,4.7309,4.7309,4.7309,4.7309,4.7309,4.7309,4.7309,4.7362,4.7492,4.6825,4.6353,4.6093,4.5814,4.5258,4.4586,4.4962,4.4887,4.4548,4.4548,4.4201,4.3501,4.2389,4.1587,4.0921,4.0169,3.9932,4.0036,4.0349,4.0202,3.9933,3.9903,4.0606,4.1339,4.098,4.113,4.1265,4.0576,4.0427,4.0352,4.0008,4.0696,4.1452,4.1452,4.2177,4.2955,4.323,4.329,4.329,4.329,4.3075,4.2746,4.2455,4.1856,4.1452,4.1452,4.0546,3.9918,3.9888,3.9604,3.9388,3.9388,3.9388,3.9239,3.8945,3.7973,3.7434,3.7479,3.6207,3.5669,3.6013,3.5684,3.5504,3.5504,3.5504,3.5504,3.5504,3.5504,3.5504,5.1788,5.3138,5.3834,5.1004,4.8072,4.4821,4.0742,3.7404,3.4738,3.3064,3.2614,3.2524,3.2701,3.3321,3.4299,3.5683,3.6437,3.8463,4.3021,4.4515,4.6314,4.9418,5.0646,5.1214,5.1214,5.1094,5.0586,4.9553,4.9254,4.9045,4.8895,4.7863,4.7309,4.7309,4.7309,4.7309,4.7309,4.7309,4.7309,4.7309,4.716,4.7151,4.7261,4.6753,4.6523,4.6471,4.6259,4.602,4.5697,4.5877,4.5841,4.5697,4.5697,4.5523,4.504,4.3354,4.255,4.2133,4.0999,4.0588,4.0608,4.1185,4.1046,4.0543,4.0149,4.113,4.2216,4.128,4.1564,4.1946,4.0876,4.0891,4.1115,4.0876,4.1647,4.244,4.2575,4.297,4.329,4.329,4.329,4.329,4.329,4.329,4.3125,4.2641,4.2485,4.2396,4.2396,4.1324,4.0367,3.9709,3.9514,3.9388,3.9388,3.9388,3.9388,3.9388,3.8287,3.7793,3.8167,3.6582,3.5893,3.6267,3.5774,3.5504,3.5504,3.5504,3.5504,3.5504,3.5504,3.5504,5.2325,5.3471,5.4154,5.2673,4.9074,4.5169,4.2455,3.8028,3.4283,3.3576,3.2919,3.2701,3.3314,3.3939,3.4801,3.6272,3.6731,3.8153,4.1679,4.4001,4.6082,4.8207,5.0092,5.1214,5.1214,5.0629,5.0226,5.0121,4.9045,4.8117,4.7519,4.7369,4.7309,4.7309,4.7309,4.7309,4.7309,4.7309,4.7309,4.7294,4.6696,4.6441,4.6603,4.6644,4.6381,4.5864,4.7201,4.6997,4.5769,4.6429,4.6288,4.5697,4.5697,4.4922,4.375,4.3589,4.2703,4.1566,4.1437,4.0987,4.0601,4.1188,4.1352,4.1413,4.1942,4.2246,4.25,4.2925,4.2297,4.1482,4.1324,4.0891,4.0771,4.1946,4.2306,4.256,4.312,4.3245,4.329,4.329,4.329,4.329,4.329,4.329,4.3275,4.3215,4.2746,4.2396,4.2396,4.1767,4.104,4.0382,3.9768,3.9388,3.9388,3.9388,3.9388,3.9388,3.8721,3.8063,3.7524,3.6791,3.6148,3.5609,3.5534,3.5504,3.5504,3.5504,3.5504,3.5504,3.5504,3.5504,5.141,5.2934,5.3515,5.1846,4.8333,4.4414,4.1105,3.6983,3.3674,3.3021,3.2701,3.2568,3.2846,3.3412,3.4041,3.4651,3.4451,3.5483,3.9055,4.0277,4.2242,4.6052,4.7534,4.8745,4.9927,4.9808,4.9494,4.909,4.8207,4.7578,4.7309,4.7309,4.7309,4.7309,4.7309,4.7309,4.7309,4.692,4.6711,4.6711,4.6022,4.5787,4.5926,4.5943,4.5878,4.5733,4.6356,4.6515,4.6362,4.6205,4.6248,4.6366,4.5927,4.5407,4.4821,4.3959,4.3313,4.2751,4.2291,4.1673,4.1213,4.1815,4.1735,4.1454,4.1711,4.2334,4.2914,4.2804,4.2658,4.2462,4.2111,4.1512,4.122,4.2186,4.2396,4.259,4.3155,4.329,4.329,4.329,4.329,4.329,4.329,4.329,4.329,4.329,4.312,4.294,4.294,4.2372,4.1916,4.1647,4.0636,3.9843,3.9418,3.9388,3.9388,3.9388,3.8766,3.8452,3.8616,3.724,3.6537,3.6641,3.5893,3.5504,3.5504,3.5504,3.5504,3.5504,3.5504,3.5504,4.9306,5.1265,5.2267,5.0525,4.7187,4.3471,4.0205,3.6359,3.3373,3.289,3.2498,3.2249,3.2452,3.289,3.3285,3.3525,3.3176,3.4007,3.7246,3.8041,3.9706,4.3663,4.4915,4.6217,4.8207,4.8745,4.8745,4.8042,4.7563,4.7309,4.7309,4.7115,4.7115,4.7294,4.7115,4.701,4.701,4.6352,4.6022,4.6022,4.5319,4.5183,4.5511,4.5541,4.5587,4.5702,4.5949,4.6219,4.6467,4.5946,4.6061,4.651,4.5997,4.5665,4.5369,4.4358,4.3858,4.3568,4.3025,4.2396,4.1912,4.2557,4.2291,4.1713,4.1713,4.2484,4.321,4.2597,4.2546,4.2701,4.247,4.2201,4.2073,4.2536,4.2845,4.3015,4.323,4.329,4.329,4.329,4.329,4.329,4.329,4.329,4.329,4.329,4.329,4.329,4.329,4.294,4.262,4.2425,4.1572,4.0636,3.9783,3.9709,3.9634,3.9388,3.896,3.8826,3.9095,3.7778,3.7165,3.7404,3.6342,3.5804,3.5804,3.5609,3.5504,3.5504,3.5504,3.5504,4.5938,4.8275,5.0394,4.9074,4.5851,4.2498,4.0539,3.6685,3.3503,3.3489,3.2425,3.1698,3.2365,3.2527,3.2762,3.3568,3.3688,3.4494,3.6891,3.8273,3.9668,4.1265,4.2566,4.4112,4.6115,4.7534,4.8027,4.7369,4.7309,4.7309,4.7309,4.6696,4.6636,4.7279,4.6681,4.6294,4.6294,4.5648,4.5304,4.5289,4.4631,4.473,4.5495,4.5645,4.5709,4.5743,4.6536,4.6493,4.5814,4.5798,4.5798,4.5798,4.5798,4.5334,4.4705,4.4688,4.4241,4.3598,4.3598,4.3143,4.2699,4.3363,4.3068,4.2485,4.2485,4.2954,4.3339,4.2612,4.1931,4.1587,4.2231,4.2836,4.3275,4.329,4.3783,4.4122,4.3424,4.329,4.329,4.329,4.329,4.329,4.329,4.329,4.329,4.329,4.329,4.329,4.329,4.329,4.3075,4.247,4.2396,4.1856,4.0502,4.0382,4.0113,3.9454,3.9373,3.911,3.8422,3.8377,3.8063,3.7419,3.6791,3.6477,3.6477,3.5818,3.5504,3.5504,3.5504,3.5504,4.2702,4.3703,4.4037,4.3616,4.1294,3.871,3.7252,3.4762,3.2687,3.2237,3.1801,3.1553,3.177,3.183,3.2193,3.338,3.3287,3.3683,3.54,3.7267,3.9213,4.1175,4.4137,4.6292,4.6935,4.7369,4.7339,4.6681,4.7055,4.6905,4.5978,4.6187,4.6384,4.6636,4.5978,4.5618,4.5618,4.496,4.4886,4.5416,4.4745,4.4872,4.563,4.5158,4.4966,4.4922,4.4685,4.4719,4.4935,4.4479,4.4599,4.4986,4.4506,4.4456,4.4622,4.4141,4.4125,4.4274,4.3764,4.3174,4.2618,4.2844,4.2414,4.1903,4.2343,4.2611,4.28,4.3089,4.3335,4.3457,4.3213,4.2916,4.2671,4.2671,4.286,4.3045,4.3245,4.329,4.329,4.329,4.329,4.329,4.329,4.329,4.329,4.329,4.329,4.329,4.329,4.329,4.3215,4.3045,4.303,4.2491,4.1175,4.0651,4.0307,4.0113,3.9664,3.932,3.9095,3.8631,3.8287,3.8078,3.703,3.6492,3.6492,3.5833,3.5504,3.5504,3.5504,3.5554,3.9407,4.0495,4.0612,4.0133,3.8449,3.6591,3.5299,3.3514,3.1988,3.1582,3.1322,3.1163,3.1163,3.1163,3.1511,3.2556,3.2788,3.3211,3.4386,3.6674,3.9011,4.1145,4.4212,4.6172,4.6172,4.686,4.704,4.6324,4.6711,4.6456,4.5349,4.5469,4.5574,4.5574,4.514,4.5079,4.539,4.4724,4.4769,4.5583,4.4862,4.4961,4.5661,4.4944,4.4603,4.4617,4.4134,4.4058,0.0,4.3776,4.3861,4.4241,4.3764,4.3893,4.4224,4.3764,4.388,4.4224,4.3747,4.3342,4.2974,4.2974,4.2491,4.1996,4.241,4.2477,4.259,4.3324,4.3858,4.4028,4.3578,4.3518,4.3385,4.2593,4.2785,4.3075,4.2985,4.3125,4.329,4.329,4.329,4.329,4.329,4.329,4.329,4.329,4.329,4.329,4.329,4.329,4.329,4.329,4.329,4.2961,4.2177,4.1519,4.104,4.0786,4.0157,3.9783,3.9783,3.914,3.8781,3.8781,3.7749,3.7075,3.6836,3.5938,3.5504,3.5504,3.5733,3.5863,0.0,3.8275,3.932,3.8043,3.6881,3.5706,3.4428,3.2788,0.0,3.1422,3.0988,3.0612,3.067,3.067,3.0888,3.154,3.2351,3.317,3.3979,3.6605,3.922,4.1354,4.3329,4.4466,4.4332,4.6082,4.6935,4.619,4.6175,4.5933,4.52,4.4616,4.4272,4.4182,4.4167,4.4569,4.541,4.4749,4.4847,4.569,4.4942,4.4979,4.5679,4.495,4.464,4.4688,4.4622,4.4241,4.3598,4.3598,4.3598,4.3598,4.3598,4.3631,4.3664,4.3615,4.3631,4.3664,4.3615,4.3598,4.3598,4.3598,4.3174,4.2648,4.2617,4.2574,4.2728,4.3411,4.368,4.3728,4.3619,4.454,4.501,4.2952,4.3433,4.3978,4.268,4.2865,4.329,4.329,4.329,4.329,4.329,4.329,4.329,4.329,4.329,4.329,4.329,4.329,4.329,4.329,4.329,4.329,4.329,4.2746,4.2111,4.1452,4.0771,4.0382,4.0337,3.9738,3.9388,3.9388,3.8691,3.8003,3.7345,3.6103,3.5504,3.5537,3.6133,3.643,3.3264,0.0,3.4719,3.3412,3.3253,3.3064,0.0,3.1496,3.138,3.0901,3.0714,3.0757,3.1206,3.1293,3.1702,3.2995,3.3478,3.4009,3.4789,3.8216,4.1376,4.3389,4.5379,4.5992,4.4466,4.5678,4.6052,4.487,4.5259,4.502,4.3813,4.4122,4.3853,4.289,4.286,4.346,4.4703,4.4004,4.4336,4.5697,4.4955,4.5032,4.5744,4.5003,4.4684,4.4655,4.4108,4.3747,4.3598,4.3598,4.3598,4.3598,4.3598,4.3959,4.4373,4.3797,4.3976,4.4357,4.378,4.3598,4.3598,4.3598,4.3492,4.3265,4.2741,4.2976,4.346,4.3621,4.4443,4.5178,4.5168,4.5413,4.5253,4.3635,4.3853,4.4082,4.2677,4.2865,4.329,4.329,4.329,4.329,4.329,4.329,4.329,4.329,4.329,4.329,4.329,4.329,4.329,4.329,4.329,4.329,4.329,4.2746,4.2111,4.1452,4.0771,4.0172,3.9664,3.9463,3.9388,3.9388,3.8242,3.733,3.6701,3.5994,3.5638,3.5671,3.6415,3.6829,3.1147,3.2092,3.2788,3.1772,3.1756,3.1801,3.083,3.0843,3.0988,3.067,3.0598,3.0786,3.1409,3.1309,3.1635,3.3074,3.3503,3.4377,3.6384,3.8555,4.0905,4.3514,4.4825,4.5289,4.4811,4.5424,4.5424,4.4392,4.4646,4.4407,4.3349,4.3389,4.309,4.2425,4.2111,4.2463,4.3571,4.3202,4.376,4.5273,4.4544,4.4575,4.5251,4.4522,4.4208,4.4175,4.3764,4.3598,4.3598,4.3598,4.3598,4.3598,4.3598,4.383,4.4158,4.3731,4.383,4.4141,4.3731,4.3598,4.3598,4.3598,4.3598,4.3522,4.3174,4.3361,4.3593,4.3263,4.4415,4.5669,4.5274,4.5677,4.5758,4.3923,4.4018,4.4113,4.2685,4.2865,4.329,4.329,4.329,4.3409,4.3771,4.3551,4.3448,4.381,4.3551,4.329,4.329,4.329,4.329,4.329,4.329,4.329,4.329,4.3015,4.2656,4.2297,4.1384,4.0696,4.0337,3.9738,3.9445,3.9553,3.8128,3.7323,3.721,3.6478,3.6165,3.6259,3.7279,3.7761,2.9711,3.0799,3.193,3.1496,3.1438,3.1351,3.0757,3.0598,3.0598,3.0598,3.0598,3.0786,3.144,3.1285,3.1493,3.2801,3.3511,3.5029,3.8257,3.8779,3.9906,4.2811,4.3409,4.3958,4.4766,4.493,4.4721,4.4062,4.3928,4.3629,4.3021,4.2521,4.2201,4.2111,4.1557,4.1482,4.2011,4.2248,4.311,4.4642,4.388,4.3872,4.4506,4.3863,4.3598,4.3598,4.3598,4.3598,4.3598,4.3598,4.3598,4.3598,4.3598,4.3598,4.3598,4.3598,4.3598,4.3598,4.3598,4.3598,4.3598,4.3598,4.3598,4.3598,4.3598,4.3598,4.3525,4.3043,4.432,4.5673,4.5114,4.5958,4.6461,4.4346,4.4375,4.4439,4.2901,4.3061,4.3448,4.3329,4.329,4.3551,4.4358,4.3912,4.3771,4.4548,4.4105,4.3669,4.3669,4.3669,4.3669,4.3669,4.3669,4.3669,4.3669,4.3551,4.3472,4.3472,4.2269,4.1482,4.1272,4.0104,3.9472,3.9546,3.826,3.7733,3.7974,3.7203,3.6919,3.7086,3.8246,3.8789,2.9508,2.9813,3.0146,3.0611,3.1119,3.1351,3.0757,3.0598,3.0598,3.0598,3.0598,3.0831,3.1594,3.2043,3.2613,3.3777,3.555,3.755,3.9783,4.1055,4.1938,4.2485,4.3973,4.4421,4.2995,4.3314,4.3359,4.2755,4.2186,4.1788,4.1683,4.1579,4.1265,4.0711,4.0606,4.0351,3.989,4.1005,4.2354,4.3848,4.3119,4.3106,4.3764,4.3648,4.3598,4.3598,4.3598,4.3598,4.3598,4.3598,4.3598,4.3598,4.3598,4.3598,4.3598,4.3598,4.3598,4.3598,4.3598,4.3598,4.3598,4.3598,4.3598,4.3598,4.3598,4.3598,4.3714,4.4219,4.5057,4.5899,4.6416,4.7176,4.7424,4.5819,4.595,4.5869,4.3797,4.386,4.4105,4.3433,4.329,4.3551,4.4358,4.4412,4.4586,4.5405,4.5405,4.5332,4.5332,4.5332,4.5332,4.5332,4.5332,4.5332,4.5332,4.4699,4.4335,4.4335,4.3022,4.1752,4.0591,3.9959,3.939,3.8852,3.8714,3.8412,3.7934,3.7821,3.7787,3.786,3.8723,3.9135,2.8493,2.8855,2.9261,2.99,3.0539,3.093,3.067,3.0598,3.0699,3.1018,3.109,3.134,3.2151,3.2547,3.3248,3.4654,3.6239,3.7645,3.8626,3.9247,3.989,4.0681,4.1564,4.2043,4.1886,4.2102,4.2013,4.1354,4.1025,4.0696,4.0337,3.9978,3.9634,3.932,3.8975,3.8808,3.8872,3.9474,4.0678,4.2509,4.2186,4.2568,4.3598,4.3598,4.3598,4.3598,4.3598,4.3598,4.3598,4.3598,4.3598,4.3598,4.3598,4.3598,4.3598,4.3598,4.3598,4.3598,4.3598,4.3598,4.3598,4.3598,4.3598,4.3598,4.3598,4.3598,4.3731,4.4489,4.5218,4.5963,4.6709,4.7454,4.7737,4.6593,4.6585,4.6298,4.4431,4.4617,4.4774,4.3551,4.3669,4.4082,4.4434,4.4143,4.4105,4.4924,4.5073,4.5073,4.5073,4.5442,4.5697,4.5697,4.5295,4.5073,4.5073,4.4297,4.3698,4.3388,4.287,4.1964,4.0626,4.0462,4.0299,4.01,3.9299,3.9031,3.9256,3.9169,3.8972,3.8668,3.9764,4.0055,2.7666,2.8086,2.8608,2.9247,2.9871,3.0422,3.0727,3.086,3.1035,3.1627,3.1806,3.2045,3.265,3.309,3.3858,3.5356,3.6652,3.7625,3.8028,3.8152,3.8594,3.9717,3.9873,4.0217,4.107,4.101,4.0651,3.9978,3.9798,3.9484,3.8975,3.8437,3.8167,3.8167,3.7674,3.7729,3.8381,3.839,3.9356,4.1246,4.1224,4.1882,4.3069,4.3069,4.3168,4.3333,4.3333,4.3433,4.3598,4.3598,4.3598,4.3598,4.3598,4.3598,4.3598,4.3598,4.3598,4.3598,4.3598,4.3598,4.3598,4.3598,4.3598,4.3598,4.3598,4.3598,4.3731,4.4489,4.5102,4.5781,4.6874,4.7587,4.7935,4.766,4.7588,4.7176,4.562,4.5788,4.574,4.4174,4.4373,4.4774,4.4774,4.4396,4.4282,4.4699,4.4909,4.5058,4.5058,4.5442,4.5769,4.5949,4.5243,4.4737,4.4586,4.4182,4.3598,4.2805,4.262,4.2138,4.1246,4.1143,4.1129,4.1255,4.0246,4.0016,4.0622,4.0446,4.0219,3.9934,4.0608,4.073,2.755,2.7739,2.7927,2.8594,2.9218,2.9972,3.1177,3.1576,3.1842,3.2341,3.2664,3.2915,3.2958,3.3743,3.475,3.5807,3.7287,3.8751,4.0008,4.0711,4.113,4.1235,4.1272,4.104,4.0516,3.9918,3.9275,3.8586,3.7973,3.7599,3.7554,3.7509,3.7479,3.7479,3.7434,3.7729,3.8381,3.8404,3.9085,4.0488,4.0499,4.087,4.1574,4.1574,4.1926,4.2572,4.2572,4.2969,4.3598,4.3598,4.3598,4.3598,4.3598,4.3598,4.3598,4.3598,4.3598,4.3598,4.3598,4.3598,4.3598,4.3598,4.3598,4.3598,4.3598,4.3598,4.3731,4.4489,4.4752,4.5251,4.7371,4.7968,4.8316,4.9655,4.9935,4.9515,4.8012,4.7709,4.7303,4.5823,4.5588,4.5624,4.5624,4.6147,4.6324,4.5697,4.6182,4.6638,4.6638,4.6076,4.5985,4.6638,4.6056,4.5405,4.4812,4.5405,4.5258,4.395,4.2743,4.2279,4.2796,4.1825,4.1272,4.1194,4.1828,4.1894,4.1331,4.1198,4.1456,4.2047,4.0764,4.051,2.7084,2.7391,2.7753,2.8,2.8841,2.9827,3.0742,3.1403,3.1962,3.2526,3.3155,3.3625,3.364,3.4428,3.5215,3.5462,3.7133,3.8422,3.8527,3.911,3.9364,3.896,3.8916,3.8811,3.8571,3.8317,3.7898,3.7255,3.6971,3.6656,3.6252,3.6222,3.6222,3.6222,3.6222,3.6522,3.7152,3.7574,3.8219,3.9088,3.9993,4.0753,4.1409,4.1409,4.1794,4.2456,4.2009,4.2489,4.3565,4.3102,4.3184,4.3598,4.3598,4.3598,4.3598,4.3598,4.3598,4.3598,4.3598,4.3598,4.3598,4.3598,4.3598,4.3598,4.3598,4.3598,4.3648,4.3943,4.4026,4.4539,4.6742,4.7322,4.7686,4.9177,4.9525,4.9222,4.8137,4.8278,4.8213,4.67,4.6379,4.6397,4.6375,4.6235,4.6005,4.5733,4.5949,4.6288,4.6742,4.6569,4.6689,4.7454,4.6947,4.6324,4.5706,4.5646,4.5406,4.491,4.3951,4.334,4.3204,4.2897,4.2702,4.2652,4.2492,4.2492,4.2635,4.2601,4.2252,4.161,4.1508,4.1145,2.6559,2.6794,2.7144,2.7347,2.8203,2.932,3.0597,3.1534,3.2343,3.3144,3.3736,3.4058,3.4058,3.4669,3.5203,3.5204,3.6645,3.7704,3.7449,3.7793,3.7913,3.7464,3.7404,3.733,3.7135,3.712,3.6866,3.6222,3.5968,3.5759,3.5519,3.5295,3.528,3.5489,3.5504,3.5878,3.6723,3.7161,3.7809,3.8634,3.9589,4.0282,4.0746,4.0746,4.1143,4.1823,4.1309,4.1922,4.3201,4.2704,4.292,4.3598,4.3598,4.3598,4.3598,4.3598,4.3598,4.3598,4.3598,4.3598,4.3598,4.3598,4.3598,4.3598,4.3598,4.3598,4.3598,4.3598,4.3598,4.4045,4.6046,4.6725,4.7322,4.9044,4.9458,4.924,4.8448,4.8689,4.8708,4.741,4.7184,4.7093,4.6837,4.6589,4.6269,4.5769,4.5913,4.6218,4.6742,4.6604,4.6689,4.7253,4.7186,4.688,4.6346,4.6189,4.6016,4.5862,4.5154,4.4439,4.3735,4.3638,4.3647,4.3839,4.3356,4.3322,4.3792,4.3511,4.3031,4.2269,4.2286,4.1863,2.6006,2.5818,2.5992,2.6646,2.7273,2.8391,3.0915,3.2174,3.3147,3.442,3.4437,3.4188,3.4188,3.4377,3.4665,3.513,3.5914,3.6701,3.73,3.7404,3.7404,3.7389,3.7389,3.715,3.6537,3.6477,3.6193,3.5549,3.4861,3.4788,3.5444,3.4846,3.4786,3.5474,3.5489,3.6116,3.7354,3.7383,3.801,3.9299,3.9299,3.9299,3.9299,3.9299,3.9713,4.0409,4.0393,4.1193,4.2489,4.2489,4.2936,4.3598,4.3598,4.3598,4.3598,4.3598,4.3598,4.3598,4.3598,4.3598,4.3598,4.3598,4.3598,4.3598,4.3598,4.3598,4.3598,4.3598,4.3598,4.3929,4.54,4.6328,4.7438,4.9674,5.0204,5.0005,4.9276,4.911,4.8895,4.815,4.8017,4.7754,4.6981,4.7488,4.7488,4.5949,4.6324,4.6811,4.6811,4.6182,4.5789,4.5901,4.6622,4.6965,4.6553,4.7171,4.7372,4.683,4.6126,4.5369,4.4644,4.3896,4.3839,4.4587,4.4615,4.4615,4.4615,4.3809,4.3826,4.4564,4.3014,4.2692,2.6573,2.6808,2.7173,2.7376,2.8594,3.0045,3.125,3.1809,3.2507,3.3909,3.432,3.4345,3.409,3.4684,3.5036,3.4562,3.5615,3.6387,3.6103,3.6462,3.6582,3.6133,3.6073,3.5998,3.5804,3.5355,3.5028,3.4801,3.4158,3.3873,3.4083,3.3888,3.4083,3.4788,3.4786,3.5151,3.5903,3.691,3.7524,3.7829,3.882,3.9299,3.9299,3.9299,3.9713,4.0376,3.9862,4.0713,4.2539,4.3052,4.34,4.3598,4.3598,4.3598,4.3598,4.3598,4.3598,4.3598,4.3598,4.3598,4.3598,4.3598,4.3598,4.3598,4.3598,4.3598,4.3598,4.3598,4.3598,4.3813,4.4771,4.5185,4.603,4.8779,4.9442,4.9375,4.916,4.9525,4.9674,4.8928,4.8779,4.8713,4.8445,4.82,4.7853,4.7387,4.7015,4.6846,4.6999,4.7287,4.7588,4.7918,4.8146,4.8275,4.8242,4.7512,4.7175,4.7538,4.5928,4.5055,4.5367,4.4658,4.4367,4.4615,4.4615,4.4615,4.4615,4.435,4.4079,4.3741,4.3301,4.2912,2.6486,2.6852,2.7476,2.7984,2.916,3.0525,3.1749,3.2531,3.3275,3.4151,3.4428,3.453,3.4575,3.4867,3.5008,3.4763,3.526,3.5654,3.5519,3.5609,3.5639,3.5519,3.5265,3.51,3.51,3.4487,3.4114,3.4114,3.3484,3.3215,3.3484,3.3245,3.341,3.4068,3.4114,3.4485,3.5279,3.6153,3.677,3.7165,3.8319,3.8858,3.8858,3.9183,3.9547,3.9962,3.9812,4.0613,4.2109,4.2853,4.3333,4.3598,4.3598,4.3598,4.3598,4.3598,4.3598,4.3598,4.3598,4.378,4.4042,4.4042,4.4042,4.4042,4.4042,4.3813,4.3598,4.3598,4.3598,4.3764,4.4506,4.4688,4.5284,4.7669,4.8233,4.8315,4.8597,4.9243,4.9558,4.8812,4.8912,4.9011,4.8713,4.8299,4.8001,4.8001,4.7588,4.7337,4.7489,4.7918,4.8356,4.8738,4.8818,4.8762,4.8565,4.775,4.731,4.7462,4.594,4.5226,4.5698,4.4978,4.4615,4.4615,4.4615,4.4615,4.4615,4.4615,4.4333,4.3876,4.3876,4.3639,2.5992,2.6341,2.7142,2.8331,2.9203,3.0322,3.2382,3.3815,3.474,3.4798,3.4679,3.4741,3.5277,3.4891,3.4698,3.5235,3.4801,3.4607,3.5235,3.4786,3.4653,3.525,3.4771,3.4414,3.4414,3.3784,3.341,3.341,3.2796,3.2677,3.329,3.2751,3.2751,3.3471,3.3486,3.4071,3.5257,3.5336,3.5927,3.7019,3.7765,3.8086,3.8146,3.8924,3.9299,3.9348,4.0144,4.0829,4.1446,4.2258,4.2986,4.3598,4.3598,4.3598,4.3598,4.3598,4.3598,4.3598,4.3598,4.4042,4.4589,4.4589,4.4589,4.4589,4.4589,4.4141,4.3598,4.3598,4.3598,4.3731,4.4423,4.4589,4.4937,4.6361,4.6742,4.6974,4.7653,4.8481,4.8862,4.8067,4.8597,4.8945,4.815,4.8001,4.8001,4.8001,4.8001,4.8033,4.8112,4.8127,4.8271,4.8584,4.8666,4.8509,4.7956,4.7821,4.7547,4.6938,4.6075,4.5635,4.5703,4.4976,4.4615,4.4615,4.4615,4.4615,4.4615,4.4615,4.4615,4.4615,4.4615,4.4615,2.5992,2.6649,2.7565,2.784,2.9508,3.1496,3.2998,3.3287,3.3434,3.408,3.4641,3.4919,3.455,3.4498,3.4384,3.3978,3.3799,3.3769,3.3903,3.3799,3.3769,3.3903,3.3799,3.3709,3.3709,3.311,3.2721,3.2721,3.2093,3.178,3.1914,3.1795,3.2237,3.3383,3.3427,3.3967,3.5053,3.5642,3.6029,3.6257,3.6986,3.735,3.7384,3.8718,3.9299,3.9381,4.063,4.1276,4.1508,4.2804,4.3449,4.3598,4.3598,4.3598,4.3598,4.3598,4.3598,4.3598,4.3598,4.3698,4.383,4.383,4.383,4.383,4.383,4.3714,4.3598,4.3598,4.3598,4.3631,4.378,4.383,4.4075,4.4953,4.5616,4.6079,4.6228,4.7769,4.8713,4.7388,4.868,4.9558,4.8233,4.8001,4.8001,4.8001,4.8082,4.8028,4.7619,4.7661,4.7581,4.7267,4.774,4.8027,4.7906,4.7378,4.7225,4.7648,4.5872,4.5094,4.5686,4.4976,4.4615,4.4615,4.4615,4.4615,4.4615,4.4615,4.4615,4.4615,4.4615,4.4615,2.6358,2.6982,2.7913,2.8869,3.0553,3.2179,3.299,3.2952,3.2918,3.3416,3.393,3.4205,3.3912,3.3931,3.3903,3.3559,3.323,3.314,3.344,3.3215,3.314,3.3455,3.3215,3.3021,3.3021,3.2392,3.2019,3.2019,3.1705,3.1511,3.1511,3.1768,3.2231,3.2906,3.3168,3.3698,3.4568,3.494,3.5263,3.5479,3.6224,3.6771,3.7135,3.7897,3.8609,3.9348,4.0067,4.0978,4.2005,4.2754,4.3267,4.3598,4.3598,4.3598,4.3598,4.3598,4.3598,4.3598,4.3598,4.3813,4.4141,4.4141,4.4141,4.4141,4.4141,4.3893,4.3598,4.3598,4.3598,4.3598,4.3598,4.3598,4.3698,4.4092,4.4738,4.5367,4.5715,4.6974,4.7819,4.704,4.8117,4.8912,4.8133,4.8001,4.8001,4.8001,4.7816,4.7593,4.7431,4.72,4.7012,4.6836,4.7141,4.7242,4.6887,4.6498,4.6295,4.6312,4.5229,4.4784,4.5145,4.4818,4.4615,4.4615,4.4615,4.4615,4.4615,4.4615,4.4615,4.4615,4.4615,4.4615,2.6675,2.7084,2.8057,3.0104,3.1308,3.2109,3.2499,3.2472,3.2432,3.2635,3.2997,3.3285,3.3289,3.3304,3.329,3.317,3.2706,3.2497,3.2916,3.2617,3.2497,3.2931,3.2497,3.2138,3.2138,3.1555,3.1167,3.1167,3.1167,3.1167,3.1167,3.1835,3.2268,3.2362,3.3019,3.363,3.4226,3.425,3.4448,3.4899,3.5512,3.6125,3.6721,3.6721,3.7582,3.9133,3.9381,4.0547,4.2324,4.2572,4.2969,4.34,4.34,4.34,4.34,4.34,4.3482,4.3598,4.3598,4.4009,4.4506,4.4506,4.4506,4.4506,4.4506,4.4092,4.3598,4.3598,4.3598,4.3598,4.3598,4.3598,4.3598,4.3598,4.4075,4.4671,4.5284,4.6096,4.6676,4.6527,4.7123,4.7653,4.7785,4.7735,4.7685,4.7818,4.7348,4.702,4.7044,4.6656,4.6385,4.643,4.6532,4.6363,4.5754,4.5703,4.5432,4.4852,4.4682,4.4615,4.4615,4.4615,4.4615,4.4615,4.4615,4.4615,4.4615,4.4615,4.4615,4.4615,4.4615,4.4615,2.6094,2.6428,2.7505,2.9987,3.0292,3.0262,3.1409,3.1358,3.1114,3.1308,3.2344,3.306,3.2555,3.2572,3.2452,3.1854,3.169,3.1451,3.0971,3.1316,3.1451,3.0971,3.0821,3.0776,3.0776,3.0208,2.9849,2.9849,2.9849,2.9849,2.9849,3.0918,3.1745,3.222,3.3367,3.4234,3.4804,3.4787,3.4828,3.4899,3.4998,3.5098,3.5197,3.5197,3.6357,3.8427,3.9686,4.0746,4.1645,4.292,4.3118,4.2638,4.2638,4.2638,4.2638,4.2638,4.3035,4.3598,4.3598,4.3664,4.3731,4.3731,4.3731,4.3731,4.3731,4.3664,4.3598,4.3598,4.3598,4.3598,4.3598,4.3598,4.3598,4.3598,4.3664,4.3764,4.3863,4.4986,4.5748,4.5102,4.5582,4.6295,4.6941,4.662,4.6498,4.7115,4.6845,4.637,4.5749,4.5744,4.5556,4.497,4.5466,4.5821,4.572,4.5703,4.5669,4.5568,4.4942,4.4615,4.4615,4.4615,4.4615,4.4615,4.4615,4.4615,4.4615,4.4615,4.4615,4.4615,4.4615,4.4615,2.6457,2.6808,2.7578,2.871,2.9044,2.9247,2.9798,2.9828,2.9767,2.9854,3.0719,3.1531,3.1812,3.1915,3.1839,3.1555,3.1182,3.0851,3.0552,3.0462,3.0328,3.0028,2.9983,2.9983,2.9983,2.9771,2.9606,2.9606,2.9606,2.9606,2.9606,3.0643,3.1334,3.1571,3.3105,3.4058,3.427,3.4684,3.4899,3.4899,3.4899,3.4899,3.4899,3.4899,3.5876,3.7649,3.8709,3.9802,4.0912,4.1926,4.2158,4.1877,4.1877,4.1877,4.1877,4.1877,4.234,4.2969,4.2969,4.3251,4.3598,4.3598,4.3598,4.3598,4.3598,4.3598,4.3598,4.3598,4.3598,4.3598,4.3598,4.3598,4.3598,4.3598,4.3598,4.3598,4.3598,4.4095,4.4605,4.4671,4.5284,4.5897,4.6228,4.6153,4.6112,4.6445,4.6153,4.5761,4.5442,4.5199,4.4942,4.4632,4.4902,4.5077,4.5077,4.5077,4.5077,4.5077,4.4784,4.4615,4.4615,4.4615,4.4615,4.4615,4.4615,4.4615,4.4615,4.4615,4.4615,4.4615,4.4615,4.4615,2.6806,2.7128,2.7507,2.7666,2.8086,2.8477,2.8665,2.8792,2.8904,2.889,2.9454,3.0152,3.0827,3.108,3.1228,3.1241,3.0717,3.0208,3.0043,2.9774,2.9547,2.9382,2.9367,2.9367,2.9367,2.9202,2.9097,2.9097,2.9097,2.9097,2.9097,3.0235,3.0884,3.0884,3.2595,3.3531,3.3531,3.4237,3.47,3.4899,3.4899,3.4899,3.4899,3.5081,3.5678,3.6605,3.7533,3.8758,4.0177,4.0862,4.116,4.116,4.1342,4.1409,4.1425,4.1624,4.217,4.2771,4.2771,4.3135,4.3598,4.3598,4.3598,4.3598,4.3598,4.3598,4.3598,4.3598,4.3598,4.3598,4.3598,4.3598,4.3598,4.3598,4.3598,4.3598,4.3598,4.3598,4.3747,4.4307,4.4854,4.5301,4.5545,4.5535,4.559,4.5804,4.5488,4.5209,4.5209,4.4851,4.4615,4.4615,4.4615,4.4615,4.4615,4.4615,4.4615,4.4615,4.4615,4.4615,4.4615,4.4615,4.4615,4.4615,4.4615,4.4615,4.4615,4.4615,4.4615,4.4615,4.4615,4.4615,2.6806,2.6835,2.6968,2.755,2.7724,2.7913,2.8564,2.8792,2.8889,2.8889,2.9197,2.9461,2.9491,2.9984,3.0413,3.0539,3.0028,2.94,2.8786,2.9205,2.934,2.8727,2.8652,2.8652,2.8652,2.8079,2.7705,2.7705,2.7705,2.7705,2.7705,2.9313,3.0252,3.0252,3.1877,3.2768,3.2768,3.3497,3.4203,3.4899,3.4899,3.4899,3.4916,3.5628,3.5595,3.5081,3.6539,3.798,3.9415,4.016,4.0459,4.0525,4.116,4.1409,4.1491,4.2175,4.2903,4.3532,4.3532,4.3565,4.3598,4.3598,4.3598,4.3598,4.3598,4.3598,4.3598,4.3598,4.3598,4.3598,4.3598,4.3598,4.3598,4.3598,4.3598,4.3598,4.3598,4.3598,4.3615,4.3648,4.3681,4.3989,4.482,4.4519,4.4478,4.5312,4.498,4.4637,4.4637,4.4632,4.4615,4.4615,4.4615,4.4615,4.4615,4.4615,4.4615,4.4615,4.4615,4.4615,4.4615,4.4615,4.4615,4.4615,4.4615,4.4615,4.4615,4.4615,4.4615,4.4615,4.4615,4.4615,2.6806,2.6806,2.6837,2.707,2.7128,2.7186,2.7445,2.7515,2.7596,2.7676,2.8091,2.8505,2.8723,2.9366,2.9869,2.9909,2.937,2.8861,2.8637,2.8453,2.8229,2.8004,2.7959,2.7959,2.7959,2.775,2.76,2.76,2.76,2.7735,2.8027,2.8982,2.9639,2.9936,3.1276,3.2216,3.2702,3.3425,3.3922,3.4187,3.4667,3.4899,3.4916,3.5164,3.5413,3.5611,3.5661,3.6257,3.7268,3.8493,3.899,3.9106,4.0282,4.0746,4.0829,4.1558,4.1943,4.2175,4.2175,4.2489,4.2886,4.2886,4.3201,4.3598,4.3598,4.3598,4.3598,4.3598,4.3598,4.3598,4.3598,4.3598,4.3598,4.3598,4.3598,4.3598,4.3598,4.3598,4.3598,4.3598,4.3687,4.3876,4.4201,4.4236,4.4337,4.4635,4.4637,4.4615,4.4615,4.4615,4.4615,4.4615,4.4615,4.4615,4.4615,4.4615,4.4615,4.4615,4.4615,4.4615,4.4615,4.4615,4.4615,4.4615,4.4615,4.4615,4.4615,4.4615,4.4615,4.4615,4.4615,4.4615,2.6806,2.6806,2.6806,2.6806,2.6646,2.653,2.6762,2.6631,2.657,2.6933,2.7325,2.7683,2.8014,2.8517,2.8954,2.922,2.8682,2.8248,2.8248,2.7884,2.76,2.76,2.76,2.76,2.76,2.76,2.76,2.76,2.76,2.7795,2.8264,2.8803,2.9393,3.0027,3.0803,3.1702,3.2702,3.3199,3.3696,3.417,3.4667,3.4899,3.4916,3.5148,3.5545,3.5992,3.5744,3.5926,3.6456,3.7433,3.7996,3.8361,3.9802,4.0409,4.0492,4.116,4.1409,4.1409,4.1409,4.1877,4.2489,4.2489,4.2986,4.3598,4.3598,4.3598,4.3598,4.3598,4.3598,4.3598,4.3598,4.3598,4.3598,4.3598,4.3598,4.3598,4.3598,4.3598,4.3598,4.3598,4.3763,4.3927,4.3956,4.4155,4.4338,4.4395,4.4497,4.4615,4.4615,4.4615,4.4615,4.4615,4.4615,4.4615,4.4615,4.4615,4.4615,4.4615,4.4615,4.4615,4.4615,4.4615,4.4615,4.4615,4.4615,4.4615,4.4615,4.4615,4.4615,4.4615,4.4615,4.4615,0.0,0.0,0.0,2.6806,2.6326,2.6006,2.6634,2.6312,2.6061,2.6846,2.7003,2.7081,2.735,2.7401,2.7661,2.8431,2.8034,2.76,2.76,2.76,2.76,2.76,2.76,2.76,2.76,2.76,2.76,2.76,2.76,2.7795,2.8264,2.8803,2.955,3.0468,3.0506,3.1205,3.2619,3.2685,3.3408,3.4833,3.4883,3.4899,3.4916,3.5644,3.5976,3.6042,3.6771,3.7085,3.7102,3.7102,3.7533,3.8302,3.9785,4.0393,4.0492,4.116,4.1409,4.1375,4.1375,4.1827,4.2423,4.2423,4.2936,4.3565,4.3565,4.3582,4.3598,4.3598,4.3598,4.3598,4.3598,4.3598,4.3598,4.3598,4.3598,4.3598,4.3598,4.3598,4.3598,4.3598,4.3763,4.3956,4.4068,4.4224,4.4367,4.457,4.4615,4.4615,4.4615,4.4615,4.4615,4.4615,4.4615,4.4615,4.4615,4.4615,4.4615,4.4615,4.4615,4.4615,4.4615,4.4615,4.4615,4.4615,4.4615,4.4615,4.4615,4.4615,4.4615,4.4615,4.4615,4.4615,2.6806,0.0,0.0,0.0,0.0,0.0,2.6762,2.6727,2.6692,2.6829,2.7093,2.7273,2.7258,2.7412,2.7609,2.7854,2.772,2.76,2.76,2.76,2.76,2.76,2.76,2.76,2.76,2.76,2.76,2.76,2.76,2.7795,2.8264,2.9127,2.9881,3.0468,3.0506,3.0688,3.1085,3.2166,3.2917,3.3309,3.4386,3.4899,3.4899,3.5098,3.5495,3.6009,3.6224,3.6622,3.7102,3.7102,3.7235,3.7549,3.9033,3.9928,4.0492,4.116,4.1094,4.0663,4.0663,4.0796,4.0978,4.0978,4.1806,4.2787,4.2787,4.3168,4.3598,4.3598,4.3598,4.3598,4.3598,4.3598,4.3598,4.3598,4.3598,4.3598,4.3598,4.3598,4.3628,4.3793,4.3939,4.4085,4.4224,4.4412,4.4542,4.4598,4.4615,4.4615,4.4615,4.4615,4.4615,4.4615,4.4615,4.4615,4.4615,4.4615,4.4615,4.4615,4.4615,4.4615,4.4615,4.4615,4.4615,4.4615,4.4615,4.4615,4.4615,4.4615,4.4615,4.4615,4.4615,4.4615,0.0,0.0,0.0,0.0,0.0,0.0,2.6747,2.668,2.6667,2.6904,2.7155,2.7335,2.7346,2.7448,2.7524,2.76,2.76,2.76,2.76,2.76,2.76,2.76,2.76,2.76,2.76,2.76,2.76,2.76,2.76,2.7894,2.8591,2.9556,3.022,3.0489,3.0506,3.0638,3.0952,3.2116,3.2868,3.3183,3.4336,3.4899,3.4899,3.4899,3.5297,3.6025,3.634,3.6704,3.7135,3.7433,3.7384,3.7201,3.8046,3.8825,3.952,3.9934,4.0017,3.9945,3.9945,4.0144,4.0409,4.0409,4.1359,4.2489,4.2489,4.3019,4.3598,4.3598,4.3598,4.3598,4.3598,4.3598,4.3598,4.3598,4.3598,4.3598,4.3598,4.3598,4.3658,4.3868,4.3998,4.4155,4.4281,4.4468,4.4615,4.4615,4.4615,4.4615,4.4615,4.4615,4.4615,4.4615,4.4615,4.4615,4.4615,4.4615,4.4615,4.4615,4.4615,4.4615,4.4615,4.4615,4.4615,4.4615,4.4615,4.4615,4.4615,4.4615,4.4615,4.4615,4.4615,4.4615,0.0,0.0,0.0,0.0,2.6344,0.0,2.6649,2.6458,2.6323,2.7038,2.7148,2.7191,2.7419,2.7369,2.7359,2.747,2.754,2.76,2.76,2.76,2.76,2.76,2.76,2.76,2.76,2.76,2.76,2.76,2.76,2.8042,2.9051,2.9897,3.0384,3.0506,3.0506,3.0803,3.1466,3.2216,3.2945,3.3673,3.4419,3.4816,3.4899,3.4899,3.5263,3.5926,3.6738,3.7102,3.7168,3.7914,3.7781,3.7102,3.7102,3.7566,3.8186,3.8186,3.8659,3.9315,3.9398,3.9812,4.0293,4.0376,4.1243,4.2286,4.2357,4.2886,4.3482,4.3582,4.3598,4.3598,4.3598,4.3598,4.3598,4.3598,4.3598,4.3598,4.3628,4.3628,4.3704,4.3881,4.4027,4.4155,4.431,4.4468,4.4615,4.4615,4.4615,4.4615,4.4615,4.4615,4.4615,4.4615,4.4615,4.4615,4.4615,4.4615,4.4615,4.4615,4.4615,4.4615,4.4615,4.4615,4.4615,4.4615,4.4615,4.4615,4.4615,4.4615,4.4615,4.4615,4.4615,4.4615,0.0,0.0,0.0,0.0,2.6704,0.0,2.6777,2.6886,2.6983,2.7026,2.687,2.6683,2.6624,2.6698,2.6757,2.6782,2.7255,2.76,2.76,2.76,2.76,2.76,2.76,2.76,2.76,2.76,2.76,2.76,2.76,2.8042,2.9051,2.928,2.9705,3.0468,3.0506,3.0572,3.0704,3.1449,3.2183,3.2934,3.3657,3.4319,3.4899,3.4899,3.4982,3.5181,3.6522,3.7102,3.7168,3.7914,3.7781,3.7102,3.7102,3.7566,3.8186,3.8186,3.8659,3.9381,3.9978,3.9895,3.9613,4.021,4.0591,4.0895,4.1458,4.2109,4.2837,4.3416,4.3598,4.3598,4.3598,4.3598,4.3598,4.3598,4.3598,4.3628,4.3793,4.3839,4.391,4.4167,4.4155,4.4184,4.4485,4.457,4.4615,4.4615,4.4615,4.4615,4.4615,4.4615,4.4615,4.4615,4.4615,4.4615,4.4615,4.4615,4.4615,4.4615,4.4615,4.4615,4.4615,4.4615,4.4615,4.4615,4.4615,4.4615,4.4615,4.4615,4.4615,4.4615,4.4615,4.4615,0.0,0.0,0.0,2.6873,2.6899,0.0,0.0,2.717,2.7299,2.7196,2.6892,2.6563,2.6504,2.6284,2.6213,2.6542,2.6896,2.7225,2.754,2.76,2.76,2.76,2.76,2.76,2.76,2.76,2.76,2.76,2.782,2.8174,2.8662,2.9173,2.9661,3.0135,3.0384,3.0506,3.0506,3.1234,3.178,3.2166,3.3259,3.3988,3.4352,3.4717,3.4899,3.4965,3.6075,3.6771,3.7168,3.7914,3.7781,3.7069,3.6704,3.7003,3.7665,3.7665,3.8344,3.9415,4.0144,3.9928,3.9481,4.0547,4.0663,4.0542,4.121,4.191,4.2572,4.2936,4.3317,4.3598,4.3598,4.3598,4.3598,4.3598,4.3598,4.3628,4.3734,4.3822,4.3956,4.4155,4.4196,4.4281,4.4542,4.4615,4.4615,4.4615,4.4615,4.4615,4.4615,4.4615,4.4615,4.4615,4.4615,4.4615,4.4615,4.4615,4.4615,4.4615,4.4615,4.4615,4.4615,4.4615,4.4615,4.4615,4.4615,4.4615,4.4615,4.4615,4.4615,4.4615,4.4615,4.4615,2.6523,2.6771,2.691,2.7029,2.7055,2.7067,0.0,0.0,0.0,2.7401,2.6966,2.6587,2.6587,2.6153,2.5929,2.6333,2.6617,2.6941,2.7345,2.7405,2.745,2.7585,2.76,2.76,2.76,2.76,2.765,2.7735,2.81,2.8384,2.8575,2.9355,2.9837,2.9941,3.03,3.0506,3.0506,3.1085,3.1466,3.1615,3.2945,3.3657,3.3822,3.4551,3.4899,3.4932,3.5678,3.634,3.697,3.7847,3.7781,3.7052,3.6439,3.6489,3.6903,3.6903,3.7814,3.9216,4.0094,3.9928,3.9564,4.111,4.116,4.0663,4.1077,4.1794,4.2489,4.2489,4.3019,4.3565,4.3416,4.3482,4.3565,4.3416,4.3499,4.3598,4.3658,4.3822,4.3969,4.4097,4.427,4.4412,4.457,4.4615,4.4615,4.4615,4.4615,4.4615,4.4615,4.4615,4.4615,4.4615,4.4615,4.4615,4.4615,4.4615,4.4615,4.4615,4.4615,4.4615,4.4615,4.4615,4.4615,4.4615,4.4615,4.4615,4.4615,4.4615,4.4615,4.4615,4.4615,4.4615,2.6222,2.6688,2.7155,2.7181,2.7181,2.7181,2.7207,0.0,2.7401,2.7401,0.0,2.6587,2.6587,0.0,0.0,2.5809,2.6692,2.73,2.6806,2.6692,2.6941,2.7525,2.76,2.76,2.76,2.76,2.777,2.8183,2.8264,2.8693,2.9579,2.9728,2.9984,3.0405,3.0468,3.0506,3.0506,3.0572,3.0952,3.1615,3.2431,3.3183,3.3822,3.4551,3.4899,3.4932,3.5678,3.6059,3.6241,3.7632,3.7781,3.7102,3.7019,3.6638,3.6125,3.6125,3.7069,3.8526,3.9928,3.9928,3.9647,4.1707,4.1889,4.1193,4.0663,4.1442,4.2489,4.2489,4.3019,4.3449,4.2787,4.3102,4.3433,4.2771,4.3118,4.3658,4.3839,4.3969,4.4126,4.4253,4.444,4.457,4.4615,4.4615,4.4615,4.4615,4.4615,4.4615,4.4615,4.4615,4.4615,4.4615,4.4615,4.4615,4.4615,4.4615,4.4615,4.4615,4.4615,4.4615,4.4615,4.4615,4.4615,4.4615,4.4615,4.4615,4.4615,4.4615,4.4615,4.4615,4.4615,4.4615,2.5497,2.6095,2.6646,2.6722,2.7028,2.7335,2.7397,2.7488,2.7514,2.7514,0.0,0.0,0.0,0.0,0.0,0.0,2.6632,2.7061,2.7165,2.6866,2.6692,2.7001,2.7031,2.718,2.7555,2.76,2.7685,2.7894,2.8134,2.848,2.8904,2.9489,2.9897,3.0092,3.0363,3.0506,3.0506,3.0506,3.0654,3.0986,3.2133,3.2868,3.3216,3.4369,3.4899,3.4916,3.523,3.5595,3.6075,3.7135,3.7135,3.6506,3.6936,3.692,3.6589,3.6158,3.6671,3.7781,3.9265,3.9564,3.9514,4.0845,4.1061,4.068,3.9995,4.0464,4.1276,4.1276,4.1789,4.2241,4.1926,4.2075,4.2241,4.1926,4.2092,4.2452,4.2987,4.3272,4.3607,4.41,4.4429,4.4615,4.4615,4.4615,4.4615,4.4615,4.4615,4.4615,4.4615,4.4615,4.4615,4.4615,4.4615,4.4615,4.4615,4.4615,4.4615,4.4615,4.4615,4.4615,4.4615,4.4615,4.4615,4.4615,4.4615,4.4615,4.4615,4.4615,4.4615,4.4615,4.4615,4.4615,2.4696,2.5575,2.6308,2.6258,2.6861,2.7488,2.7575,2.76,2.76,2.76,2.721,0.0,0.0,0.0,0.0,0.0,0.0,2.6986,2.7285,2.6761,2.6452,2.6836,2.6881,2.7076,2.754,2.752,2.7563,2.7695,2.8146,2.8482,2.8582,2.9488,2.9984,2.9984,3.0321,3.0506,3.0506,3.0506,3.0506,3.0522,3.2,3.2702,3.2752,3.422,3.4899,3.4899,3.4899,3.5197,3.576,3.6489,3.6605,3.634,3.6671,3.6936,3.7003,3.6042,3.6174,3.7019,3.8477,3.9371,3.9912,4.0061,4.0243,4.026,3.9514,3.9829,4.0409,4.0409,4.0878,4.1375,4.1177,4.1276,4.1331,4.1177,4.1276,4.1558,4.2059,4.2615,4.3171,4.3679,4.4052,4.4333,4.4564,4.4615,4.4615,4.4615,4.4615,4.4615,4.4615,4.4615,4.4615,4.4615,4.4615,4.4615,4.4615,4.4615,4.4615,4.4615,4.4615,4.4615,4.4615,4.4615,4.4615,4.4615,4.4615,4.4615,4.4615,4.4615,4.4615,4.4615,4.4615,4.4615,2.3885,2.5254,2.6489,2.6019,2.6756,2.76,2.76,2.76,2.76,2.76,2.7585,2.757,0.0,0.0,0.0,0.0,0.0,0.0,0.0,2.6048,2.6108,2.7405,2.757,2.757,2.76,2.7367,2.7442,2.7951,2.842,2.8884,2.9332,3.0067,3.0468,3.0468,3.0489,3.0506,3.0506,3.0506,3.0506,3.0522,3.2,3.2702,3.2752,3.422,3.4899,3.4899,3.4899,3.4916,3.4982,3.5727,3.6439,3.7003,3.6307,3.6473,3.6936,3.5462,3.5396,3.6257,3.7731,3.9576,4.1127,3.9779,3.9829,4.026,3.9514,3.9829,4.0409,4.0409,4.0878,4.1259,4.058,4.0912,4.1243,4.0608,4.0928,4.1425,4.1413,4.2277,4.302,4.3037,4.3261,4.369,4.4479,4.4615,4.4615,4.4615,4.4615,4.4615,4.4615,4.4615,4.4615,4.4615,4.4615,4.4615,4.4615,4.4615,4.4615,4.4615,4.4615,4.4615,4.4615,4.4615,4.4615,4.4615,4.4615,4.4615,4.4615,4.4615,4.4615,4.4615,4.4615,4.4615,2.2686,2.4057,2.5424,2.5291,2.6431,2.76,2.76,2.76,2.76,2.76,2.76,2.76,0.0,0.0,0.0,0.0,0.0,0.0,0.0,2.7076,2.7155,2.7845,2.7339,2.7121,2.7555,2.7124,2.6886,2.7061,2.783,2.8361,2.8533,2.9784,3.0506,3.0506,3.0506,3.0506,3.0506,3.0506,3.0506,3.0522,3.2,3.2702,3.2752,3.422,3.4899,3.4899,3.4899,3.4899,3.4965,3.5694,3.586,3.5678,3.5909,3.586,3.5578,3.5081,3.5048,3.5611,3.8063,3.9073,3.9454,4.0382,4.0216,3.963,3.9381,3.9481,3.968,3.968,3.9846,3.9951,3.973,3.9846,3.9978,3.9854,3.997,4.0296,4.0888,4.1379,4.1833,4.2293,4.2945,4.3335,4.3115,4.3938,4.4615,4.4615,4.4615,4.4615,4.4615,4.4615,4.4615,4.4615,4.4615,4.4615,4.4615,4.4615,4.4615,4.4615,4.4615,4.4615,4.4615,4.4615,4.4615,4.4615,4.4615,4.4615,4.4615,4.4615,4.4615,4.4615,4.4615,4.4615,2.1851,2.3045,2.4312,2.4552,2.5818,2.71,2.7515,2.76,2.76,2.76,2.76,2.76,0.0,0.0,0.0,0.0,0.0,0.0,0.0,2.745,2.7578,2.7558,2.7202,2.7195,2.7799,2.7163,2.6817,2.7093,2.7617,2.811,2.8555,2.9636,3.0321,3.0489,3.0506,3.0506,3.0506,3.0506,3.0506,3.0506,3.1735,3.2448,3.2752,3.3955,3.4651,3.4899,3.4899,3.4899,3.4932,3.5413,3.5479,3.5313,3.5528,3.5479,3.5263,3.4998,3.523,3.5943,3.7847,3.8543,3.8825,4.0199,4.0034,3.9299,3.9299,3.9299,3.9348,3.9613,3.9497,3.9365,3.963,3.9497,3.9325,3.9475,3.9501,3.9754,4.0605,4.1117,4.16,4.2341,4.277,4.3031,4.3098,4.3498,4.3785,4.3785,4.4259,4.4513,4.4198,4.4429,4.4615,4.4615,4.4615,4.4615,4.4615,4.4615,4.4615,4.4615,4.4615,4.4615,4.4615,4.4615,4.4733,4.4976,4.475,4.4733,4.4976,4.4733,4.4615,4.4615,4.4615,4.4615]}]]